[[{"header":{"parameterUnit":"m.s-1","parameterCategory":1,"la1":31.0,"la2":29.5877,"lo1":-88.7671,"lo2":-86.6584,"dy":0.0162,"dx":0.0185,"nx":115,"ny":88,"refTime":"2026-05-02T00:00:00:Z","depth":0,"parameterNumber":2,"parameterNumberName":"U-component_of_WINDS"},"data":[0.0,0.0,0.0,0.0,0.0,0.0,0.0,0.0,0.0,0.0,0.0,0.0,0.0,0.0,0.0,0.0,0.0,0.0,0.0,0.0,0.0,0.0,0.0,0.0,0.0,0.0,0.0,0.0,0.0,0.0,0.0,0.0,0.0,0.0,0.0,0.0,0.0,0.0,0.0,0.0,0.0,0.0,0.0,0.0,0.0,0.0,0.0,0.0,0.0,0.0,0.0,0.0,0.0,0.0,0.0,0.0,0.0,0.0,0.0,0.0,0.0,0.0,0.0,0.0,0.0,0.0,0.0,0.0,0.0,0.0,0.0,0.0,0.0,0.0,0.0,0.0,0.0,0.0,0.0,0.0,0.0,0.0,0.0,0.0,0.0,0.0,0.0,0.0,0.0,0.0,0.0,0.0,0.0,0.0,0.0,0.0,0.0,0.0,0.0,0.0,0.0,0.0,0.0,0.0,0.0,0.0,0.0,0.0,0.0,0.0,0.0,0.0,0.0,0.0,0.0,0.0,0.0,0.0,0.0,0.0,0.0,0.0,0.0,0.0,0.0,0.0,0.0,0.0,0.0,0.0,0.0,0.0,0.0,0.0,0.0,0.0,0.0,0.0,0.0,0.0,0.0,0.0,0.0,0.0,0.0,0.0,0.0,0.0,0.0,0.0,0.0,0.0,0.0,0.0,0.0,0.0,0.0,0.0,0.0,0.0,0.0,0.0,0.0,0.0,0.0,0.0,0.0,0.0,0.0,0.0,0.0,0.0,0.0,0.0,0.0,0.0,0.0,0.0,0.0,0.0,0.0,0.0,0.0,0.0,0.0,0.0,0.0,0.0,0.0,0.0,0.0,0.0,0.0,0.0,0.0,0.0,0.0,0.0,0.0,0.0,0.0,0.0,0.0,0.0,0.0,0.0,0.0,0.0,0.0,0.0,0.0,0.0,0.0,0.0,0.0,0.0,0.0,0.0,0.0,0.0,0.0,0.0,0.0,0.0,0.0,0.0,0.0,0.0,0.0,0.0,0.0,0.0,0.0,0.0,0.0,0.0,0.0,0.0,0.0,0.0,0.0,0.0,0.0,0.0,0.0,0.0,0.0,0.0,0.0,0.0,0.0,0.0,0.0,0.0,0.0,0.0,0.0,0.0,0.0,0.0,0.0,0.0,0.0,0.0,0.0,0.0,0.0,0.0,0.0,0.0,0.0,0.0,0.0,0.0,0.0,0.0,0.0,0.0,0.0,0.0,0.0,0.0,0.0,0.0,0.0,0.0,0.0,0.0,0.0,0.0,0.0,0.0,0.0,0.0,0.0,0.0,0.0,0.0,0.0,0.0,0.0,0.0,0.0,0.0,0.0,0.0,0.0,0.0,0.0,0.0,0.0,0.0,0.0,0.0,0.0,0.0,0.0,0.0,0.0,0.0,0.0,0.0,0.0,0.0,0.0,0.0,0.0,0.0,0.0,0.0,0.0,0.0,0.0,0.0,0.0,0.0,0.0,0.0,0.0,0.0,0.0,0.0,0.0,0.0,0.0,0.0,0.0,0.0,0.0,0.0,0.0,0.0,0.0,0.0,0.0,0.0,0.0,0.0,0.0,0.0,0.0,0.0,0.0,0.0,0.0,0.0,0.0,0.0,0.0,0.0,0.0,0.0,0.0,0.0,0.0,0.0,0.0,0.0,0.0,0.0,0.0,0.0,0.0,0.0,0.0,0.0,0.0,0.0,0.0,0.0,0.0,0.0,0.0,0.0,0.0,0.0,0.0,0.0,0.0,0.0,0.0,0.0,0.0,0.0,0.0,0.0,0.0,0.0,0.0,0.0,0.0,0.0,0.0,0.0,0.0,0.0,0.0,0.0,0.0,0.0,0.0,0.0,0.0,0.0,0.0,0.0,0.0,0.0,0.0,0.0,0.0,0.0,0.0,0.0,0.0,0.0,0.0,0.0,0.0,0.0,0.0,0.0,0.0,0.0,0.0,0.0,0.0,0.0,0.0,0.0,0.0,0.0,0.0,0.0,0.0,0.0,0.0,0.0,0.0,0.0,0.0,0.0,0.0,0.0,0.0,0.0,0.0,0.0,0.0,0.0,0.0,0.0,0.0,0.0,0.0,0.0,0.0,0.0,0.0,0.0,0.0,0.0,0.0,0.0,0.0,0.0,0.0,0.0,0.0,0.0,0.0,0.0,0.0,0.0,0.0,0.0,0.0,0.0,0.0,0.0,0.0,0.0,0.0,0.0,0.0,0.0,0.0,0.0,0.0,0.0,0.0,0.0,0.0,0.0,0.0,0.0,0.0,0.0,0.0,0.0,0.0,0.0,0.0,0.0,0.0,0.0,0.0,0.0,0.0,0.0,0.0,0.0,0.0,0.0,0.0,0.0,0.0,0.0,0.0,0.0,0.0,0.0,0.0,0.0,0.0,0.0,0.0,0.0,0.0,0.0,0.0,0.0,0.0,0.0,0.0,0.0,0.0,0.0,0.0,0.0,0.0,0.0,0.0,0.0,0.0,0.0,0.0,0.0,0.0,0.0,0.0,0.0,0.0,0.0,0.0,0.0,0.0,0.0,0.0,0.0,0.0,0.0,0.0,0.0,0.0,0.0,0.0,0.0,0.0,0.0,0.0,0.0,0.0,0.0,0.0,0.0,0.0,0.0,0.0,0.0,0.0,0.0,0.0,0.0,0.0,0.0,0.0,0.0,0.0,0.0,0.0,0.0,0.0,0.0,0.0,0.0,0.0,0.0,0.0,0.0,0.0,0.0,0.0,0.0,0.0,0.0,0.0,0.0,0.0,0.0,0.0,0.0,0.0,0.0,0.0,0.0,0.0,0.0,0.0,0.0,0.0,0.0,0.0,0.0,0.0,0.0,0.0,0.0,0.0,0.0,0.0,0.0,0.0,0.0,0.0,0.0,0.0,0.0,0.0,0.0,0.0,0.0,0.0,0.0,0.0,0.0,0.0,0.0,0.0,0.0,0.0,0.0,0.0,0.0,0.0,0.0,0.0,0.0,0.0,0.0,0.0,0.0,0.0,0.0,0.0,0.0,0.0,0.0,0.0,0.0,0.0,0.0,0.0,0.0,0.0,0.0,0.0,0.0,0.0,0.0,0.0,0.0,0.0,0.0,0.0,0.0,0.0,0.0,0.0,0.0,0.0,0.0,0.0,0.0,0.0,0.0,0.0,0.0,0.0,0.0,0.0,0.0,0.0,0.0,0.0,0.0,0.0,0.0,0.0,0.0,0.0,0.0,0.0,0.0,0.0,0.0,0.0,0.0,0.0,0.0,0.0,0.0,0.0,0.0,0.0,0.0,0.0,0.0,0.0,0.0,0.0,0.0,0.0,0.0,0.0,0.0,0.0,0.0,0.0,0.0,0.0,0.0,0.0,0.0,0.0,0.0,0.0,0.0,0.0,0.0,0.0,0.0,0.0,0.0,0.0,0.0,0.0,0.0,0.0,0.0,0.0,0.0,0.0,0.0,0.0,0.0,0.0,0.0,0.0,0.0,0.0,0.0,0.0,0.0,0.0,0.0,0.0,0.0,0.0,0.0,0.0,0.0,0.0,0.0,0.0,0.0,0.0,0.0,0.0,0.0,0.0,0.0,0.0,0.0,0.0,0.0,0.0,0.0,0.0,0.0,0.0,0.0,0.0,0.0,0.0,0.0,0.0,0.0,0.0,0.0,0.0,0.0,0.0,0.0,0.0,0.0,0.0,0.0,0.0,0.0,0.0,0.0,0.0,0.0,0.0,0.0,0.0,0.0,0.0,0.0,0.0,0.0,0.0,0.0,0.0,0.0,0.0,0.0,0.0,0.0,0.0,0.0,0.0,0.0,0.0,0.0,0.0,0.0,0.0,0.0,0.0,0.0,0.0,0.0,0.0,0.0,0.0,0.0,0.0,0.0,0.0,0.0,0.0,0.0,0.0,0.0,0.0,0.0,0.0,0.0,0.0,0.0,0.0,0.0,0.0,0.0,0.0,0.0,0.0,0.0,0.0,0.0,0.0,0.0,0.0,0.0,0.0,0.0,0.0,0.0,0.0,0.0,0.0,0.0,0.0,0.0,0.0,0.0,0.0,0.0,0.0,0.0,0.0,0.0,0.0,0.0,0.0,0.0,0.0,0.0,0.0,0.0,0.0,0.0,0.0,0.0,0.0,0.0,0.0,0.0,0.0,0.0,0.0,0.0,0.0,0.0,0.0,0.0,0.0,0.0,0.0,0.0,0.0,0.0,0.0,0.0,0.0,0.0,0.0,0.0,0.0,0.0,0.0,0.0,0.0,0.0,-1.8348,0.0,0.0,0.0,0.0,0.0,0.0,0.0,0.0,0.0,0.0,0.0,0.0,0.0,0.0,0.0,0.0,0.0,0.0,0.0,0.0,0.0,0.0,0.0,0.0,0.0,0.0,0.0,0.0,0.0,0.0,0.0,0.0,0.0,0.0,0.0,0.0,0.0,0.0,0.0,0.0,0.0,0.0,0.0,0.0,0.0,0.0,0.0,0.0,0.0,0.0,0.0,0.0,0.0,0.0,0.0,0.0,0.0,0.0,0.0,0.0,0.0,0.0,0.0,0.0,0.0,0.0,0.0,0.0,0.0,0.0,0.0,0.0,0.0,0.0,0.0,0.0,0.0,0.0,0.0,0.0,0.0,0.0,0.0,0.0,0.0,0.0,0.0,0.0,0.0,0.0,0.0,0.0,0.0,0.0,0.0,0.0,0.0,0.0,0.0,0.0,0.0,0.0,0.0,0.0,0.0,0.0,0.0,0.0,0.0,0.0,-1.7905,-1.9072,-1.8686,-1.8532,-1.8533,0.0,0.0,0.0,0.0,0.0,0.0,0.0,0.0,0.0,0.0,0.0,0.0,0.0,0.0,0.0,0.0,0.0,0.0,0.0,0.0,0.0,0.0,0.0,0.0,0.0,0.0,0.0,0.0,0.0,0.0,0.0,0.0,0.0,0.0,0.0,0.0,0.0,0.0,0.0,0.0,0.0,0.0,0.0,0.0,0.0,0.0,0.0,0.0,0.0,0.0,0.0,0.0,0.0,0.0,0.0,0.0,0.0,0.0,0.0,0.0,0.0,0.0,0.0,0.0,0.0,0.0,0.0,0.0,0.0,0.0,0.0,0.0,0.0,0.0,0.0,0.0,0.0,0.0,0.0,0.0,0.0,0.0,0.0,0.0,0.0,0.0,0.0,0.0,0.0,0.0,0.0,0.0,0.0,0.0,0.0,0.0,0.0,0.0,0.0,0.0,0.0,0.0,0.0,0.0,0.0,0.0,0.0,0.0,0.0,0.0,0.0,0.0,-1.8787,-1.8557,-1.8788,0.0,0.0,0.0,0.0,0.0,0.0,0.0,0.0,0.0,0.0,0.0,0.0,0.0,0.0,0.0,0.0,0.0,0.0,0.0,0.0,0.0,0.0,0.0,0.0,0.0,0.0,0.0,0.0,0.0,0.0,0.0,0.0,0.0,0.0,0.0,0.0,0.0,0.0,0.0,0.0,0.0,0.0,0.0,0.0,0.0,0.0,0.0,0.0,0.0,0.0,0.0,0.0,0.0,0.0,0.0,0.0,0.0,0.0,0.0,0.0,0.0,0.0,0.0,0.0,0.0,0.0,0.0,0.0,0.0,0.0,0.0,0.0,0.0,0.0,0.0,0.0,0.0,0.0,0.0,0.0,0.0,0.0,0.0,0.0,0.0,0.0,0.0,0.0,0.0,0.0,0.0,0.0,0.0,0.0,0.0,0.0,0.0,0.0,0.0,0.0,0.0,0.0,0.0,0.0,0.0,0.0,0.0,0.0,0.0,0.0,-1.8806,-1.941,-1.9296,0.0,-1.9244,0.0,0.0,0.0,0.0,0.0,0.0,0.0,0.0,0.0,0.0,0.0,0.0,0.0,0.0,0.0,0.0,0.0,0.0,0.0,0.0,0.0,0.0,0.0,0.0,0.0,0.0,0.0,0.0,0.0,0.0,0.0,0.0,0.0,0.0,0.0,0.0,0.0,0.0,0.0,0.0,0.0,0.0,0.0,0.0,0.0,0.0,0.0,0.0,0.0,0.0,0.0,0.0,0.0,0.0,0.0,0.0,0.0,0.0,0.0,0.0,0.0,0.0,0.0,0.0,0.0,0.0,0.0,0.0,0.0,0.0,0.0,0.0,0.0,0.0,0.0,0.0,0.0,0.0,0.0,0.0,0.0,0.0,0.0,0.0,0.0,0.0,0.0,0.0,0.0,0.0,0.0,0.0,0.0,0.0,0.0,0.0,0.0,0.0,0.0,0.0,0.0,0.0,0.0,0.0,0.0,0.0,0.0,0.0,0.0,0.0,-1.9622,-2.0123,-1.9853,-1.9575,0.0,0.0,0.0,0.0,0.0,0.0,0.0,0.0,0.0,0.0,0.0,0.0,0.0,0.0,0.0,0.0,0.0,0.0,0.0,0.0,0.0,0.0,0.0,0.0,0.0,0.0,0.0,0.0,0.0,0.0,0.0,0.0,0.0,0.0,0.0,0.0,0.0,0.0,0.0,0.0,0.0,0.0,0.0,0.0,0.0,0.0,0.0,0.0,0.0,0.0,0.0,0.0,0.0,0.0,0.0,0.0,0.0,0.0,0.0,0.0,0.0,0.0,0.0,0.0,0.0,0.0,0.0,0.0,0.0,0.0,0.0,0.0,0.0,0.0,0.0,0.0,0.0,0.0,0.0,0.0,0.0,0.0,0.0,0.0,0.0,0.0,0.0,0.0,0.0,0.0,0.0,0.0,0.0,0.0,0.0,0.0,0.0,0.0,0.0,0.0,0.0,0.0,0.0,0.0,0.0,0.0,0.0,0.0,0.0,0.0,-1.9898,-2.0128,-2.0515,-2.032,-1.9807,-1.9141,0.0,0.0,0.0,0.0,0.0,0.0,0.0,0.0,0.0,0.0,0.0,0.0,0.0,0.0,0.0,0.0,0.0,0.0,0.0,0.0,0.0,0.0,0.0,0.0,0.0,0.0,0.0,0.0,0.0,0.0,0.0,0.0,0.0,0.0,0.0,0.0,0.0,0.0,0.0,0.0,0.0,0.0,0.0,0.0,0.0,0.0,0.0,0.0,0.0,0.0,0.0,0.0,0.0,0.0,0.0,0.0,0.0,0.0,0.0,0.0,0.0,0.0,0.0,0.0,0.0,0.0,0.0,0.0,0.0,0.0,0.0,0.0,0.0,0.0,0.0,0.0,0.0,0.0,0.0,0.0,0.0,0.0,0.0,0.0,0.0,0.0,0.0,0.0,0.0,0.0,0.0,0.0,0.0,0.0,0.0,0.0,0.0,0.0,0.0,0.0,0.0,0.0,0.0,0.0,0.0,0.0,0.0,0.0,0.0,-1.9992,-2.0246,-2.0628,-2.0328,-2.0021,0.0,0.0,0.0,0.0,0.0,0.0,0.0,0.0,0.0,0.0,0.0,0.0,0.0,0.0,0.0,0.0,0.0,0.0,0.0,0.0,0.0,0.0,0.0,0.0,0.0,0.0,0.0,0.0,0.0,0.0,0.0,0.0,0.0,0.0,0.0,0.0,0.0,0.0,0.0,0.0,0.0,0.0,0.0,0.0,0.0,0.0,0.0,0.0,0.0,0.0,0.0,0.0,0.0,0.0,0.0,0.0,0.0,0.0,0.0,0.0,0.0,0.0,0.0,0.0,0.0,0.0,0.0,0.0,0.0,0.0,0.0,0.0,0.0,0.0,0.0,0.0,0.0,0.0,0.0,0.0,0.0,0.0,0.0,0.0,0.0,0.0,0.0,0.0,0.0,0.0,0.0,0.0,0.0,0.0,0.0,0.0,0.0,0.0,0.0,0.0,0.0,0.0,0.0,0.0,0.0,0.0,0.0,0.0,0.0,-2.0221,-2.0602,-2.0777,-2.0704,-2.0117,-1.9721,0.0,0.0,0.0,0.0,0.0,0.0,0.0,0.0,0.0,0.0,0.0,0.0,0.0,0.0,0.0,0.0,0.0,0.0,0.0,0.0,0.0,0.0,0.0,0.0,0.0,0.0,0.0,0.0,0.0,0.0,0.0,0.0,0.0,0.0,0.0,0.0,0.0,0.0,0.0,0.0,0.0,0.0,0.0,0.0,0.0,0.0,0.0,0.0,0.0,0.0,0.0,0.0,0.0,0.0,0.0,0.0,0.0,0.0,0.0,0.0,0.0,0.0,0.0,0.0,0.0,0.0,0.0,0.0,0.0,0.0,0.0,0.0,0.0,0.0,0.0,0.0,0.0,0.0,0.0,0.0,0.0,0.0,0.0,0.0,0.0,0.0,0.0,0.0,0.0,0.0,0.0,0.0,0.0,0.0,0.0,0.0,0.0,0.0,0.0,0.0,0.0,0.0,0.0,0.0,0.0,0.0,0.0,0.0,0.0,-2.0873,0.0,-2.1216,0.0,-2.0254,-1.972,0.0,0.0,0.0,0.0,0.0,0.0,0.0,0.0,0.0,0.0,0.0,0.0,0.0,0.0,0.0,0.0,0.0,0.0,0.0,0.0,0.0,0.0,0.0,0.0,0.0,0.0,0.0,0.0,0.0,0.0,0.0,0.0,0.0,0.0,0.0,0.0,0.0,0.0,0.0,0.0,0.0,0.0,0.0,0.0,0.0,0.0,0.0,0.0,0.0,0.0,0.0,0.0,0.0,0.0,0.0,0.0,0.0,0.0,0.0,0.0,0.0,0.0,0.0,0.0,0.0,0.0,0.0,0.0,0.0,0.0,0.0,0.0,0.0,0.0,0.0,0.0,0.0,0.0,0.0,0.0,0.0,0.0,0.0,0.0,0.0,0.0,0.0,0.0,0.0,0.0,0.0,0.0,0.0,0.0,0.0,0.0,0.0,0.0,0.0,0.0,0.0,0.0,0.0,0.0,0.0,0.0,0.0,0.0,-2.0786,-2.155,-2.183,-2.1683,-2.1122,-2.0521,-2.008,0.0,0.0,0.0,0.0,0.0,0.0,0.0,0.0,0.0,0.0,0.0,0.0,0.0,0.0,0.0,0.0,0.0,0.0,0.0,0.0,0.0,0.0,0.0,0.0,0.0,0.0,0.0,0.0,0.0,0.0,0.0,0.0,0.0,0.0,0.0,0.0,0.0,0.0,0.0,0.0,0.0,0.0,0.0,0.0,0.0,0.0,0.0,0.0,0.0,0.0,0.0,0.0,0.0,0.0,0.0,0.0,0.0,0.0,0.0,0.0,0.0,0.0,0.0,0.0,0.0,0.0,0.0,0.0,0.0,0.0,0.0,0.0,0.0,0.0,0.0,0.0,0.0,0.0,0.0,0.0,0.0,0.0,0.0,0.0,0.0,0.0,0.0,0.0,0.0,0.0,0.0,0.0,0.0,0.0,0.0,0.0,0.0,0.0,0.0,0.0,0.0,0.0,0.0,0.0,0.0,0.0,0.0,0.0,0.0,-2.1577,-2.1727,-2.1608,-2.1122,-2.0347,-1.98,0.0,0.0,0.0,0.0,0.0,0.0,0.0,0.0,0.0,0.0,0.0,0.0,0.0,0.0,0.0,0.0,0.0,0.0,0.0,0.0,0.0,0.0,0.0,0.0,0.0,0.0,0.0,0.0,0.0,0.0,0.0,0.0,0.0,0.0,0.0,0.0,0.0,0.0,0.0,0.0,0.0,0.0,0.0,0.0,0.0,0.0,0.0,0.0,0.0,0.0,0.0,0.0,0.0,0.0,0.0,0.0,0.0,0.0,0.0,0.0,0.0,0.0,0.0,0.0,0.0,0.0,0.0,0.0,0.0,0.0,0.0,0.0,0.0,0.0,0.0,0.0,0.0,0.0,0.0,0.0,0.0,0.0,0.0,0.0,0.0,0.0,0.0,0.0,0.0,0.0,0.0,0.0,0.0,0.0,0.0,0.0,0.0,0.0,0.0,0.0,0.0,0.0,0.0,0.0,0.0,0.0,0.0,0.0,0.0,-2.2886,-2.2915,-2.2625,-2.1964,-2.1189,-2.0535,-2.0027,0.0,0.0,0.0,0.0,0.0,0.0,0.0,0.0,0.0,0.0,0.0,0.0,0.0,0.0,0.0,0.0,0.0,0.0,0.0,0.0,0.0,0.0,0.0,0.0,0.0,0.0,0.0,0.0,0.0,0.0,0.0,0.0,0.0,0.0,0.0,0.0,0.0,0.0,0.0,0.0,0.0,0.0,0.0,0.0,0.0,0.0,0.0,0.0,0.0,0.0,0.0,0.0,0.0,0.0,0.0,0.0,0.0,0.0,0.0,0.0,0.0,0.0,0.0,0.0,0.0,0.0,0.0,0.0,0.0,0.0,0.0,0.0,0.0,0.0,0.0,0.0,0.0,0.0,0.0,0.0,0.0,0.0,0.0,0.0,0.0,0.0,0.0,0.0,0.0,0.0,0.0,0.0,0.0,0.0,0.0,0.0,0.0,0.0,0.0,0.0,0.0,0.0,0.0,0.0,0.0,0.0,0.0,0.0,-2.5157,-2.5415,-2.4864,-2.3447,-2.2792,-2.2044,0.0,0.0,0.0,0.0,0.0,0.0,0.0,0.0,0.0,0.0,0.0,0.0,0.0,0.0,0.0,0.0,0.0,0.0,0.0,0.0,0.0,0.0,0.0,0.0,0.0,0.0,0.0,0.0,0.0,0.0,0.0,0.0,0.0,0.0,0.0,0.0,0.0,0.0,0.0,0.0,0.0,0.0,0.0,0.0,0.0,0.0,0.0,0.0,0.0,0.0,0.0,0.0,0.0,0.0,0.0,0.0,0.0,0.0,0.0,0.0,0.0,0.0,0.0,0.0,0.0,0.0,0.0,0.0,0.0,0.0,0.0,0.0,0.0,0.0,0.0,0.0,0.0,0.0,0.0,0.0,0.0,0.0,0.0,0.0,0.0,0.0,0.0,0.0,0.0,0.0,0.0,0.0,0.0,0.0,0.0,0.0,0.0,0.0,0.0,0.0,0.0,0.0,0.0,0.0,0.0,0.0,0.0,0.0,0.0,-2.6346,-2.7811,-2.7297,-2.4703,-2.3621,-2.2565,0.0,0.0,0.0,0.0,0.0,0.0,0.0,0.0,0.0,0.0,0.0,0.0,0.0,0.0,0.0,0.0,0.0,0.0,0.0,0.0,0.0,0.0,0.0,0.0,0.0,0.0,0.0,0.0,0.0,0.0,0.0,0.0,0.0,0.0,0.0,0.0,0.0,0.0,0.0,0.0,0.0,0.0,0.0,0.0,0.0,0.0,0.0,0.0,0.0,0.0,0.0,0.0,0.0,0.0,0.0,0.0,0.0,0.0,0.0,0.0,0.0,0.0,0.0,0.0,0.0,0.0,0.0,0.0,0.0,0.0,0.0,0.0,0.0,0.0,0.0,0.0,0.0,0.0,0.0,0.0,0.0,0.0,0.0,0.0,0.0,0.0,0.0,0.0,0.0,0.0,0.0,0.0,0.0,0.0,0.0,0.0,0.0,0.0,0.0,0.0,0.0,0.0,0.0,0.0,0.0,0.0,0.0,0.0,-2.4263,-2.7001,-2.9095,-2.896,-2.6413,-2.4997,-2.3688,0.0,0.0,0.0,0.0,0.0,0.0,0.0,0.0,0.0,0.0,0.0,0.0,0.0,0.0,0.0,0.0,0.0,0.0,0.0,0.0,0.0,0.0,0.0,0.0,0.0,0.0,0.0,0.0,0.0,0.0,0.0,0.0,0.0,0.0,0.0,0.0,0.0,0.0,0.0,0.0,0.0,0.0,0.0,0.0,0.0,0.0,0.0,0.0,0.0,0.0,0.0,0.0,0.0,0.0,0.0,0.0,0.0,0.0,0.0,0.0,0.0,0.0,0.0,0.0,0.0,0.0,0.0,0.0,0.0,0.0,0.0,0.0,0.0,0.0,0.0,0.0,0.0,0.0,0.0,0.0,0.0,0.0,0.0,0.0,0.0,0.0,0.0,0.0,0.0,0.0,0.0,0.0,0.0,0.0,0.0,0.0,0.0,0.0,0.0,0.0,0.0,0.0,0.0,0.0,0.0,0.0,0.0,0.0,-2.4384,-2.7335,-2.9501,-2.9851,-2.8257,-2.6587,-2.5104,0.0,0.0,0.0,0.0,0.0,0.0,0.0,0.0,0.0,0.0,0.0,0.0,0.0,0.0,0.0,0.0,0.0,0.0,0.0,0.0,0.0,0.0,0.0,0.0,0.0,0.0,0.0,0.0,0.0,0.0,0.0,0.0,0.0,0.0,0.0,0.0,0.0,0.0,0.0,0.0,0.0,0.0,0.0,0.0,0.0,0.0,0.0,0.0,0.0,0.0,0.0,0.0,0.0,0.0,0.0,0.0,0.0,0.0,0.0,0.0,0.0,0.0,0.0,0.0,0.0,0.0,0.0,0.0,0.0,0.0,0.0,0.0,0.0,0.0,0.0,0.0,0.0,0.0,0.0,0.0,0.0,0.0,0.0,0.0,0.0,0.0,0.0,0.0,0.0,0.0,0.0,0.0,0.0,0.0,0.0,0.0,0.0,0.0,0.0,0.0,0.0,0.0,0.0,0.0,0.0,0.0,0.0,0.0,-2.4564,-2.7923,-2.9312,-2.9646,-2.8858,-2.7575,-2.6012,0.0,0.0,0.0,0.0,0.0,0.0,0.0,0.0,0.0,0.0,0.0,0.0,0.0,0.0,0.0,0.0,0.0,0.0,0.0,0.0,0.0,0.0,0.0,0.0,0.0,0.0,0.0,0.0,0.0,0.0,0.0,0.0,0.0,0.0,0.0,0.0,0.0,0.0,0.0,0.0,0.0,0.0,0.0,0.0,0.0,0.0,0.0,0.0,-3.1657,0.0,0.0,0.0,0.0,0.0,0.0,0.0,0.0,0.0,0.0,0.0,0.0,0.0,0.0,0.0,0.0,0.0,0.0,0.0,0.0,0.0,0.0,0.0,0.0,0.0,0.0,0.0,0.0,0.0,0.0,0.0,0.0,0.0,0.0,0.0,0.0,0.0,0.0,0.0,0.0,0.0,0.0,0.0,0.0,0.0,0.0,0.0,0.0,0.0,0.0,0.0,0.0,0.0,0.0,0.0,0.0,0.0,0.0,0.0,-2.5213,-2.8524,-2.9726,-3.0047,-2.9459,-2.9004,-2.7743,0.0,0.0,0.0,0.0,0.0,0.0,0.0,0.0,0.0,0.0,0.0,0.0,0.0,0.0,0.0,0.0,0.0,0.0,0.0,0.0,0.0,0.0,0.0,0.0,0.0,0.0,0.0,0.0,0.0,0.0,0.0,0.0,0.0,0.0,0.0,0.0,0.0,0.0,0.0,0.0,0.0,0.0,0.0,0.0,0.0,0.0,0.0,0.0,0.0,0.0,0.0,0.0,0.0,0.0,0.0,0.0,0.0,0.0,0.0,0.0,0.0,0.0,0.0,0.0,0.0,0.0,0.0,0.0,0.0,0.0,0.0,0.0,0.0,0.0,0.0,0.0,0.0,0.0,0.0,0.0,0.0,0.0,0.0,0.0,0.0,0.0,0.0,0.0,0.0,0.0,0.0,0.0,0.0,0.0,0.0,0.0,0.0,0.0,0.0,0.0,0.0,0.0,0.0,0.0,0.0,0.0,0.0,-2.4718,-2.6414,-2.8964,-3.0154,-3.0394,-3.0039,-3.0247,-2.9492,-2.7565,0.0,0.0,0.0,0.0,0.0,0.0,0.0,0.0,0.0,0.0,0.0,0.0,0.0,0.0,0.0,0.0,0.0,0.0,0.0,0.0,0.0,0.0,0.0,0.0,0.0,0.0,0.0,0.0,0.0,0.0,0.0,0.0,0.0,0.0,0.0,0.0,0.0,0.0,-2.8214,-2.9766,0.0,0.0,0.0,0.0,0.0,0.0,0.0,0.0,-3.0391,0.0,0.0,0.0,0.0,0.0,0.0,0.0,0.0,0.0,0.0,0.0,0.0,0.0,0.0,0.0,0.0,0.0,0.0,0.0,0.0,0.0,0.0,0.0,0.0,0.0,0.0,0.0,0.0,0.0,0.0,0.0,0.0,0.0,0.0,0.0,0.0,0.0,0.0,0.0,0.0,0.0,0.0,0.0,0.0,0.0,0.0,0.0,0.0,0.0,0.0,0.0,0.0,0.0,0.0,0.0,0.0,-2.4917,-2.6347,-2.7944,-2.9726,-2.9953,-3.0066,-3.007,-2.9508,-2.9128,-2.8951,0.0,0.0,0.0,0.0,0.0,0.0,0.0,0.0,0.0,0.0,0.0,0.0,0.0,0.0,0.0,0.0,0.0,0.0,0.0,0.0,0.0,0.0,0.0,0.0,0.0,0.0,0.0,0.0,0.0,0.0,0.0,0.0,0.0,0.0,0.0,0.0,0.0,0.0,0.0,-3.0905,-3.1836,0.0,0.0,0.0,0.0,0.0,0.0,0.0,0.0,-3.0448,0.0,0.0,0.0,0.0,0.0,0.0,0.0,0.0,0.0,0.0,0.0,0.0,0.0,0.0,0.0,0.0,0.0,0.0,0.0,0.0,0.0,0.0,0.0,0.0,0.0,0.0,0.0,0.0,0.0,0.0,0.0,0.0,0.0,0.0,0.0,0.0,0.0,0.0,0.0,0.0,0.0,0.0,0.0,0.0,0.0,0.0,0.0,0.0,0.0,0.0,0.0,0.0,0.0,0.0,0.0,-2.5504,-2.7757,-2.9499,-3.0447,-3.1056,-3.0945,-3.0295,-2.9731,-2.9338,0.0,0.0,0.0,0.0,0.0,0.0,0.0,0.0,0.0,0.0,0.0,0.0,0.0,0.0,0.0,0.0,0.0,0.0,0.0,0.0,0.0,0.0,0.0,0.0,0.0,0.0,0.0,0.0,0.0,0.0,0.0,0.0,0.0,0.0,0.0,0.0,0.0,0.0,0.0,0.0,-3.2085,-3.3099,-3.3078,0.0,0.0,0.0,0.0,0.0,0.0,-3.0202,-3.0028,0.0,0.0,0.0,0.0,0.0,0.0,0.0,0.0,0.0,0.0,0.0,0.0,0.0,0.0,0.0,0.0,0.0,0.0,0.0,0.0,0.0,0.0,0.0,0.0,0.0,0.0,0.0,0.0,0.0,0.0,0.0,0.0,0.0,0.0,0.0,0.0,0.0,0.0,0.0,0.0,0.0,0.0,0.0,0.0,0.0,0.0,0.0,0.0,0.0,0.0,0.0,0.0,0.0,0.0,0.0,-2.6007,-2.8827,-3.0516,-3.1111,-3.1859,-3.1628,-3.0433,-2.9972,-2.9383,0.0,0.0,0.0,0.0,0.0,0.0,0.0,0.0,0.0,0.0,0.0,0.0,0.0,0.0,0.0,0.0,0.0,0.0,0.0,0.0,0.0,0.0,0.0,0.0,0.0,0.0,0.0,0.0,0.0,0.0,0.0,0.0,0.0,0.0,0.0,0.0,0.0,0.0,0.0,0.0,0.0,-3.4113,-3.4196,-3.3203,0.0,0.0,0.0,0.0,-3.0895,-3.0832,0.0,0.0,0.0,0.0,0.0,0.0,0.0,0.0,0.0,0.0,0.0,0.0,0.0,0.0,0.0,0.0,0.0,0.0,0.0,0.0,0.0,0.0,0.0,0.0,0.0,0.0,0.0,0.0,0.0,0.0,0.0,0.0,0.0,0.0,0.0,0.0,0.0,0.0,0.0,0.0,0.0,0.0,0.0,0.0,0.0,0.0,0.0,0.0,0.0,0.0,0.0,0.0,0.0,0.0,0.0,0.0,-2.6156,-2.8523,-3.0203,-3.1151,-3.1119,-3.0972,-3.0923,-2.9514,-2.8762,0.0,0.0,0.0,0.0,0.0,0.0,0.0,0.0,0.0,0.0,0.0,0.0,0.0,0.0,0.0,0.0,0.0,0.0,0.0,0.0,0.0,0.0,0.0,0.0,0.0,0.0,0.0,0.0,0.0,0.0,0.0,0.0,0.0,0.0,0.0,0.0,0.0,0.0,0.0,0.0,0.0,-3.4217,-3.461,-3.4196,-3.3699,0.0,0.0,-3.2784,-3.2938,-3.3572,0.0,0.0,0.0,0.0,0.0,0.0,0.0,0.0,0.0,0.0,0.0,0.0,0.0,0.0,0.0,0.0,0.0,0.0,0.0,0.0,0.0,0.0,0.0,0.0,0.0,0.0,0.0,0.0,0.0,0.0,0.0,0.0,0.0,0.0,0.0,0.0,0.0,0.0,0.0,0.0,0.0,0.0,0.0,0.0,0.0,0.0,0.0,0.0,0.0,0.0,0.0,0.0,0.0,0.0,0.0,-2.3873,-2.6143,-2.8725,-3.0367,-3.1119,-3.1195,-3.0893,-3.0383,-2.9181,-2.8297,0.0,0.0,0.0,0.0,0.0,0.0,0.0,0.0,0.0,0.0,0.0,0.0,0.0,0.0,0.0,0.0,0.0,0.0,0.0,0.0,0.0,0.0,0.0,0.0,0.0,0.0,0.0,0.0,0.0,0.0,0.0,0.0,0.0,0.0,0.0,0.0,0.0,0.0,0.0,0.0,0.0,0.0,-3.5459,-3.5583,0.0,0.0,0.0,-3.5353,-3.5712,0.0,0.0,0.0,0.0,0.0,0.0,0.0,0.0,0.0,0.0,0.0,0.0,0.0,0.0,0.0,0.0,0.0,0.0,0.0,0.0,0.0,0.0,0.0,0.0,0.0,0.0,0.0,0.0,0.0,0.0,0.0,0.0,0.0,0.0,0.0,0.0,0.0,0.0,0.0,0.0,0.0,0.0,0.0,0.0,0.0,0.0,0.0,0.0,0.0,0.0,0.0,0.0,0.0,0.0,0.0,0.0,0.0,-2.627,-2.8844,-3.0408,-3.1023,-3.1146,-3.0803,-2.9998,-2.89,0.0,0.0,0.0,0.0,0.0,0.0,0.0,0.0,0.0,0.0,0.0,0.0,0.0,0.0,0.0,0.0,0.0,0.0,0.0,0.0,0.0,0.0,0.0,0.0,0.0,0.0,0.0,-2.424,0.0,0.0,0.0,0.0,0.0,0.0,0.0,0.0,0.0,0.0,0.0,0.0,0.0,0.0,-3.5583,-3.6059,-3.6701,-3.712,0.0,0.0,-3.7466,-3.7989,-3.8222,-3.7805,0.0,0.0,0.0,0.0,0.0,0.0,0.0,0.0,0.0,0.0,0.0,0.0,0.0,0.0,0.0,0.0,0.0,0.0,0.0,0.0,0.0,0.0,0.0,0.0,0.0,0.0,0.0,0.0,0.0,0.0,0.0,0.0,0.0,0.0,0.0,0.0,0.0,0.0,0.0,0.0,0.0,0.0,0.0,0.0,0.0,0.0,0.0,0.0,0.0,0.0,0.0,0.0,0.0,0.0,0.0,-2.6399,-2.8891,-3.0346,-3.0723,-3.0861,-3.0685,-3.0305,-2.8798,-2.764,0.0,0.0,0.0,0.0,0.0,0.0,0.0,0.0,0.0,0.0,0.0,0.0,0.0,0.0,0.0,0.0,0.0,0.0,0.0,0.0,0.0,0.0,0.0,0.0,0.0,0.0,0.0,0.0,0.0,0.0,0.0,0.0,0.0,0.0,0.0,0.0,0.0,0.0,0.0,0.0,0.0,-3.5583,-3.6039,-3.7239,-3.8055,0.0,-3.8654,-3.9042,-3.9024,-3.9584,-3.9187,-3.6413,0.0,0.0,0.0,0.0,0.0,0.0,0.0,0.0,0.0,0.0,0.0,0.0,0.0,0.0,0.0,0.0,0.0,0.0,0.0,0.0,0.0,0.0,0.0,0.0,0.0,0.0,0.0,0.0,0.0,0.0,0.0,0.0,0.0,0.0,0.0,0.0,0.0,0.0,0.0,0.0,0.0,0.0,0.0,0.0,0.0,0.0,0.0,0.0,0.0,0.0,0.0,0.0,0.0,-2.3523,-2.6359,-2.8515,-2.9865,-3.0217,-3.0232,-2.9983,-2.9456,-2.8476,-2.761,0.0,0.0,0.0,0.0,0.0,0.0,0.0,0.0,0.0,0.0,0.0,0.0,0.0,0.0,0.0,0.0,0.0,0.0,0.0,0.0,0.0,0.0,0.0,0.0,0.0,0.0,0.0,0.0,-2.5275,-2.5357,-2.5378,0.0,0.0,0.0,0.0,0.0,0.0,0.0,0.0,0.0,0.0,-3.6535,-3.7281,-3.8792,0.0,0.0,-4.021,-4.0629,-4.0691,-4.0541,-3.9946,-3.8841,-3.5619,0.0,0.0,0.0,0.0,0.0,0.0,0.0,0.0,0.0,0.0,0.0,0.0,0.0,0.0,0.0,0.0,0.0,0.0,0.0,0.0,0.0,0.0,0.0,0.0,0.0,0.0,0.0,0.0,0.0,0.0,0.0,0.0,0.0,0.0,0.0,0.0,0.0,0.0,0.0,0.0,0.0,0.0,0.0,0.0,0.0,0.0,0.0,0.0,0.0,0.0,0.0,0.0,-2.3457,-2.6339,-2.8256,-2.9383,-2.9705,-2.972,-2.9456,-2.89,-2.8271,-2.7479,0.0,0.0,0.0,0.0,0.0,0.0,0.0,0.0,0.0,0.0,0.0,0.0,0.0,0.0,0.0,0.0,0.0,0.0,0.0,0.0,0.0,0.0,0.0,0.0,0.0,0.0,0.0,0.0,-2.6165,-2.6173,-2.6173,0.0,0.0,0.0,0.0,0.0,0.0,0.0,0.0,0.0,0.0,-3.7411,-3.8221,-4.0,-4.1158,-4.0954,-4.1369,-4.1731,-4.1651,-4.0891,-4.0166,-3.9792,0.0,0.0,0.0,0.0,0.0,0.0,0.0,0.0,0.0,0.0,0.0,0.0,0.0,0.0,0.0,0.0,0.0,0.0,0.0,0.0,0.0,0.0,0.0,0.0,0.0,0.0,0.0,-1.6551,0.0,0.0,-1.592,0.0,0.0,0.0,0.0,0.0,0.0,0.0,0.0,0.0,0.0,0.0,0.0,0.0,0.0,0.0,0.0,0.0,0.0,0.0,0.0,0.0,0.0,-2.3135,-2.5988,-2.792,-2.9061,-2.9369,-2.9383,-2.9237,-2.8871,-2.8271,-2.7464,-2.6548,0.0,0.0,0.0,0.0,0.0,0.0,0.0,0.0,0.0,0.0,0.0,0.0,0.0,0.0,0.0,0.0,0.0,0.0,0.0,0.0,0.0,0.0,0.0,0.0,0.0,0.0,-2.7179,-2.6827,-2.663,0.0,0.0,0.0,0.0,0.0,0.0,0.0,0.0,0.0,0.0,-3.5977,-3.8136,-3.8639,-4.0552,-4.1988,-4.1913,-4.2236,-4.2354,-4.183,-4.0869,-3.9927,0.0,0.0,0.0,0.0,0.0,0.0,0.0,0.0,0.0,0.0,0.0,0.0,0.0,0.0,0.0,0.0,0.0,0.0,0.0,0.0,0.0,0.0,0.0,0.0,0.0,0.0,0.0,-1.6111,-1.5565,0.0,0.0,0.0,0.0,0.0,0.0,0.0,0.0,0.0,0.0,0.0,-2.167,-2.1296,0.0,0.0,0.0,0.0,0.0,0.0,0.0,0.0,0.0,0.0,0.0,0.0,-2.2798,-2.5622,-2.7598,-2.8651,-2.8754,-2.9164,-2.9017,-2.8286,-2.7861,-2.6736,-2.4779,0.0,0.0,0.0,0.0,0.0,0.0,0.0,0.0,0.0,0.0,0.0,0.0,0.0,0.0,0.0,0.0,0.0,0.0,0.0,0.0,0.0,0.0,0.0,0.0,0.0,-2.7531,0.0,0.0,0.0,0.0,0.0,0.0,0.0,0.0,0.0,0.0,0.0,-3.2363,-3.4407,-3.7443,-3.9572,-3.9876,-4.1347,-4.2458,0.0,0.0,0.0,0.0,0.0,0.0,0.0,0.0,0.0,0.0,0.0,0.0,0.0,0.0,-3.9427,-3.8292,-3.7178,-3.6216,-3.5583,0.0,0.0,0.0,0.0,0.0,0.0,0.0,0.0,0.0,0.0,0.0,0.0,0.0,0.0,-1.5226,0.0,-1.5189,0.0,0.0,0.0,0.0,0.0,0.0,0.0,0.0,-2.3434,-2.3728,-2.3327,-2.2939,-2.2712,0.0,-2.2617,-2.1737,0.0,0.0,0.0,0.0,0.0,0.0,0.0,0.0,-2.2857,-2.5476,-2.7335,-2.8315,-2.8447,-2.8842,-2.8695,-2.8115,-2.7789,-2.6741,-2.5059,-2.4792,-2.4115,0.0,0.0,0.0,0.0,0.0,0.0,0.0,0.0,0.0,0.0,0.0,0.0,0.0,0.0,0.0,0.0,0.0,0.0,0.0,0.0,0.0,0.0,0.0,-2.8276,0.0,0.0,0.0,0.0,0.0,0.0,0.0,0.0,0.0,-3.0266,-3.2246,-3.4185,-3.5785,-3.8608,-4.0635,-4.0771,0.0,0.0,0.0,0.0,0.0,0.0,0.0,-3.91,-3.813,-3.758,-3.8188,-4.1237,-4.1091,-4.0913,-4.2005,0.0,0.0,-4.1568,-4.052,-3.9711,-3.9231,-3.842,-3.8293,-3.9387,-4.1197,-4.2572,0.0,0.0,0.0,0.0,0.0,0.0,0.0,0.0,-1.532,-1.438,0.0,-1.4109,0.0,0.0,0.0,0.0,-1.8544,-2.1267,0.0,0.0,-2.4663,-2.509,-2.5024,-2.4476,-2.4356,-2.4583,-2.4399,-2.394,-2.3378,-2.1357,0.0,0.0,0.0,0.0,0.0,0.0,-2.331,-2.552,-2.713,-2.8081,-2.8388,-2.8417,-2.8409,-2.8462,-2.8099,-2.7531,-2.7079,-2.6776,-2.6203,-2.52,-2.4941,0.0,0.0,0.0,0.0,0.0,0.0,0.0,0.0,0.0,0.0,0.0,0.0,0.0,0.0,0.0,0.0,0.0,0.0,0.0,0.0,-2.8794,0.0,0.0,0.0,0.0,0.0,0.0,0.0,0.0,0.0,0.0,-3.2892,-3.4407,-3.5869,-3.7212,0.0,0.0,0.0,0.0,-4.3184,-4.3206,-4.3184,-4.2835,-4.183,-4.0891,-4.0084,-3.9476,0.0,0.0,-4.159,-4.2223,-4.2704,-4.3184,-4.3687,-4.408,-4.4495,-4.3709,-4.2988,-4.2529,-4.2398,-4.2791,-4.3687,-4.4386,-4.5391,-1.4662,0.0,0.0,0.0,0.0,-1.5962,-1.5758,-1.5629,-1.5629,-1.5066,-1.396,-1.4787,0.0,0.0,0.0,0.0,0.0,0.0,-2.3434,-2.4115,-2.4983,-2.5384,-2.5371,-2.501,-2.4918,-2.5065,-2.448,-2.4399,-2.4521,-2.3434,-2.2119,-2.0643,0.0,0.0,0.0,0.0,-2.3837,-2.5813,-2.7027,-2.7656,-2.7759,-2.7978,-2.8267,-2.8857,-2.8879,-2.8774,-2.8567,-2.8754,-2.8215,-2.697,-2.661,0.0,0.0,0.0,0.0,0.0,0.0,0.0,0.0,0.0,0.0,0.0,0.0,0.0,0.0,0.0,0.0,0.0,0.0,0.0,-2.9208,-2.9953,-3.0036,0.0,0.0,0.0,0.0,0.0,0.0,0.0,0.0,0.0,-3.6311,-3.7233,-3.8227,0.0,0.0,-4.231,-4.2609,-4.301,-4.3294,-4.3621,-4.3403,0.0,-4.1852,-4.1175,-4.0606,-4.0058,-4.1987,-4.3735,-4.4561,-4.4888,-4.5019,-4.515,-4.5303,-4.5434,-4.55,-4.4823,-4.4298,-4.443,-4.4495,-4.467,-4.526,-4.5893,-4.6505,-1.4987,-1.5641,-1.5457,-1.5729,-1.5922,-1.592,-1.5889,-1.6072,-1.6072,-1.5778,-1.5225,-1.5631,-1.532,-1.4629,-1.6463,0.0,0.0,0.0,-2.4155,-2.4756,-2.5384,-2.5745,-2.5838,-2.5832,-2.581,-2.5923,-2.5631,-2.5608,-2.5712,-2.5351,-2.4593,-2.3305,0.0,0.0,-2.3179,-2.3662,-2.4642,-2.6179,-2.7305,-2.7997,-2.8147,-2.8522,-2.9252,-2.9981,-2.9981,-2.9898,-3.0083,-3.0319,-2.9915,-2.8886,-2.8387,-2.7176,0.0,0.0,0.0,0.0,0.0,0.0,0.0,0.0,0.0,0.0,0.0,-2.3101,-2.3557,0.0,0.0,0.0,-2.6641,-2.8359,-3.0118,-3.0698,0.0,0.0,0.0,0.0,0.0,0.0,0.0,-3.4039,-3.5718,-3.7318,-3.8972,-3.9629,-4.0216,-4.0727,-4.1943,-4.2861,-4.3184,0.0,-4.3556,-4.3818,-4.3621,-4.3097,-4.2136,-4.1743,-4.1521,-4.1689,-4.3609,-4.5345,-4.5806,-4.6002,-4.6002,-4.6002,-4.6002,-4.6002,-4.6002,-4.5522,-4.5303,-4.5762,-4.5871,-4.609,-4.6723,-4.7247,-4.7728,-1.5615,-1.542,-1.5113,-1.5146,-1.561,-1.5926,-1.6276,-1.6617,-1.66,-1.6615,-1.653,-1.6221,-1.5894,-1.5822,-1.7912,0.0,-2.1776,-2.3754,-2.5037,-2.5558,-2.5852,-2.6146,-2.6585,-2.6874,-2.7032,-2.7162,-2.7171,-2.7158,-2.6843,-2.7012,-2.6866,-2.653,-2.4496,-2.3749,-2.4349,-2.4935,-2.5666,-2.6617,-2.7788,-2.8527,-2.9093,-2.9797,-3.0722,-3.158,-3.1226,-3.1258,-3.1506,-3.1556,-3.1264,-3.08,-3.002,-2.8918,-2.7413,0.0,0.0,0.0,0.0,0.0,0.0,0.0,0.0,0.0,0.0,0.0,0.0,0.0,0.0,0.0,-2.8069,0.0,-3.076,-3.1298,0.0,0.0,0.0,-3.0843,-3.2126,-3.2685,-3.3942,-3.6478,0.0,0.0,-4.1072,-4.1654,-4.1805,-4.1352,-4.2479,-4.3184,-4.3228,-4.3578,-4.3862,-4.3927,-4.3927,-4.3599,-4.2835,-4.2638,-4.2922,-4.3752,-4.4713,-4.5434,-4.5893,-4.6002,-4.6002,-4.6002,-4.6002,-4.6002,-4.6002,-4.5959,-4.6133,-4.6526,-4.6658,-4.6985,-4.7772,-4.8296,-4.8689,-1.6372,-1.6671,-1.6551,-1.6454,-1.6129,-1.6202,-1.6527,-1.6966,-1.6844,-1.6808,-1.6912,-1.6706,-1.6918,-1.7989,-1.945,-2.1142,-2.3113,-2.4803,-2.5718,-2.5865,-2.6146,-2.6612,-2.72,-2.7141,-2.7347,-2.7919,-2.7478,-2.7323,-2.7332,-2.7393,-2.732,-2.7217,-2.6705,-2.6515,-2.6661,-2.6574,-2.6881,-2.7598,-2.7905,-2.8537,-2.9586,-3.0628,-3.1494,-3.2304,-3.2408,-3.2561,-3.2931,-3.327,-3.3253,-3.2662,-3.2041,-3.095,-2.924,-2.7252,0.0,0.0,0.0,0.0,0.0,0.0,0.0,0.0,0.0,-2.4033,-2.515,0.0,-2.5834,0.0,-2.9021,-3.0884,-3.2126,-3.2954,0.0,0.0,-3.3161,-3.3368,-3.4031,-3.506,-3.6268,-3.7506,-3.9316,-4.0786,-4.1611,-4.2406,-4.2827,-4.2718,-4.301,-4.3316,-4.3643,-4.3774,-4.3993,-4.432,-4.4408,-4.4342,-4.408,-4.408,-4.4255,-4.4866,-4.5172,-4.5478,-4.5937,-4.6002,-4.6002,-4.6002,-4.6002,-4.6002,-4.598,-4.6002,-4.6024,-4.6177,-4.6461,-4.692,-4.7531,-4.775,-4.7968,-1.6928,-1.7112,-1.7112,-1.6933,-1.6665,-1.6747,-1.6958,-1.7218,-1.7128,-1.7201,-1.7356,-1.6909,-1.7613,-1.9051,-2.0496,-2.2189,-2.3949,-2.5594,-2.6346,-2.6346,-2.6531,-2.7023,-2.7469,-2.7783,-2.8016,-2.8475,-2.8144,-2.7821,-2.7715,-2.7832,-2.7832,-2.77,-2.7978,-2.811,-2.8081,-2.7642,-2.7671,-2.8154,-2.8609,-2.9559,-3.0663,-3.1304,-3.2187,-3.323,-3.3011,-3.3065,-3.3164,-3.3681,-3.3729,-3.3327,-3.3164,-3.2289,-3.0704,-2.892,-2.671,0.0,0.0,0.0,0.0,0.0,0.0,0.0,0.0,0.0,0.0,0.0,-2.7883,-2.9001,-3.0615,-3.2064,-3.3223,-3.432,-3.4983,-3.4983,-3.5355,-3.5894,-3.6477,-3.7401,-3.8329,-3.9656,-4.0736,-4.1813,-4.2406,-4.287,-4.3184,-4.3184,-4.3184,-4.3337,-4.3774,-4.4036,-4.4298,-4.4561,-4.4779,-4.4823,-4.4626,-4.4779,-4.4997,-4.526,-4.55,-4.5718,-4.5959,-4.6002,-4.6002,-4.6002,-4.6002,-4.5937,-4.5762,-4.5871,-4.5937,-4.5806,-4.6068,-4.6483,-4.6767,-4.7007,-4.7247,-1.7112,-1.7112,-1.7112,-1.7112,-1.7128,-1.7283,-1.7364,-1.7388,-1.7364,-1.7534,-1.7695,-1.738,-1.8268,-1.979,-2.1452,-2.3189,-2.4826,-2.619,-2.6854,-2.68,-2.701,-2.7182,-2.763,-2.8386,-2.8719,-2.8907,-2.889,-2.8593,-2.8037,-2.8344,-2.833,-2.8052,-2.8593,-2.8886,-2.8871,-2.8344,-2.8183,-2.8432,-2.9641,-3.0775,-3.1779,-3.2104,-3.2848,-3.4012,-3.3264,-3.2816,-3.2656,-3.3361,-3.3505,-3.3271,-3.3536,-3.3215,-3.1959,-3.0565,-2.8608,0.0,-2.5595,0.0,0.0,0.0,0.0,0.0,0.0,0.0,0.0,-2.9249,-3.0305,-3.1609,-3.2499,-3.3348,-3.4238,-3.5562,-3.639,-3.6411,-3.7198,-3.8034,-3.8828,-3.9403,-4.0286,-4.1805,-4.1934,-4.2449,-4.3097,-4.3184,-4.3184,-4.3184,-4.3184,-4.3316,-4.3709,-4.4146,-4.443,-4.4495,-4.491,-4.4997,-4.4801,-4.4976,-4.5194,-4.5325,-4.55,-4.5849,-4.5871,-4.5828,-4.5806,-4.5784,-4.574,-4.5653,-4.5281,-4.5544,-4.5653,-4.5303,-4.5544,-4.5849,-4.6046,-4.6374,-4.6636,-1.7112,-1.7112,-1.7112,-1.7112,-1.7112,-1.7145,-1.725,-1.738,-1.7226,-1.7345,-1.7873,-1.8339,-1.9516,-2.1038,-2.2878,-2.4287,-2.5607,-2.6652,-2.7054,-2.6814,-2.6996,-2.7341,-2.7922,-2.8332,-2.8662,-2.9354,-2.9047,-2.888,-2.8709,-2.8821,-2.8651,-2.8359,-2.871,-2.8886,-2.8886,0.0,0.0,0.0,-2.9762,-3.0692,-3.1439,-3.3098,-3.3822,-3.3572,-3.2766,0.0,-3.2137,-3.2316,-3.2535,-3.295,-3.3394,0.0,0.0,0.0,0.0,0.0,0.0,0.0,0.0,0.0,0.0,0.0,-3.2043,-3.1857,-3.1319,-3.1774,-3.2499,-3.3472,-3.4051,-3.4755,-3.5645,-3.697,-3.7798,-3.7819,-3.8875,-3.9731,-3.9836,-4.0763,-4.1581,-4.1869,-4.2514,-4.3075,-4.3163,-4.3184,-4.3184,-4.3184,-4.3184,-4.3206,-4.3294,-4.3731,-4.3993,-4.4036,-4.4473,-4.4845,-4.515,-4.4932,-4.491,-4.5172,-4.5019,-4.5041,-4.5347,-4.5129,-4.4888,-4.4888,-4.4845,-4.4866,-4.4735,-4.4801,-4.4888,-4.4757,-4.4801,-4.5085,-4.5828,-4.6068,-4.6243,-1.8066,-1.7814,-1.7814,-1.7865,0.0,-1.8294,-1.8583,-1.8927,-1.7579,-1.7463,-1.8173,-1.9407,-2.0607,-2.2136,-2.3846,-2.5325,-2.623,-2.7118,-2.7321,-2.7041,-2.7538,-2.8019,-2.8319,-2.8819,-2.9312,-2.9603,-2.9295,-2.89,-2.8659,-2.8754,-2.8739,-2.8447,-2.8739,-2.8886,-2.8886,-2.9189,-2.9194,-2.903,-3.0015,-3.0958,-3.1947,-3.2975,-3.3653,-3.3769,-3.3054,0.0,0.0,0.0,0.0,0.0,0.0,0.0,0.0,0.0,0.0,-3.1091,-3.0553,-3.0098,-2.9725,-3.0677,-3.2023,-3.3596,-3.4569,-3.4693,-3.3782,-3.372,-3.4113,-3.5004,-3.5707,-3.639,-3.7094,-3.8171,-3.8854,-3.9146,-3.9866,-4.0562,-4.0997,-4.1657,-4.2375,-4.2536,-4.2892,-4.3184,-4.3184,-4.3184,-4.3184,-4.3184,-4.3184,-4.3184,-4.3228,-4.3578,-4.3905,-4.4167,-4.4408,-4.467,-4.4888,-4.4779,-4.4648,-4.4866,-4.4757,-4.4713,-4.491,-4.4757,-4.4582,-4.4582,-4.4582,-4.4539,-4.4298,-4.443,-4.4517,-4.432,-4.443,-4.4692,-4.5238,-4.55,-4.5806,-1.9563,-1.8689,-1.8725,-1.9007,-1.9142,-1.971,-2.0514,-2.0977,0.0,0.0,0.0,-2.0453,-2.1811,-2.317,-2.4873,-2.6054,-2.6863,-2.7416,-2.7468,-2.7351,-2.8163,-2.8487,-2.8649,-2.9456,-2.9778,-2.9749,-2.9442,-2.9032,-2.8549,-2.8769,-2.8769,-2.8564,-2.8769,-2.8886,-2.8871,-2.9487,-2.9747,-2.9973,-3.0283,-3.1209,-3.2542,-3.2765,-3.3237,-3.4093,-3.35,-3.3092,-3.2654,-3.3234,-3.3472,-3.3592,-3.4262,-3.4672,-3.4734,-3.4403,-3.372,-3.2747,-3.2644,-3.252,-3.225,-3.3244,-3.4258,-3.5169,-3.6432,-3.6742,-3.5749,-3.5397,-3.5583,-3.6411,-3.7239,-3.7922,-3.8378,-3.9164,-3.9938,-4.0213,-4.0751,-4.1304,-4.1999,-4.2462,-4.284,-4.3184,-4.3163,-4.3184,-4.3184,-4.3184,-4.3184,-4.3184,-4.3184,-4.3184,-4.3228,-4.349,-4.3862,-4.4277,-4.4277,-4.432,-4.443,-4.4342,-4.4386,-4.443,-4.4386,-4.4386,-4.4517,-4.4451,-4.4386,-4.4408,-4.4408,-4.4146,-4.3862,-4.4014,-4.4189,-4.3818,-4.4058,-4.4364,-4.4473,-4.4779,-4.5362,-2.0774,-1.9718,-1.9915,-2.0009,-2.0195,-2.1264,-2.2142,-2.2505,-2.0715,-2.0352,-2.1213,-2.2058,-2.3181,-2.4543,-2.5921,-2.6825,-2.6929,-2.729,-2.7337,-2.7538,-2.8019,-2.8325,-2.8819,-2.9297,-2.9268,-2.9051,-2.8948,-2.8915,-2.8842,-2.8871,-2.8856,-2.8827,-2.8871,-2.8886,-2.9027,-2.9655,-3.0395,-3.0956,-3.0551,-3.1152,-3.2975,-3.3174,-3.3497,-3.3895,-3.3208,-3.2775,-3.2906,-3.3044,-3.3141,-3.3375,-3.3906,-3.4341,-3.4734,-3.4714,-3.4755,-3.4921,-3.4941,-3.5086,-3.5397,-3.5645,-3.6121,-3.7053,-3.8005,-3.8005,-3.6763,-3.6908,-3.7322,-3.786,-3.8357,-3.8854,-3.9309,-4.0084,-4.0675,-4.0856,-4.1635,-4.2333,-4.2452,-4.2818,-4.3163,-4.3184,-4.3184,-4.3184,-4.3184,-4.3184,-4.3184,-4.3184,-4.3184,-4.3184,-4.3184,-4.3228,-4.3468,-4.3774,-4.3621,-4.3578,-4.384,-4.3621,-4.3621,-4.3905,-4.3687,-4.3774,-4.443,-4.3993,-4.3709,-4.3905,-4.3731,-4.3447,-4.3316,-4.3316,-4.3425,-4.3337,-4.3447,-4.3578,-4.4025,-4.4365,-4.4838,-2.2892,-2.1832,-2.1934,-2.2046,-2.2337,-2.4004,-2.4935,-2.5178,-2.4163,-2.3358,-2.2989,-2.3731,-2.4714,-2.5908,-2.6786,-2.7328,-2.7363,-2.7727,-2.7839,-2.7757,-2.8711,-2.9271,-2.9277,-2.9748,-2.9807,-2.9617,-2.931,-2.9061,-2.89,-2.8886,-2.8886,-2.8886,-2.8886,-2.8886,-2.9012,-2.9762,-3.0772,-3.1906,-3.2066,-3.2632,-3.3737,-3.4873,-3.5166,-3.4655,-3.4398,-3.4227,-3.4024,-3.4245,-3.4386,-3.4486,-3.4941,-3.5376,-3.5832,-3.5873,-3.5956,-3.6142,-3.6163,-3.6266,-3.6473,-3.6722,-3.726,-3.815,-3.8605,-3.8709,-3.8336,-3.8481,-3.8688,-3.8916,-3.933,-3.9682,-4.0188,-4.0745,-4.1299,-4.1699,-4.2312,-4.2721,-4.2883,-4.3023,-4.3184,-4.3184,-4.3184,-4.3184,-4.3184,-4.3184,-4.3184,-4.3184,-4.3184,-4.3184,-4.3184,-4.3184,-4.325,-4.3425,-4.3316,-4.3294,-4.3447,-4.3337,-4.3272,-4.3468,-4.3534,-4.3709,-4.4146,-4.3752,-4.3687,-4.3774,-4.349,-4.3228,-4.3184,-4.3184,-4.3184,-4.3163,-4.3302,-4.3573,-4.3867,-4.4509,-4.531,-2.5201,-2.4086,-2.4152,-2.4487,-2.5071,-2.6785,-2.7578,-2.7615,-2.7355,-2.6521,-2.527,-2.5677,-2.6311,-2.694,-2.7495,-2.7709,-2.7696,-2.8139,-2.814,-2.8152,-2.9476,-2.9936,-2.9885,-3.0185,-3.0395,-3.013,-2.9573,-2.9237,-2.9003,-2.8915,-2.8886,-2.8886,-2.9042,-2.9012,-2.9079,-3.0015,-3.1138,-3.2664,-3.3518,-3.4279,-3.4854,-3.6336,-3.6668,-3.5801,-3.5726,-3.5595,-3.5374,-3.5603,-3.5728,-3.5749,-3.608,-3.6473,-3.6908,-3.6949,-3.7053,-3.7218,-3.7177,-3.7115,-3.7136,-3.755,-3.8109,-3.8771,-3.904,-3.9309,-3.964,-3.9785,-3.9806,-3.9765,-4.0075,-4.0506,-4.0969,-4.1383,-4.1877,-4.2581,-4.2721,-4.2883,-4.3163,-4.3184,-4.3184,-4.3184,-4.3184,-4.3184,-4.3184,-4.3184,-4.3184,-4.3184,-4.3184,-4.3184,-4.3184,-4.3184,-4.3184,-4.3184,-4.3184,-4.3184,-4.3184,-4.3184,-4.3228,-4.3294,-4.3621,-4.3949,-4.4102,-4.4102,-4.3949,-4.3949,-4.3556,-4.325,-4.3184,-4.3184,-4.3184,-4.3184,-4.3441,-4.3697,-4.4157,-4.5369,-4.6104,-2.7169,-2.609,-2.6306,-2.7096,-2.8,-2.8647,-2.896,-2.9132,-2.8855,-2.8696,-2.8391,-2.7452,-2.7209,-2.7461,-2.7676,-2.7709,-2.7682,-2.7921,-2.8125,-2.8627,-2.9414,-2.99,-3.0364,-3.0364,-3.032,-3.0203,-2.9676,-2.9195,-2.8921,-2.8846,-2.8886,-2.8886,-2.9212,-2.9513,-2.9671,-3.0639,-3.1901,-3.3001,-3.4353,-3.5489,-3.6324,-3.6817,-3.7014,-3.675,-3.6452,-3.6336,-3.6511,-3.668,-3.668,-3.668,-3.6722,-3.6949,-3.7363,-3.7425,-3.7798,-3.8523,-3.8253,-3.8046,-3.8067,-3.8481,-3.875,-3.8895,-3.962,-4.0075,-4.0137,-4.0489,-4.0572,-4.0344,-4.0572,-4.0921,-4.141,-4.1714,-4.2159,-4.2581,-4.2883,-4.3163,-4.3184,-4.3184,-4.3184,-4.3184,-4.3184,-4.3184,-4.3184,-4.3184,-4.3184,-4.3184,-4.3184,-4.3184,-4.3184,-4.3184,-4.3184,-4.3184,-4.3184,-4.3184,-4.3184,-4.3184,-4.3294,-4.3643,-4.3818,-4.4124,-4.4495,-4.432,-4.3971,-4.4102,-4.3731,-4.3368,-4.3324,-4.3184,-4.3324,-4.3441,-4.3719,-4.3974,-4.4983,-4.6102,-4.6677,-2.822,-2.7596,-2.7708,-2.818,-2.8963,-2.929,-2.9619,-2.9713,-2.9619,-2.9472,-2.9299,-2.8815,-2.8338,-2.8063,-2.7909,-2.7709,-2.7696,-2.84,-2.8687,-2.9029,-2.9821,-3.0461,-3.0627,-3.0627,-3.0539,-3.0513,-2.9881,-2.937,-2.8979,-2.8875,-2.8886,-2.9027,-2.9329,-2.9763,-3.0338,-3.1301,-3.2515,-3.4048,-3.4796,-3.5821,-3.7059,-3.7595,-3.7627,-3.735,-3.7431,-3.7336,-3.7281,-3.7467,-3.7508,-3.726,-3.7467,-3.7715,-3.7881,-3.7902,-3.8067,-3.8419,-3.8295,-3.8316,-3.8564,-3.875,-3.9081,-3.962,-3.9992,-4.0323,-4.0572,-4.0779,-4.08,-4.0675,-4.0779,-4.1167,-4.1735,-4.1877,-4.23,-4.2883,-4.3163,-4.3184,-4.3184,-4.3184,-4.3184,-4.3184,-4.3184,-4.3184,-4.3184,-4.3184,-4.3184,-4.3184,-4.3184,-4.3184,-4.3184,-4.3184,-4.3184,-4.3184,-4.3184,-4.3184,-4.3184,-4.3184,-4.3272,-4.3447,-4.3687,-4.4124,-4.4255,-4.4233,-4.3949,-4.4146,-4.374,-4.3485,-4.3441,-4.3719,-4.3858,-4.3997,-4.4388,-4.4914,-4.546,-4.6435,-4.687,-2.9195,-2.8822,-2.8758,-2.8937,-2.9349,-2.9654,-2.9847,-2.9913,-2.9913,-2.9793,-2.9606,-2.9526,-2.9259,-2.8791,-2.8136,-2.7856,-2.8244,-2.8786,-2.9241,-2.9505,-3.0397,-3.0817,-3.0817,-3.0817,-3.0715,-3.0645,-3.0233,-2.9632,-2.8906,-2.8846,-2.8886,-2.8997,-2.9487,-3.0186,-3.0932,-3.1963,-3.3287,-3.4845,-3.539,-3.6364,-3.7482,-3.7965,-3.812,-3.777,-3.8037,-3.8026,-3.7715,-3.8005,-3.8026,-3.7715,-3.8005,-3.8191,-3.8191,-3.8191,-3.8191,-3.8212,-3.8316,-3.8502,-3.8833,-3.8957,-3.9371,-4.0116,-4.0323,-4.053,-4.08,-4.0882,-4.1025,-4.1025,-4.1025,-4.131,-4.1877,-4.2159,-4.2441,-4.3045,-4.3184,-4.3184,-4.3184,-4.3184,-4.3184,-4.3184,-4.3184,-4.3184,-4.3184,-4.3184,-4.3184,-4.3184,-4.3184,-4.3184,-4.3184,-4.3184,-4.3184,-4.3184,-4.3184,-4.3184,-4.3184,-4.3184,-4.3206,-4.3403,-4.3709,-4.3905,-4.3971,-4.3993,-4.3862,-4.3949,-4.3727,-4.3742,-4.3836,-4.4112,-4.4526,-4.4823,-4.521,-4.5731,-4.616,-4.6721,-4.7122,-2.9913,-2.9694,-2.9619,-2.9495,-2.9887,-2.9646,-2.9673,-2.9913,-2.9913,-2.99,-2.9833,-2.9619,-2.9472,-2.9366,-2.8524,-2.8622,-2.9125,-2.9161,-2.9547,-3.0107,-3.0651,-3.0817,-3.0817,-3.0817,-3.0803,-3.0671,-3.0144,-2.9544,-2.8959,-2.89,-2.8886,-2.8871,-2.9778,-3.0514,-3.1384,-3.2855,-3.4165,-3.5371,-3.6403,-3.7213,-3.7616,-3.8058,-3.8191,-3.8191,-3.8191,-3.815,-3.8129,-3.8171,-3.8171,-3.815,-3.8171,-3.8191,-3.8191,-3.8191,-3.8191,-3.8212,-3.8564,-3.8812,-3.8916,-3.9247,-3.9723,-4.0199,-4.0593,-4.0841,-4.1004,-4.1025,-4.1167,-4.1473,-4.1473,-4.1615,-4.2018,-4.2278,-4.2721,-4.3184,-4.3184,-4.3184,-4.3184,-4.3184,-4.3184,-4.3184,-4.3184,-4.3184,-4.3184,-4.3184,-4.3184,-4.3184,-4.3184,-4.3184,-4.3184,-4.3184,-4.3184,-4.3184,-4.3184,-4.3184,-4.3184,-4.3184,-4.3359,-4.3512,-4.3643,-4.3905,-4.4146,-4.4233,-4.3993,-4.3894,-4.3941,-4.4019,-4.425,-4.464,-4.5074,-4.5483,-4.589,-4.6429,-4.6563,-4.7098,-4.7364,-2.9913,-2.99,-2.9806,-2.982,-2.99,-2.9806,-2.982,-2.9913,-2.9913,-2.9913,-2.99,-2.9806,-2.9931,-3.0247,-2.9539,-2.9172,-2.9432,-2.9888,-3.0097,-3.0193,-3.0665,-3.0817,-3.0817,-3.0817,-3.07,-3.0451,-3.0056,-2.9529,-2.8959,-2.8886,-2.8886,-2.9109,-2.9716,-3.0856,-3.239,-3.357,-3.5016,-3.6674,-3.7213,-3.7616,-3.7904,-3.8171,-3.8191,-3.8191,-3.8191,-3.8191,-3.8191,-3.8191,-3.8191,-3.8191,-3.8191,-3.8191,-3.8191,-3.8191,-3.8191,-3.8191,-3.8336,-3.8667,-3.9226,-3.9433,-3.9868,-4.0551,-4.1084,-4.131,-4.1331,-4.1452,-4.1735,-4.1877,-4.2018,-4.23,-4.23,-4.2581,-4.2721,-4.3163,-4.3184,-4.3184,-4.3184,-4.3184,-4.3184,-4.3184,-4.3184,-4.3184,-4.3184,-4.3184,-4.3184,-4.3184,-4.3184,-4.3184,-4.3184,-4.3184,-4.3184,-4.3184,-4.3184,-4.3184,-4.3184,-4.3184,-4.325,-4.3456,-4.3565,-4.3705,-4.4,-4.4206,-4.4147,-4.4308,-4.4179,-4.4548,-4.4914,-4.546,-4.589,-4.6136,-4.654,-4.6831,-4.6965,-4.7232,-4.7497,-2.9913,-2.9913,-2.9913,-2.9913,-2.9913,-2.9913,-2.9913,-2.9913,-2.9913,-2.9913,-2.9913,-3.0093,-3.0272,-3.0534,-3.0447,-3.0232,-2.9926,-3.0255,-3.0379,-3.0346,-3.0665,-3.0817,-3.0803,-3.0715,-3.0554,-3.0112,-2.9719,-2.9398,-2.8944,-2.8886,-2.9042,-2.9168,-3.0155,-3.1416,-3.3099,-3.4257,-3.584,-3.7254,-3.777,-3.7904,-3.8191,-3.8191,-3.8191,-3.8191,-3.8191,-3.8191,-3.8191,-3.8191,-3.8191,-3.8191,-3.8191,-3.8191,-3.8191,-3.8191,-3.8191,-3.8191,-3.8336,-3.873,-3.9413,-3.9682,-4.0096,-4.0942,-4.1331,-4.1473,-4.1615,-4.1877,-4.2018,-4.2159,-4.2441,-4.2581,-4.2721,-4.2861,-4.2883,-4.3184,-4.3184,-4.3184,-4.3184,-4.3184,-4.3184,-4.3184,-4.3184,-4.3184,-4.3184,-4.3184,-4.3184,-4.3184,-4.3184,-4.3184,-4.3184,-4.3184,-4.3184,-4.3184,-4.3184,-4.3184,-4.3184,-4.3184,-4.3184,-4.3368,-4.3529,-4.3742,-4.3974,-4.425,-4.4526,-4.4663,-4.4937,-4.5324,-4.5731,-4.6405,-4.654,-4.6674,-4.6965,-4.7098,-4.7232,-4.7364,-4.7497,-2.9913,-2.9913,-2.9913,-2.9913,-2.9913,-2.9913,-2.9913,-2.9913,-2.9913,-2.9913,-3.0093,-3.0451,-3.0602,-3.0712,-3.1099,-3.1367,-3.0981,-3.0465,-3.0542,-3.0665,-3.0817,-3.0803,-3.0759,-3.0525,-3.032,-3.0039,-2.9297,-2.9021,-2.8915,-2.8886,-2.9056,-2.9619,-3.0678,-3.2076,-3.3638,-3.5079,-3.6524,-3.7449,-3.8037,-3.8191,-3.8191,-3.8191,-3.8191,-3.8191,-3.8191,-3.8191,-3.8191,-3.8191,-3.8191,-3.8191,-3.8191,-3.8191,-3.8191,-3.8191,-3.8191,-3.8295,-3.8605,-3.9061,-3.9537,-3.9951,-4.0625,-4.1247,-4.1473,-4.1756,-4.2018,-4.2159,-4.23,-4.2581,-4.2581,-4.2721,-4.3023,-4.3163,-4.3184,-4.3163,-4.3184,-4.3184,-4.3184,-4.3184,-4.3184,-4.3184,-4.3184,-4.3184,-4.3184,-4.3184,-4.3184,-4.3184,-4.3184,-4.3184,-4.3184,-4.3184,-4.3184,-4.3184,-4.3184,-4.3184,-4.3184,-4.3184,-4.3184,-4.3324,-4.3603,-4.3836,-4.425,-4.4663,-4.5074,-4.5347,-4.5619,-4.6001,-4.6429,-4.6831,-4.7098,-4.7232,-4.7364,-4.7364,-4.7364,-4.7497,-4.7497,-2.9913,-2.9913,-2.9913,-2.9913,-2.9913,-2.9913,-2.9913,-2.9913,-2.9913,-3.0093,-3.0451,-3.0629,-3.0876,-3.1169,-3.1236,-3.1253,-3.1262,-3.0854,-3.0665,-3.0817,-3.0817,-3.0715,-3.0525,-3.0393,-3.0115,-2.9661,-2.9079,-2.8988,-2.9071,-2.9212,-2.9368,-2.9774,-3.1165,-3.2554,-3.4072,-3.5398,-3.6681,-3.7811,-3.8191,-3.8191,-3.8191,-3.8191,-3.8191,-3.8191,-3.8191,-3.8191,-3.8191,-3.8191,-3.8191,-3.8191,-3.8191,-3.8191,-3.8191,-3.8191,-3.8316,-3.8605,-3.875,-3.9226,-3.9909,-4.0438,-4.087,-4.1509,-4.1898,-4.23,-4.2441,-4.2603,-4.2883,-4.3023,-4.3023,-4.3023,-4.3163,-4.3184,-4.3184,-4.3184,-4.3184,-4.3184,-4.3184,-4.3184,-4.3184,-4.3184,-4.3184,-4.3184,-4.3184,-4.3184,-4.3184,-4.3184,-4.3184,-4.3184,-4.3184,-4.3184,-4.3184,-4.3184,-4.3184,-4.3184,-4.3184,-4.3184,-4.3302,-4.3441,-4.3697,-4.4112,-4.4526,-4.5074,-4.5619,-4.6025,-4.6429,-4.6697,-4.6965,-4.7232,-4.7364,-4.7497,-4.7497,-4.7497,-4.7497,-4.7497,-4.7497,-2.9913,-2.9913,-2.9913,-2.9913,-2.9913,-2.9913,-2.9913,-2.9913,-3.0093,-3.0258,-3.0396,-3.0848,-3.1063,-3.1336,-3.1296,-3.1179,-3.1285,-3.0978,-3.0817,-3.0817,-3.0817,-3.07,-3.081,-3.0899,-3.0641,-3.0212,-2.9925,-2.9834,-2.9819,-3.0284,-3.0438,-3.0854,-3.234,-3.3813,-3.5155,-3.6066,-3.7351,-3.8212,-3.8274,-3.8191,-3.8191,-3.8191,-3.8191,-3.8191,-3.8191,-3.8191,-3.8191,-3.8191,-3.8191,-3.8191,-3.8191,-3.8191,-3.8191,-3.8336,-3.8564,-3.8833,-3.9206,-3.9661,-4.0319,-4.0808,-4.1278,-4.1834,-4.23,-4.2721,-4.2883,-4.3023,-4.3184,-4.3184,-4.3184,-4.3184,-4.3184,-4.3184,-4.3184,-4.3184,-4.3184,-4.3184,-4.3184,-4.3184,-4.3184,-4.3184,-4.3184,-4.3184,-4.3184,-4.3184,-4.3184,-4.3184,-4.3184,-4.3184,-4.3184,-4.3184,-4.3184,-4.3184,-4.3184,-4.3184,-4.3184,-4.3302,-4.3302,-4.3558,-4.3814,-4.4366,-4.4937,-4.5595,-4.6136,-4.6563,-4.6965,-4.7098,-4.7364,-4.7364,-4.7497,-4.7497,-4.7497,-4.7497,-4.7497,-4.7497,-4.7497,-2.9913,-2.9913,-2.9913,-2.9913,-2.9913,-2.9913,-2.9913,-3.0093,-3.0437,-3.0396,-3.0479,-3.1197,-3.1553,-3.1367,-3.1408,-3.1484,-3.1381,-3.1298,-3.1316,-3.115,-3.115,-3.1422,-3.1617,-3.1718,-3.1763,-3.1724,-3.1565,-3.1533,-3.167,-3.196,-3.2419,-3.2876,-3.4336,-3.5667,-3.6538,-3.748,-3.8066,-3.8656,-3.844,-3.8274,-3.8212,-3.8191,-3.8191,-3.8191,-3.8191,-3.8191,-3.8191,-3.8191,-3.8191,-3.8191,-3.8191,-3.8191,-3.8253,-3.8605,-3.8812,-3.8957,-3.9744,-4.0396,-4.0766,-4.132,-4.1834,-4.2419,-4.2581,-4.2721,-4.3163,-4.3184,-4.3184,-4.3184,-4.3184,-4.3184,-4.3184,-4.3184,-4.3184,-4.3184,-4.3184,-4.3184,-4.3184,-4.3184,-4.3184,-4.3184,-4.3184,-4.3184,-4.3184,-4.3184,-4.3184,-4.3184,-4.3184,-4.3184,-4.3184,-4.3184,-4.3184,-4.3184,-4.3184,-4.3184,-4.3184,-4.3441,-4.3558,-4.3836,-4.409,-4.4755,-4.5324,-4.6001,-4.654,-4.7098,-4.7364,-4.7497,-4.7497,-4.7497,-4.7497,-4.7497,-4.7497,-4.7497,-4.7497,-4.7497,-4.7894,-2.9913,-2.9913,-2.9913,-2.9913,-2.9913,-2.9913,-3.0093,-3.0437,-3.0616,-3.082,-3.1197,-3.145,-3.1844,-3.2104,-3.2248,-3.2358,-3.2493,-3.2685,-3.2788,-3.2788,-3.2788,-3.2632,-3.2629,-3.2681,-3.3027,-3.355,-3.3314,-3.3297,-3.3583,-3.3902,-3.4354,-3.4786,-3.5997,-3.701,-3.7604,-3.8343,-3.8606,-3.8821,-3.8771,-3.8502,-3.8253,-3.8212,-3.8191,-3.8191,-3.8191,-3.8191,-3.8191,-3.8191,-3.8191,-3.8191,-3.8191,-3.8191,-3.8253,-3.8626,-3.9019,-3.9413,-4.0167,-4.0829,-4.1383,-4.1954,-4.2441,-4.2581,-4.2883,-4.3023,-4.3184,-4.3184,-4.3184,-4.3184,-4.3184,-4.3184,-4.3184,-4.3184,-4.3184,-4.3184,-4.3184,-4.3184,-4.3184,-4.3184,-4.3184,-4.3184,-4.3184,-4.3184,-4.3184,-4.3184,-4.3184,-4.3184,-4.3184,-4.3184,-4.3184,-4.3184,-4.3184,-4.3184,-4.3184,-4.3184,-4.3324,-4.358,-4.3858,-4.4112,-4.464,-4.5142,-4.5685,-4.6358,-4.6941,-4.7497,-4.7497,-4.7497,-4.7497,-4.7497,-4.7497,-4.7497,-4.7497,-4.7497,-4.763,-4.763,-4.8264,-2.974,-2.974,-2.9904,-3.0163,-3.0245,-3.0315,-3.0438,-3.0751,-3.0817,-3.1043,-3.1584,-3.1599,-3.2037,-3.2907,-3.2844,-3.314,-3.364,-3.4246,-3.4571,-3.4555,-3.4896,-3.4697,-3.4316,-3.434,-3.4968,-3.5387,-3.5308,-3.5264,-3.542,-3.5849,-3.6294,-3.6737,-3.7492,-3.8253,-3.8616,-3.8948,-3.9271,-3.9337,-3.9247,-3.8999,-3.8771,-3.8543,-3.846,-3.8419,-3.8316,-3.8191,-3.8191,-3.8191,-3.8191,-3.8191,-3.8191,-3.8253,-3.8481,-3.8895,-3.9351,-3.9945,-4.0682,-4.1341,-4.1954,-4.2441,-4.2721,-4.2861,-4.3023,-4.3184,-4.3184,-4.3184,-4.3184,-4.3184,-4.3184,-4.3184,-4.3184,-4.3184,-4.3184,-4.3184,-4.3184,-4.3184,-4.3184,-4.3184,-4.3184,-4.3184,-4.3184,-4.3184,-4.3184,-4.3184,-4.3184,-4.3184,-4.3184,-4.3184,-4.3184,-4.3184,-4.3184,-4.3184,-4.3324,-4.3463,-4.3764,-4.4041,-4.4273,-4.4686,-4.5438,-4.5913,-4.6224,-4.676,-4.7184,-4.7497,-4.7497,-4.7497,-4.7497,-4.7497,-4.7497,-4.7497,-4.7497,-4.763,-4.7762,-4.8182,-4.8682,-2.9446,-2.9446,-2.9988,-3.0315,-3.0629,-3.0979,-3.1218,-3.1119,-3.1455,-3.1454,-3.1509,-3.1601,-3.254,-3.3698,-3.38,-3.4246,-3.5059,-3.585,-3.6172,-3.6494,-3.6957,-3.6958,-3.6395,-3.6831,-3.7249,-3.7518,-3.7633,-3.7483,-3.7535,-3.8028,-3.8263,-3.8389,-3.8991,-3.9425,-3.9737,-3.976,-3.9859,-3.9935,-3.9765,-3.9537,-3.9351,-3.9081,-3.8937,-3.8874,-3.8523,-3.8274,-3.8233,-3.8233,-3.8295,-3.8274,-3.8212,-3.8398,-3.8792,-3.9268,-3.9841,-4.0696,-4.1257,-4.1834,-4.2419,-4.2581,-4.2861,-4.3023,-4.3184,-4.3184,-4.3184,-4.3184,-4.3184,-4.3184,-4.3184,-4.3184,-4.3184,-4.3184,-4.3184,-4.3184,-4.3184,-4.3184,-4.3184,-4.3184,-4.3184,-4.3184,-4.3184,-4.3184,-4.3184,-4.3184,-4.3184,-4.3184,-4.3184,-4.3184,-4.3184,-4.3184,-4.3184,-4.3184,-4.3463,-4.3742,-4.4063,-4.4523,-4.4868,-4.5256,-4.6347,-4.6887,-4.6831,-4.7208,-4.734,-4.7497,-4.7497,-4.7497,-4.7497,-4.7497,-4.7497,-4.7497,-4.7497,-4.763,-4.7894,-4.8706,-4.9252,-2.9138,-2.9152,-2.9907,-3.0244,-3.0643,-3.1482,-3.2105,-3.2729,-3.2996,-3.2692,-3.2083,-3.289,-3.381,-3.4572,-3.5288,-3.5867,-3.685,-3.7631,-3.8109,-3.8109,-3.8901,-3.9355,-3.9324,-3.9273,-3.9778,-4.0171,-3.9919,-3.9898,-3.9905,-3.975,-4.0022,-4.0146,-4.0146,-4.0576,-4.0555,-4.0473,-4.0409,-4.0282,-4.0116,-3.9909,-3.9661,-3.9495,-3.9371,-3.9309,-3.8916,-3.8543,-3.8336,-3.8523,-3.8688,-3.8626,-3.844,-3.8636,-3.8916,-3.9206,-3.9799,-4.0899,-4.1741,-4.2257,-4.2559,-4.2861,-4.3023,-4.3184,-4.3184,-4.3184,-4.3184,-4.3206,-4.3206,-4.3184,-4.3184,-4.3228,-4.3184,-4.3184,-4.3184,-4.3184,-4.3184,-4.3184,-4.3184,-4.3184,-4.3184,-4.3184,-4.3184,-4.3184,-4.3184,-4.3184,-4.3184,-4.3184,-4.3184,-4.3184,-4.3184,-4.3206,-4.3412,-4.3477,-4.4029,-4.4375,-4.5067,-4.5506,-4.608,-4.6215,-4.7076,-4.7495,-4.746,-4.7364,-4.7497,-4.7497,-4.7497,-4.7497,-4.7497,-4.7497,-4.7497,-4.7497,-4.7497,-4.7762,-4.8158,-4.8992,-4.9898,-2.8845,-2.8858,-2.9685,-3.0419,-3.1253,-3.2468,-3.3399,-3.4055,-3.4532,-3.3896,-3.3101,-3.4228,-3.5422,-3.6454,-3.7028,-3.7631,-3.8621,-3.9411,-3.9883,-4.0197,-4.0666,-4.1133,-4.1578,-4.1381,-4.1642,-4.1646,-4.1191,-4.1102,-4.0943,-4.072,-4.0596,-4.0882,-4.0882,-4.0882,-4.0882,-4.0882,-4.0758,-4.0613,-4.053,-4.0386,-4.0199,-3.9951,-3.9702,-3.9495,-3.9123,-3.8792,-3.8874,-3.8927,-3.9229,-3.9312,-3.9364,-3.9427,-3.9667,-3.9896,-4.0528,-4.1571,-4.2107,-4.27,-4.2861,-4.3023,-4.3184,-4.3184,-4.3184,-4.3184,-4.325,-4.3359,-4.3359,-4.3294,-4.3337,-4.3447,-4.3228,-4.3184,-4.3184,-4.3184,-4.3184,-4.3184,-4.3184,-4.3184,-4.3184,-4.3184,-4.3184,-4.3184,-4.3184,-4.3184,-4.3206,-4.3206,-4.3206,-4.3228,-4.3456,-4.3477,-4.3793,-4.4206,-4.4664,-4.5242,-4.5961,-4.6681,-4.7416,-4.7501,-4.7742,-4.7772,-4.7593,-4.7521,-4.7497,-4.7497,-4.7497,-4.7497,-4.7497,-4.7497,-4.7497,-4.7497,-4.763,-4.7762,-4.8445,-4.9536,-5.041,-2.8708,-2.8879,-2.9929,-3.0908,-3.2059,-3.3563,-3.4783,-3.5475,-3.6148,-3.5782,-3.4725,-3.5892,-3.7258,-3.8627,-3.8658,-3.9235,-4.004,-4.0685,-4.1152,-4.1443,-4.1773,-4.2236,-4.2677,-4.2769,-4.2627,-4.2069,-4.1692,-4.16,-4.1232,-4.1028,-4.0882,-4.0882,-4.0882,-4.0882,-4.0882,-4.0882,-4.0862,-4.08,-4.08,-4.08,-4.0737,-4.0468,-4.0137,-3.9702,-3.9413,-3.9247,-3.9467,-3.9699,-3.9815,-4.0288,-4.0647,-4.0901,-4.1017,-4.0941,-4.1389,-4.2516,-4.2721,-4.2861,-4.3023,-4.3184,-4.3184,-4.3184,-4.3184,-4.325,-4.3359,-4.3599,-4.3665,-4.3643,-4.3665,-4.3621,-4.325,-4.3184,-4.3184,-4.3184,-4.3184,-4.3184,-4.3184,-4.3184,-4.3184,-4.3184,-4.3184,-4.3184,-4.3184,-4.3184,-4.3206,-4.325,-4.3272,-4.3337,-4.3609,-4.3903,-4.4427,-4.482,-4.5422,-4.6538,-4.7306,-4.8029,-4.8748,-4.8505,-4.8516,-4.8108,-4.7858,-4.7786,-4.7762,-4.7521,-4.7497,-4.7497,-4.7497,-4.763,-4.763,-4.7497,-4.781,-4.8231,-4.9041,-4.9974,-5.0921,-2.9565,-3.0111,-3.1519,-3.251,-3.3337,-3.5163,-3.6405,-3.6972,-3.7827,-3.8091,-3.7878,-3.8091,-3.9049,-4.0148,-4.0016,-4.0216,-4.0841,-4.1463,-4.1773,-4.1927,-4.239,-4.2851,-4.3004,-4.331,-4.34,-4.3153,-4.2555,-4.2039,-4.1771,-4.1338,-4.0903,-4.0882,-4.0882,-4.0882,-4.0882,-4.0882,-4.0882,-4.0882,-4.0882,-4.0882,-4.0983,-4.09,-4.0672,-4.0277,-4.0049,-4.0084,-4.0117,-4.0402,-4.073,-4.1092,-4.1571,-4.1903,-4.2043,-4.1764,-4.185,-4.2452,-4.2883,-4.3163,-4.3184,-4.3184,-4.3184,-4.3184,-4.3228,-4.3403,-4.3643,-4.3862,-4.4102,-4.4189,-4.3993,-4.3709,-4.325,-4.3316,-4.3228,-4.3206,-4.3228,-4.3228,-4.3228,-4.3184,-4.3228,-4.3272,-4.3228,-4.3184,-4.3206,-4.3272,-4.3425,-4.3718,-4.385,-4.4025,-4.4222,-4.4661,-4.5288,-4.5759,-4.6207,-4.7515,-4.8685,-4.9486,-5.0026,-4.9499,-4.9277,-4.8731,-4.8531,-4.8267,-4.8074,-4.781,-4.7593,-4.7497,-4.763,-4.7786,-4.8123,-4.8328,-4.8592,-4.8879,-5.0172,-5.1331,-5.2282,-3.0939,-3.1632,-3.3274,-3.4376,-3.5237,-3.6846,-3.797,-3.8798,-3.9569,-3.9883,-3.9883,-4.004,-4.043,-4.0996,-4.0781,-4.1016,-4.1463,-4.1618,-4.2082,-4.239,-4.2851,-4.3157,-4.331,-4.3615,-4.3615,-4.3366,-4.2725,-4.2269,-4.2166,-4.1317,-4.0924,-4.0882,-4.0882,-4.0882,-4.0882,-4.0882,-4.0882,-4.0882,-4.0882,-4.1025,-4.1167,-4.131,-4.1284,-4.1158,-4.0906,-4.0899,-4.1122,-4.1252,-4.1604,-4.1936,-4.2452,-4.27,-4.2796,-4.2688,-4.244,-4.2818,-4.3023,-4.3184,-4.3184,-4.3184,-4.3184,-4.3206,-4.3381,-4.3599,-4.3949,-4.4277,-4.467,-4.4757,-4.4539,-4.4146,-4.3971,-4.3883,-4.3905,-4.3862,-4.3709,-4.3556,-4.349,-4.3337,-4.3381,-4.3468,-4.3359,-4.3294,-4.325,-4.3381,-4.3621,-4.3981,-4.4244,-4.4651,-4.4958,-4.5689,-4.6254,-4.7014,-4.7486,-4.8427,-4.9557,-5.0077,-5.06,-5.0191,-4.9854,-4.9445,-4.9036,-4.87,-4.8363,-4.8074,-4.7858,-4.7617,-4.8015,-4.8353,-4.869,-4.9232,-5.0006,-5.0887,-5.1741,-5.2595,-5.3422,-3.2561,-3.356,-3.517,-3.6316,-3.7117,-3.8249,-3.9235,-4.0059,-4.086,-4.1172,-4.1172,-4.1172,-4.1172,-4.1172,-4.1327,-4.1483,-4.1773,-4.1927,-4.239,-4.2851,-4.3157,-4.331,-4.3462,-4.3615,-4.3615,-4.3491,-4.287,-4.2352,-4.2083,-4.1338,-4.0944,-4.0882,-4.0882,-4.0882,-4.0882,-4.0882,-4.0882,-4.0882,-4.1025,-4.1188,-4.1615,-4.1898,-4.2018,-4.1997,-4.1635,-4.1635,-4.1967,-4.1957,-4.2258,-4.2591,-4.3001,-4.3184,-4.3184,-4.3184,-4.3184,-4.3184,-4.3184,-4.3184,-4.3184,-4.3184,-4.3184,-4.3184,-4.3599,-4.384,-4.4255,-4.4801,-4.5369,-4.5281,-4.4997,-4.4648,-4.4495,-4.4539,-4.4539,-4.4473,-4.4211,-4.3993,-4.3927,-4.384,-4.3818,-4.3774,-4.3556,-4.3599,-4.3731,-4.3818,-4.4124,-4.4573,-4.4958,-4.5467,-4.59,-4.678,-4.7493,-4.8279,-4.8943,-4.9558,-5.0127,-5.0221,-5.06,-5.0359,-5.0167,-4.9926,-4.9445,-4.9012,-4.87,-4.8387,-4.805,-4.7967,-4.8499,-4.9051,-4.9569,-5.0368,-5.1634,-5.262,-5.3296,-5.3815,-5.4463,-3.4571,-3.5706,-3.7152,-3.795,-3.8444,-3.9411,-4.004,-4.0509,-4.1016,-4.1172,-4.1172,-4.1172,-4.1172,-4.1327,-4.1638,-4.1773,-4.2082,-4.239,-4.2851,-4.3157,-4.331,-4.3462,-4.3615,-4.3615,-4.3615,-4.3532,-4.3077,-4.2642,-4.2207,-4.14,-4.0903,-4.0882,-4.0882,-4.0882,-4.0882,-4.0882,-4.0882,-4.1025,-4.1331,-4.1615,-4.1877,-4.2223,-4.2202,-4.2159,-4.2074,-4.2052,-4.2419,-4.2591,-4.2656,-4.2979,-4.3184,-4.3184,-4.3184,-4.3184,-4.3184,-4.3184,-4.3184,-4.3184,-4.3184,-4.325,-4.3272,-4.3359,-4.3709,-4.4058,-4.4648,-4.526,-4.5696,-4.5325,-4.5238,-4.5107,-4.4845,-4.467,-4.4626,-4.4648,-4.4626,-4.4517,-4.4451,-4.4233,-4.4211,-4.4386,-4.4277,-4.4364,-4.4495,-4.4539,-4.4648,-4.5099,-4.553,-4.6166,-4.6905,-4.7744,-4.8413,-4.9154,-4.9606,-5.0198,-5.0412,-5.0554,-5.0648,-5.0479,-5.0407,-5.0311,-4.9926,-4.9493,-4.9084,-4.8772,-4.8411,-4.8391,-4.8984,-4.9587,-5.0368,-5.1507,-5.2777,-5.3947,-5.4808,-5.5172,-5.5537,-3.7099,-3.795,-3.9235,-3.9883,-4.0059,-4.0529,-4.0685,-4.0841,-4.1172,-4.1172,-4.1172,-4.1172,-4.1327,-4.1483,-4.1773,-4.2082,-4.239,-4.2851,-4.3157,-4.331,-4.3462,-4.3615,-4.3615,-4.3615,-4.3615,-4.3491,-4.318,-4.287,-4.2373,-4.1772,-4.1172,-4.0924,-4.0903,-4.0882,-4.0965,-4.0882,-4.1025,-4.131,-4.1714,-4.2138,-4.23,-4.2624,-4.2786,-4.2743,-4.2603,-4.2743,-4.2883,-4.2883,-4.3023,-4.3184,-4.3184,-4.3184,-4.3184,-4.3184,-4.3184,-4.3184,-4.3184,-4.3184,-4.3206,-4.3425,-4.3512,-4.3752,-4.4211,-4.491,-4.5347,-4.5696,-4.5959,-4.574,-4.5718,-4.5565,-4.5412,-4.5391,-4.5391,-4.5325,-4.5107,-4.5019,-4.4932,-4.467,-4.4582,-4.4801,-4.5019,-4.5209,-4.5398,-4.5376,-4.5521,-4.5654,-4.6379,-4.7186,-4.7881,-4.8817,-4.9295,-4.9747,-5.0198,-5.0554,-5.0554,-5.0696,-5.0696,-5.06,-5.06,-5.0503,-5.0383,-5.0022,-4.9589,-4.9414,-4.9286,-4.9377,-4.9618,-5.0619,-5.166,-5.2802,-5.4076,-5.5043,-5.5961,-5.6198,-5.6563,-3.9179,-3.9575,-4.0802,-4.1172,-4.1172,-4.1172,-4.1172,-4.1172,-4.1172,-4.1172,-4.1172,-4.1327,-4.1463,-4.1773,-4.2082,-4.239,-4.3004,-4.3157,-4.331,-4.3462,-4.3615,-4.3615,-4.3615,-4.3615,-4.3615,-4.3615,-4.3346,-4.3056,-4.2725,-4.2269,-4.1731,-4.1255,-4.1358,-4.1296,-4.1214,-4.1295,-4.1498,-4.1877,-4.2095,-4.2376,-4.2721,-4.3023,-4.3184,-4.3184,-4.3184,-4.3184,-4.3184,-4.3184,-4.3184,-4.3184,-4.3184,-4.3184,-4.3184,-4.3184,-4.3184,-4.3184,-4.3184,-4.3272,-4.3425,-4.3643,-4.3818,-4.4146,-4.4713,-4.5369,-4.5828,-4.6002,-4.6002,-4.5937,-4.5959,-4.5959,-4.6002,-4.5959,-4.5871,-4.5762,-4.58,-4.5713,-4.5581,-4.5508,-4.5565,-4.591,-4.6109,-4.6051,-4.622,-4.63,-4.6423,-4.6423,-4.7063,-4.8041,-4.8812,-4.9675,-4.9961,-5.0246,-5.0412,-5.0696,-5.0696,-5.0696,-5.0696,-5.0696,-5.0696,-5.0672,-5.0527,-5.0359,-5.0186,-5.0059,-5.0069,-5.0407,-5.068,-5.1834,-5.2853,-5.4052,-5.5199,-5.6224,-5.699,-5.7174,-5.7174,-4.0024,-4.0452,-4.0996,-4.1152,-4.1172,-4.1172,-4.1172,-4.1172,-4.1172,-4.1172,-4.1327,-4.1638,-4.1773,-4.1927,-4.2544,-4.2851,-4.3024,-4.3462,-4.3462,-4.3615,-4.3615,-4.3615,-4.3615,-4.3615,-4.3615,-4.3615,-4.347,-4.3263,-4.3035,-4.289,-4.2497,-4.2207,-4.2,-4.2083,-4.2084,-4.2021,-4.2116,-4.2308,-4.2398,-4.2495,-4.3001,-4.3184,-4.3184,-4.3184,-4.3184,-4.3184,-4.3184,-4.3184,-4.3184,-4.3184,-4.3184,-4.3184,-4.3184,-4.3184,-4.3184,-4.3184,-4.3184,-4.3359,-4.3643,-4.3862,-4.3905,-4.4167,-4.4757,-4.5587,-4.5937,-4.6002,-4.6002,-4.6002,-4.6002,-4.6002,-4.6002,-4.6002,-4.6002,-4.5959,-4.6019,-4.6293,-4.6374,-4.6691,-4.6793,-4.6949,-4.7141,-4.7118,-4.7096,-4.7276,-4.7254,-4.7254,-4.798,-4.8957,-4.9389,-5.0104,-5.0412,-5.0554,-5.0554,-5.0696,-5.0696,-5.0696,-5.0696,-5.0696,-5.0696,-5.0696,-5.0672,-5.0479,-5.0475,-5.084,-5.096,-5.143,-5.2032,-5.3082,-5.4236,-5.5176,-5.6144,-5.6882,-5.7174,-5.7174,-5.7174,-3.9883,-4.0547,-4.0703,-4.0918,-4.1172,-4.1172,-4.1172,-4.1172,-4.1172,-4.1327,-4.1638,-4.1773,-4.2082,-4.2544,-4.2697,-4.3157,-4.331,-4.3462,-4.3615,-4.3615,-4.3615,-4.3615,-4.3615,-4.3615,-4.3615,-4.3615,-4.3594,-4.3573,-4.3387,-4.3304,-4.3284,-4.3014,-4.2728,-4.2585,-4.2544,-4.2792,-4.2964,-4.2991,-4.2851,-4.3001,-4.3001,-4.3184,-4.3184,-4.3184,-4.3184,-4.3184,-4.3184,-4.3184,-4.3184,-4.3184,-4.3184,-4.3184,-4.3184,-4.3184,-4.3184,-4.3206,-4.3206,-4.3468,-4.3883,-4.4189,-4.4539,-4.515,-4.5544,-4.5806,-4.6002,-4.6002,-4.6002,-4.6002,-4.6002,-4.6002,-4.6002,-4.6002,-4.6002,-4.6151,-4.6299,-4.6743,-4.7038,-4.7502,-4.7794,-4.7918,-4.7918,-4.7918,-4.8064,-4.8186,-4.8186,-4.8064,-4.8957,-4.9532,-5.0104,-5.0388,-5.0554,-5.0696,-5.0696,-5.0696,-5.0696,-5.0696,-5.0696,-5.0696,-5.0696,-5.0696,-5.0837,-5.0954,-5.1066,-5.1452,-5.2204,-5.2953,-5.3705,-5.4576,-5.5287,-5.5702,-5.6381,-5.6963,-5.7174,-5.7174,-5.7174,-3.9531,-4.0293,-4.0332,-4.0664,-4.1133,-4.1172,-4.1172,-4.1172,-4.1172,-4.1483,-4.1773,-4.2082,-4.239,-4.2851,-4.3157,-4.331,-4.3462,-4.3615,-4.3615,-4.3615,-4.3615,-4.3615,-4.3615,-4.3615,-4.3615,-4.3615,-4.3615,-4.3594,-4.3725,-4.3746,-4.3835,-4.3778,-4.3464,-4.3383,-4.3342,-4.3525,-4.3594,-4.3534,-4.3274,-4.325,-4.3228,-4.3184,-4.3184,-4.3184,-4.3184,-4.3184,-4.3184,-4.3184,-4.3184,-4.3184,-4.3184,-4.3184,-4.3184,-4.3184,-4.3184,-4.3228,-4.3359,-4.3599,-4.4058,-4.4561,-4.515,-4.5696,-4.5893,-4.5959,-4.6002,-4.6002,-4.6002,-4.6002,-4.6002,-4.6002,-4.6002,-4.6151,-4.6151,-4.6299,-4.6891,-4.7332,-4.7648,-4.8086,-4.8377,-4.8667,-4.8667,-4.8667,-4.8812,-4.9078,-4.9078,-4.9101,-4.9532,-5.0128,-5.027,-5.0554,-5.0554,-5.0696,-5.0696,-5.0696,-5.0696,-5.0696,-5.0696,-5.0696,-5.0696,-5.0837,-5.0954,-5.1236,-5.1771,-5.2454,-5.325,-5.4459,-5.5234,-5.5656,-5.5916,-5.6015,-5.6645,-5.7174,-5.7174,-5.7174,-5.7174,-3.9121,-3.9863,-3.9922,-4.041,-4.1133,-4.1172,-4.1172,-4.1327,-4.1327,-4.1483,-4.1927,-4.2544,-4.2851,-4.3157,-4.331,-4.3462,-4.3615,-4.3615,-4.3615,-4.3615,-4.3615,-4.3615,-4.3615,-4.3615,-4.3615,-4.3615,-4.3767,-4.3919,-4.4222,-4.4201,-4.4352,-4.4504,-4.4464,-4.4421,-4.4226,-4.4464,-4.4365,-4.3872,-4.3491,-4.3328,-4.3316,-4.3228,-4.3184,-4.3184,-4.3184,-4.3184,-4.3184,-4.3184,-4.3184,-4.3184,-4.3184,-4.3184,-4.3184,-4.325,-4.3272,-4.3272,-4.3643,-4.4058,-4.4539,-4.5019,-4.5522,-4.5915,-4.6002,-4.6002,-4.6002,-4.6002,-4.6002,-4.6002,-4.6002,-4.6002,-4.6151,-4.6299,-4.6448,-4.6743,-4.7332,-4.7941,-4.8232,-4.8667,-4.9101,-4.9389,-4.9509,-4.9509,-4.9652,-4.9795,-4.9961,-5.0104,-5.0412,-5.0554,-5.0554,-5.0696,-5.0696,-5.0696,-5.0696,-5.0696,-5.0696,-5.0696,-5.0696,-5.0696,-5.0696,-5.0837,-5.1236,-5.1771,-5.2441,-5.3265,-5.435,-5.5313,-5.5973,-5.6628,-5.6623,-5.6645,-5.6882,-5.7174,-5.7174,-5.7174,-5.7174,-3.9082,-3.9883,-3.9883,-4.0523,-4.1559,-4.1618,-4.1618,-4.1618,-4.1927,-4.2236,-4.2544,-4.2851,-4.3157,-4.3462,-4.3462,-4.3615,-4.3615,-4.3615,-4.3615,-4.3615,-4.3615,-4.3615,-4.3615,-4.3615,-4.3615,-4.3615,-4.3767,-4.4071,-4.4243,-4.4525,-4.4654,-4.4805,-4.5106,-4.5106,-4.4977,-4.5122,-4.4917,-4.4569,-4.3881,-4.3339,-4.3599,-4.3381,-4.3228,-4.325,-4.325,-4.3272,-4.3272,-4.3316,-4.3316,-4.3294,-4.3294,-4.325,-4.3316,-4.3425,-4.3599,-4.3709,-4.408,-4.4561,-4.5041,-4.5478,-4.5806,-4.5959,-4.6002,-4.6002,-4.6002,-4.6002,-4.6002,-4.6002,-4.6002,-4.6002,-4.6002,-4.6448,-4.6596,-4.7038,-4.7648,-4.8354,-4.8957,-4.9389,-4.9818,-5.0128,-5.027,-5.0246,-5.0246,-5.0104,-5.0246,-5.0412,-5.0554,-5.0696,-5.0696,-5.0696,-5.0696,-5.0696,-5.0696,-5.0696,-5.0696,-5.0696,-5.0696,-5.0696,-5.0696,-5.0837,-5.1376,-5.2164,-5.2991,-5.3945,-5.502,-5.6132,-5.6524,-5.6915,-5.7044,-5.7174,-5.7174,-5.7174,-5.7174,-5.7174,-5.7174,-3.9101,-3.9863,-4.0033,-4.0828,-4.1693,-4.1773,-4.1927,-4.2082,-4.237,-4.2851,-4.3004,-4.3157,-4.331,-4.3615,-4.3615,-4.3615,-4.3615,-4.3615,-4.3615,-4.3615,-4.3615,-4.3615,-4.3615,-4.3615,-4.3573,-4.3725,-4.405,-4.4374,-4.4654,-4.4955,-4.5106,-4.5256,-4.5405,-4.5555,-4.5617,-4.5549,-4.5456,-4.515,-4.4503,-4.432,-4.4124,-4.3883,-4.3731,-4.3731,-4.3731,-4.3709,-4.3687,-4.3665,-4.3643,-4.3599,-4.3534,-4.3512,-4.3665,-4.3752,-4.3993,-4.4167,-4.4561,-4.5041,-4.5522,-4.574,-4.5959,-4.6002,-4.6002,-4.6002,-4.6002,-4.6002,-4.6002,-4.6002,-4.6151,-4.6151,-4.6299,-4.6596,-4.7186,-4.7648,-4.8232,-4.8957,-4.9532,-4.9961,-5.0128,-5.0554,-5.0744,-5.0744,-5.0744,-5.0696,-5.0554,-5.0696,-5.0696,-5.072,-5.072,-5.0696,-5.0696,-5.0696,-5.0696,-5.0696,-5.0696,-5.0696,-5.0696,-5.0696,-5.0837,-5.0978,-5.1656,-5.2466,-5.3538,-5.4485,-5.571,-5.6524,-5.6915,-5.7174,-5.7174,-5.7174,-5.7174,-5.7174,-5.7174,-5.7174,-5.7174,-3.9082,-3.9955,-4.0334,-4.096,-4.1808,-4.1907,-4.2236,-4.2524,-4.2851,-4.3004,-4.3004,-4.3462,-4.3615,-4.3615,-4.3615,-4.3615,-4.3615,-4.3615,-4.3615,-4.3615,-4.3615,-4.3615,-4.3615,-4.3615,-4.3725,-4.3835,-4.4138,-4.4805,-4.5213,-4.5384,-4.5555,-4.5853,-4.5853,-4.5853,-4.581,-4.5893,-4.5718,-4.5478,-4.5428,-4.5077,-4.4648,-4.4495,-4.4364,-4.4342,-4.4342,-4.4342,-4.4342,-4.4364,-4.4408,-4.432,-4.4124,-4.4233,-4.4255,-4.4146,-4.4298,-4.4626,-4.5129,-4.5522,-4.5828,-4.598,-4.6002,-4.6002,-4.6002,-4.6002,-4.6002,-4.6002,-4.6002,-4.6151,-4.6299,-4.6448,-4.6596,-4.7332,-4.7941,-4.8377,-4.8835,-4.9412,-4.9961,-5.0246,-5.0412,-5.0602,-5.0816,-5.0864,-5.0936,-5.0888,-5.1081,-5.0936,-5.0936,-5.0792,-5.0792,-5.0696,-5.0696,-5.0696,-5.0696,-5.0696,-5.0696,-5.0696,-5.0837,-5.0837,-5.0978,-5.126,-5.2074,-5.3017,-5.4081,-5.5153,-5.6236,-5.7044,-5.7174,-5.7174,-5.7174,-5.7174,-5.7174,-5.7174,-5.7174,-5.7174,-5.7174,-3.9053,-3.988,-4.0345,-4.1103,-4.2231,-4.2861,-4.3157,-4.3289,-4.3462,-4.3462,-4.3462,-4.3615,-4.3615,-4.3615,-4.3615,-4.3615,-4.3615,-4.3615,-4.3615,-4.3615,-4.3615,-4.3615,-4.3767,-4.3898,-4.405,-4.4352,-4.4654,-4.5127,-4.562,-4.5748,-4.5853,-4.6002,-4.6002,-4.6002,-4.6002,-4.6002,-4.5893,-4.5784,-4.5948,-4.5559,-4.5274,-4.5055,-4.4968,-4.4735,-4.4713,-4.4735,-4.4713,-4.4692,-4.4692,-4.4582,-4.4473,-4.4517,-4.4517,-4.4779,-4.5107,-4.5522,-4.5762,-4.5871,-4.598,-4.6002,-4.6002,-4.6002,-4.6002,-4.6002,-4.6002,-4.6002,-4.6002,-4.6151,-4.6448,-4.6743,-4.7186,-4.7794,-4.8377,-4.8957,-4.9389,-4.9818,-5.0246,-5.0412,-5.0554,-5.0626,-5.084,-5.1129,-5.1177,-5.1537,-5.1658,-5.1417,-5.1177,-5.0984,-5.0816,-5.0744,-5.0696,-5.0696,-5.0696,-5.0696,-5.0837,-5.0954,-5.0954,-5.1095,-5.1376,-5.1935,-5.2879,-5.381,-5.4619,-5.5551,-5.6628,-5.7044,-5.7174,-5.7174,-5.7174,-5.7174,-5.7174,-5.7174,-5.7174,-5.7174,-5.7174,-3.9267,-3.985,-4.0584,-4.1725,-4.2747,-4.3339,-4.3615,-4.3615,-4.3615,-4.3615,-4.3615,-4.3615,-4.3615,-4.3615,-4.3615,-4.3615,-4.3615,-4.3615,-4.3615,-4.3919,-4.3767,-4.4071,-4.4201,-4.4352,-4.4504,-4.4826,-4.5127,-4.5577,-4.5897,-4.6046,-4.6002,-4.6002,-4.6002,-4.598,-4.6002,-4.6002,-4.6002,-4.5915,-4.5976,-4.5844,-4.5647,-4.5494,-4.5238,-4.5129,-4.5107,-4.5107,-4.5107,-4.5107,-4.5107,-4.5063,-4.5041,-4.4997,-4.5085,-4.5478,-4.5609,-4.5915,-4.5959,-4.5959,-4.6002,-4.6002,-4.6002,-4.6002,-4.6002,-4.6002,-4.6002,-4.6002,-4.6002,-4.6002,-4.6596,-4.7038,-4.7648,-4.8086,-4.8957,-4.9652,-4.9961,-5.0246,-5.0412,-5.0696,-5.0744,-5.0792,-5.1008,-5.1321,-5.1658,-5.2067,-5.2115,-5.1634,-5.1297,-5.1105,-5.0912,-5.072,-5.0696,-5.0696,-5.0696,-5.0696,-5.0954,-5.1352,-5.1632,-5.2025,-5.2579,-5.3128,-5.3784,-5.4485,-5.5419,-5.6105,-5.6915,-5.7044,-5.7174,-5.7174,-5.7174,-5.7174,-5.7174,-5.7174,-5.7174,-5.7174,-5.7174,-3.9394,-3.9937,-4.1178,-4.2426,-4.3491,-4.3573,-4.3615,-4.3615,-4.3615,-4.3615,-4.3615,-4.3615,-4.3615,-4.3615,-4.3615,-4.3615,-4.3615,-4.3615,-4.3919,-4.4201,-4.4201,-4.4352,-4.4654,-4.4805,-4.4955,-4.5234,-4.5362,-4.5661,-4.5744,-4.5762,-4.5653,-4.5893,-4.5784,-4.5696,-4.5653,-4.5806,-4.5806,-4.5806,-4.5893,-4.5915,-4.5937,-4.5959,-4.6002,-4.5937,-4.5915,-4.5915,-4.5937,-4.5959,-4.6002,-4.5849,-4.5718,-4.5609,-4.5762,-4.5893,-4.5959,-4.598,-4.6002,-4.6002,-4.6002,-4.6002,-4.6002,-4.6002,-4.6002,-4.6002,-4.6002,-4.6002,-4.6002,-4.6151,-4.6596,-4.7342,-4.7976,-4.8799,-4.9693,-5.0412,-5.0795,-5.0962,-5.1106,-5.1129,-5.0888,-5.1008,-5.1345,-5.1634,-5.1898,-5.2283,-5.2548,-5.1922,-5.1586,-5.1393,-5.096,-5.0744,-5.0696,-5.0696,-5.0837,-5.0954,-5.1492,-5.1886,-5.2579,-5.2991,-5.3513,-5.4055,-5.4753,-5.5445,-5.6105,-5.6655,-5.7044,-5.7174,-5.7174,-5.7174,-5.7174,-5.7174,-5.7174,-5.7174,-5.7174,-5.7174,-5.7174,-3.9525,-4.0266,-4.1624,-4.258,-4.3097,-4.347,-4.3615,-4.3615,-4.3615,-4.3615,-4.3615,-4.3615,-4.3615,-4.3615,-4.3615,-4.3615,-4.3615,-4.3898,-4.4071,-4.4352,-4.4504,-4.4805,-4.4955,-4.5106,-4.5256,-4.5384,-4.5661,-4.5657,-4.5544,-4.5238,-4.4954,-4.4976,-4.5063,-4.515,-4.5172,-4.5391,-4.5631,-4.5675,-4.5871,-4.6002,-4.6002,-4.6002,-4.6002,-4.6002,-4.6002,-4.6002,-4.6002,-4.6002,-4.6002,-4.5937,-4.5915,-4.5915,-4.598,-4.6002,-4.6002,-4.6002,-4.6002,-4.6002,-4.6002,-4.6002,-4.6002,-4.6002,-4.6002,-4.6002,-4.6002,-4.6002,-4.6151,-4.6299,-4.6832,-4.775,-4.8667,-4.9491,-5.0359,-5.1031,-5.1633,-5.1802,-5.1802,-5.1465,-5.1105,-5.1297,-5.161,-5.1922,-5.2187,-5.2427,-5.2692,-5.2572,-5.2235,-5.185,-5.1081,-5.0696,-5.0978,-5.0954,-5.1095,-5.1352,-5.1886,-5.2829,-5.3538,-5.4081,-5.4619,-5.502,-5.5578,-5.6105,-5.6655,-5.6915,-5.7174,-5.7174,-5.7174,-5.7174,-5.7174,-5.7174,-5.7174,-5.7174,-5.7174,-5.7174,-5.7174,-3.9899,-4.0412,-4.1503,-4.2331,-4.289,-4.3201,-4.3408,-4.3594,-4.3615,-4.3615,-4.3615,-4.3615,-4.3615,-4.3615,-4.3615,-4.3767,-4.3898,-4.405,-4.4504,-4.4654,-4.4955,-4.5106,-4.5405,-4.5555,-4.5555,-4.5683,-4.5614,-4.55,-4.5194,-4.4888,-4.4648,-4.4604,-4.4692,-4.4866,-4.4932,-4.5325,-4.5587,-4.5653,-4.5893,-4.598,-4.6002,-4.6002,-4.6002,-4.6002,-4.6002,-4.6002,-4.6002,-4.6002,-4.6002,-4.6002,-4.598,-4.598,-4.6002,-4.6002,-4.6002,-4.6002,-4.6002,-4.6002,-4.6002,-4.6002,-4.6002,-4.6002,-4.6002,-4.6002,-4.6002,-4.6002,-4.6002,-4.6173,-4.7121,-4.8065,-4.8942,-4.9793,-5.0906,-5.1727,-5.1873,-5.1994,-5.1802,-5.1489,-5.1129,-5.0936,-5.1441,-5.2091,-5.2379,-5.2692,-5.2812,-5.2427,-5.2211,-5.1754,-5.1081,-5.0978,-5.1095,-5.1492,-5.1771,-5.2025,-5.2717,-5.3649,-5.4619,-5.5153,-5.5578,-5.5973,-5.6524,-5.6785,-5.7174,-5.7174,-5.7174,-5.7174,-5.7174,-5.7174,-5.7174,-5.7174,-5.7174,-5.7174,-5.7174,-5.7174,-5.7174,-4.031,-4.0515,-4.1235,-4.2,-4.2704,-4.289,-4.3139,-4.347,-4.3573,-4.3615,-4.3615,-4.3615,-4.3615,-4.3615,-4.3767,-4.3919,-4.4201,-4.4504,-4.4805,-4.5106,-4.5405,-4.5555,-4.5704,-4.6002,-4.5788,-4.5549,-4.5412,-4.5194,-4.4932,-4.4495,-4.4277,-4.4539,-4.4845,-4.5129,-4.5347,-4.5609,-4.5784,-4.5784,-4.5893,-4.598,-4.6002,-4.6002,-4.6002,-4.6002,-4.6002,-4.6002,-4.6002,-4.6002,-4.6002,-4.6002,-4.6002,-4.6002,-4.6002,-4.6002,-4.6002,-4.6002,-4.6002,-4.6002,-4.6002,-4.6002,-4.6002,-4.6002,-4.6002,-4.6002,-4.6151,-4.6151,-4.6151,-4.6734,-4.7664,-4.853,-4.9434,-5.0406,-5.1379,-5.2353,-5.2451,-5.2235,-5.1922,-5.1634,-5.1249,-5.0912,-5.1417,-5.2139,-5.2403,-5.2716,-5.2668,-5.2259,-5.1802,-5.1297,-5.1172,-5.1425,-5.1771,-5.2302,-5.2991,-5.3402,-5.381,-5.4485,-5.5445,-5.5973,-5.6367,-5.6915,-5.7174,-5.7174,-5.7174,-5.7174,-5.7174,-5.7174,-5.7174,-5.7174,-5.7174,-5.7174,-5.7174,-5.7174,-5.7174,-5.7174,-5.7174,-4.0453,-4.0781,-4.1379,-4.1669,-4.1938,-4.258,-4.2973,-4.3097,-4.3449,-4.3615,-4.3615,-4.3615,-4.3615,-4.3615,-4.3898,-4.4201,-4.4504,-4.4805,-4.5106,-4.5405,-4.5704,-4.5853,-4.6002,-4.598,-4.5762,-4.5478,-4.5085,-4.4604,-4.4626,-4.4014,-4.3709,-4.4102,-4.4146,-4.4451,-4.4845,-4.5194,-4.5609,-4.5675,-4.5871,-4.6002,-4.6002,-4.6002,-4.6002,-4.6002,-4.6002,-4.6002,-4.6002,-4.6002,-4.6002,-4.6002,-4.6002,-4.6002,-4.6002,-4.6002,-4.6002,-4.6002,-4.6002,-4.6002,-4.6002,-4.6002,-4.6002,-4.6002,-4.6151,-4.6448,-4.6596,-4.6743,-4.7069,-4.7641,-4.8449,-4.9087,-5.0065,-5.1012,-5.2041,-5.2947,-5.3317,-5.2812,-5.2403,-5.2067,-5.1706,-5.1513,-5.161,-5.1898,-5.1898,-5.2235,-5.2548,-5.2115,-5.1802,-5.1295,-5.1333,-5.1796,-5.2441,-5.324,-5.4055,-5.4753,-5.5153,-5.5445,-5.6105,-5.6655,-5.7044,-5.7174,-5.7174,-5.7174,-5.7174,-5.7174,-5.7174,-5.7174,-5.7174,-5.7174,-5.7174,-5.7174,-5.7174,-5.7174,-5.7174,-5.7174,-5.7174]},{"header":{"parameterUnit":"m.s-1","parameterCategory":1,"la1":31.0,"la2":29.5877,"lo1":-88.7671,"lo2":-86.6584,"dy":0.0162,"dx":0.0185,"nx":115,"ny":88,"refTime":"2026-05-02T00:00:00:Z","depth":0,"parameterNumber":3,"parameterNumberName":"V-component_of_WINDS"},"data":[0.0,0.0,0.0,0.0,0.0,0.0,0.0,0.0,0.0,0.0,0.0,0.0,0.0,0.0,0.0,0.0,0.0,0.0,0.0,0.0,0.0,0.0,0.0,0.0,0.0,0.0,0.0,0.0,0.0,0.0,0.0,0.0,0.0,0.0,0.0,0.0,0.0,0.0,0.0,0.0,0.0,0.0,0.0,0.0,0.0,0.0,0.0,0.0,0.0,0.0,0.0,0.0,0.0,0.0,0.0,0.0,0.0,0.0,0.0,0.0,0.0,0.0,0.0,0.0,0.0,0.0,0.0,0.0,0.0,0.0,0.0,0.0,0.0,0.0,0.0,0.0,0.0,0.0,0.0,0.0,0.0,0.0,0.0,0.0,0.0,0.0,0.0,0.0,0.0,0.0,0.0,0.0,0.0,0.0,0.0,0.0,0.0,0.0,0.0,0.0,0.0,0.0,0.0,0.0,0.0,0.0,0.0,0.0,0.0,0.0,0.0,0.0,0.0,0.0,0.0,0.0,0.0,0.0,0.0,0.0,0.0,0.0,0.0,0.0,0.0,0.0,0.0,0.0,0.0,0.0,0.0,0.0,0.0,0.0,0.0,0.0,0.0,0.0,0.0,0.0,0.0,0.0,0.0,0.0,0.0,0.0,0.0,0.0,0.0,0.0,0.0,0.0,0.0,0.0,0.0,0.0,0.0,0.0,0.0,0.0,0.0,0.0,0.0,0.0,0.0,0.0,0.0,0.0,0.0,0.0,0.0,0.0,0.0,0.0,0.0,0.0,0.0,0.0,0.0,0.0,0.0,0.0,0.0,0.0,0.0,0.0,0.0,0.0,0.0,0.0,0.0,0.0,0.0,0.0,0.0,0.0,0.0,0.0,0.0,0.0,0.0,0.0,0.0,0.0,0.0,0.0,0.0,0.0,0.0,0.0,0.0,0.0,0.0,0.0,0.0,0.0,0.0,0.0,0.0,0.0,0.0,0.0,0.0,0.0,0.0,0.0,0.0,0.0,0.0,0.0,0.0,0.0,0.0,0.0,0.0,0.0,0.0,0.0,0.0,0.0,0.0,0.0,0.0,0.0,0.0,0.0,0.0,0.0,0.0,0.0,0.0,0.0,0.0,0.0,0.0,0.0,0.0,0.0,0.0,0.0,0.0,0.0,0.0,0.0,0.0,0.0,0.0,0.0,0.0,0.0,0.0,0.0,0.0,0.0,0.0,0.0,0.0,0.0,0.0,0.0,0.0,0.0,0.0,0.0,0.0,0.0,0.0,0.0,0.0,0.0,0.0,0.0,0.0,0.0,0.0,0.0,0.0,0.0,0.0,0.0,0.0,0.0,0.0,0.0,0.0,0.0,0.0,0.0,0.0,0.0,0.0,0.0,0.0,0.0,0.0,0.0,0.0,0.0,0.0,0.0,0.0,0.0,0.0,0.0,0.0,0.0,0.0,0.0,0.0,0.0,0.0,0.0,0.0,0.0,0.0,0.0,0.0,0.0,0.0,0.0,0.0,0.0,0.0,0.0,0.0,0.0,0.0,0.0,0.0,0.0,0.0,0.0,0.0,0.0,0.0,0.0,0.0,0.0,0.0,0.0,0.0,0.0,0.0,0.0,0.0,0.0,0.0,0.0,0.0,0.0,0.0,0.0,0.0,0.0,0.0,0.0,0.0,0.0,0.0,0.0,0.0,0.0,0.0,0.0,0.0,0.0,0.0,0.0,0.0,0.0,0.0,0.0,0.0,0.0,0.0,0.0,0.0,0.0,0.0,0.0,0.0,0.0,0.0,0.0,0.0,0.0,0.0,0.0,0.0,0.0,0.0,0.0,0.0,0.0,0.0,0.0,0.0,0.0,0.0,0.0,0.0,0.0,0.0,0.0,0.0,0.0,0.0,0.0,0.0,0.0,0.0,0.0,0.0,0.0,0.0,0.0,0.0,0.0,0.0,0.0,0.0,0.0,0.0,0.0,0.0,0.0,0.0,0.0,0.0,0.0,0.0,0.0,0.0,0.0,0.0,0.0,0.0,0.0,0.0,0.0,0.0,0.0,0.0,0.0,0.0,0.0,0.0,0.0,0.0,0.0,0.0,0.0,0.0,0.0,0.0,0.0,0.0,0.0,0.0,0.0,0.0,0.0,0.0,0.0,0.0,0.0,0.0,0.0,0.0,0.0,0.0,0.0,0.0,0.0,0.0,0.0,0.0,0.0,0.0,0.0,0.0,0.0,0.0,0.0,0.0,0.0,0.0,0.0,0.0,0.0,0.0,0.0,0.0,0.0,0.0,0.0,0.0,0.0,0.0,0.0,0.0,0.0,0.0,0.0,0.0,0.0,0.0,0.0,0.0,0.0,0.0,0.0,0.0,0.0,0.0,0.0,0.0,0.0,0.0,0.0,0.0,0.0,0.0,0.0,0.0,0.0,0.0,0.0,0.0,0.0,0.0,0.0,0.0,0.0,0.0,0.0,0.0,0.0,0.0,0.0,0.0,0.0,0.0,0.0,0.0,0.0,0.0,0.0,0.0,0.0,0.0,0.0,0.0,0.0,0.0,0.0,0.0,0.0,0.0,0.0,0.0,0.0,0.0,0.0,0.0,0.0,0.0,0.0,0.0,0.0,0.0,0.0,0.0,0.0,0.0,0.0,0.0,0.0,0.0,0.0,0.0,0.0,0.0,0.0,0.0,0.0,0.0,0.0,0.0,0.0,0.0,0.0,0.0,0.0,0.0,0.0,0.0,0.0,0.0,0.0,0.0,0.0,0.0,0.0,0.0,0.0,0.0,0.0,0.0,0.0,0.0,0.0,0.0,0.0,0.0,0.0,0.0,0.0,0.0,0.0,0.0,0.0,0.0,0.0,0.0,0.0,0.0,0.0,0.0,0.0,0.0,0.0,0.0,0.0,0.0,0.0,0.0,0.0,0.0,0.0,0.0,0.0,0.0,0.0,0.0,0.0,0.0,0.0,0.0,0.0,0.0,0.0,0.0,0.0,0.0,0.0,0.0,0.0,0.0,0.0,0.0,0.0,0.0,0.0,0.0,0.0,0.0,0.0,0.0,0.0,0.0,0.0,0.0,0.0,0.0,0.0,0.0,0.0,0.0,0.0,0.0,0.0,0.0,0.0,0.0,0.0,0.0,0.0,0.0,0.0,0.0,0.0,0.0,0.0,0.0,0.0,0.0,0.0,0.0,0.0,0.0,0.0,0.0,0.0,0.0,0.0,0.0,0.0,0.0,0.0,0.0,0.0,0.0,0.0,0.0,0.0,0.0,0.0,0.0,0.0,0.0,0.0,0.0,0.0,0.0,0.0,0.0,0.0,0.0,0.0,0.0,0.0,0.0,0.0,0.0,0.0,0.0,0.0,0.0,0.0,0.0,0.0,0.0,0.0,0.0,0.0,0.0,0.0,0.0,0.0,0.0,0.0,0.0,0.0,0.0,0.0,0.0,0.0,0.0,0.0,0.0,0.0,0.0,0.0,0.0,0.0,0.0,0.0,0.0,0.0,0.0,0.0,0.0,0.0,0.0,0.0,0.0,0.0,0.0,0.0,0.0,0.0,0.0,0.0,0.0,0.0,0.0,0.0,0.0,0.0,0.0,0.0,0.0,0.0,0.0,0.0,0.0,0.0,0.0,0.0,0.0,0.0,0.0,0.0,0.0,0.0,0.0,0.0,0.0,0.0,0.0,0.0,0.0,0.0,0.0,0.0,0.0,0.0,0.0,0.0,0.0,0.0,0.0,0.0,0.0,0.0,0.0,0.0,0.0,0.0,0.0,0.0,0.0,0.0,0.0,0.0,0.0,0.0,0.0,0.0,0.0,0.0,0.0,0.0,0.0,0.0,0.0,0.0,0.0,0.0,0.0,0.0,0.0,0.0,0.0,0.0,0.0,0.0,0.0,0.0,0.0,0.0,0.0,0.0,0.0,0.0,0.0,0.0,0.0,0.0,0.0,0.0,0.0,0.0,0.0,0.0,0.0,0.0,0.0,0.0,0.0,0.0,0.0,0.0,0.0,0.0,0.0,0.0,0.0,0.0,0.0,0.0,0.0,0.0,0.0,0.0,0.0,0.0,0.0,0.0,0.0,0.0,0.0,0.0,0.0,0.0,0.0,0.0,0.0,0.0,0.0,0.0,0.0,0.0,0.0,0.0,0.0,0.0,0.0,0.0,0.0,0.0,0.0,0.0,0.0,0.0,0.0,0.0,0.0,0.0,0.0,0.0,0.0,0.0,0.0,0.0,0.0,0.0,0.0,0.0,0.0,0.0,0.0,0.0,0.0,0.0,-5.6469,0.0,0.0,0.0,0.0,0.0,0.0,0.0,0.0,0.0,0.0,0.0,0.0,0.0,0.0,0.0,0.0,0.0,0.0,0.0,0.0,0.0,0.0,0.0,0.0,0.0,0.0,0.0,0.0,0.0,0.0,0.0,0.0,0.0,0.0,0.0,0.0,0.0,0.0,0.0,0.0,0.0,0.0,0.0,0.0,0.0,0.0,0.0,0.0,0.0,0.0,0.0,0.0,0.0,0.0,0.0,0.0,0.0,0.0,0.0,0.0,0.0,0.0,0.0,0.0,0.0,0.0,0.0,0.0,0.0,0.0,0.0,0.0,0.0,0.0,0.0,0.0,0.0,0.0,0.0,0.0,0.0,0.0,0.0,0.0,0.0,0.0,0.0,0.0,0.0,0.0,0.0,0.0,0.0,0.0,0.0,0.0,0.0,0.0,0.0,0.0,0.0,0.0,0.0,0.0,0.0,0.0,0.0,0.0,0.0,0.0,-5.9024,-5.8698,-5.7509,-5.6614,-5.6203,0.0,0.0,0.0,0.0,0.0,0.0,0.0,0.0,0.0,0.0,0.0,0.0,0.0,0.0,0.0,0.0,0.0,0.0,0.0,0.0,0.0,0.0,0.0,0.0,0.0,0.0,0.0,0.0,0.0,0.0,0.0,0.0,0.0,0.0,0.0,0.0,0.0,0.0,0.0,0.0,0.0,0.0,0.0,0.0,0.0,0.0,0.0,0.0,0.0,0.0,0.0,0.0,0.0,0.0,0.0,0.0,0.0,0.0,0.0,0.0,0.0,0.0,0.0,0.0,0.0,0.0,0.0,0.0,0.0,0.0,0.0,0.0,0.0,0.0,0.0,0.0,0.0,0.0,0.0,0.0,0.0,0.0,0.0,0.0,0.0,0.0,0.0,0.0,0.0,0.0,0.0,0.0,0.0,0.0,0.0,0.0,0.0,0.0,0.0,0.0,0.0,0.0,0.0,0.0,0.0,0.0,0.0,0.0,0.0,0.0,0.0,0.0,-5.7394,-5.6277,-5.5747,0.0,0.0,0.0,0.0,0.0,0.0,0.0,0.0,0.0,0.0,0.0,0.0,0.0,0.0,0.0,0.0,0.0,0.0,0.0,0.0,0.0,0.0,0.0,0.0,0.0,0.0,0.0,0.0,0.0,0.0,0.0,0.0,0.0,0.0,0.0,0.0,0.0,0.0,0.0,0.0,0.0,0.0,0.0,0.0,0.0,0.0,0.0,0.0,0.0,0.0,0.0,0.0,0.0,0.0,0.0,0.0,0.0,0.0,0.0,0.0,0.0,0.0,0.0,0.0,0.0,0.0,0.0,0.0,0.0,0.0,0.0,0.0,0.0,0.0,0.0,0.0,0.0,0.0,0.0,0.0,0.0,0.0,0.0,0.0,0.0,0.0,0.0,0.0,0.0,0.0,0.0,0.0,0.0,0.0,0.0,0.0,0.0,0.0,0.0,0.0,0.0,0.0,0.0,0.0,0.0,0.0,0.0,0.0,0.0,0.0,-5.9194,-5.9738,-5.809,0.0,-5.4723,0.0,0.0,0.0,0.0,0.0,0.0,0.0,0.0,0.0,0.0,0.0,0.0,0.0,0.0,0.0,0.0,0.0,0.0,0.0,0.0,0.0,0.0,0.0,0.0,0.0,0.0,0.0,0.0,0.0,0.0,0.0,0.0,0.0,0.0,0.0,0.0,0.0,0.0,0.0,0.0,0.0,0.0,0.0,0.0,0.0,0.0,0.0,0.0,0.0,0.0,0.0,0.0,0.0,0.0,0.0,0.0,0.0,0.0,0.0,0.0,0.0,0.0,0.0,0.0,0.0,0.0,0.0,0.0,0.0,0.0,0.0,0.0,0.0,0.0,0.0,0.0,0.0,0.0,0.0,0.0,0.0,0.0,0.0,0.0,0.0,0.0,0.0,0.0,0.0,0.0,0.0,0.0,0.0,0.0,0.0,0.0,0.0,0.0,0.0,0.0,0.0,0.0,0.0,0.0,0.0,0.0,0.0,0.0,0.0,0.0,-5.9504,-5.9708,-5.8067,-5.6055,0.0,0.0,0.0,0.0,0.0,0.0,0.0,0.0,0.0,0.0,0.0,0.0,0.0,0.0,0.0,0.0,0.0,0.0,0.0,0.0,0.0,0.0,0.0,0.0,0.0,0.0,0.0,0.0,0.0,0.0,0.0,0.0,0.0,0.0,0.0,0.0,0.0,0.0,0.0,0.0,0.0,0.0,0.0,0.0,0.0,0.0,0.0,0.0,0.0,0.0,0.0,0.0,0.0,0.0,0.0,0.0,0.0,0.0,0.0,0.0,0.0,0.0,0.0,0.0,0.0,0.0,0.0,0.0,0.0,0.0,0.0,0.0,0.0,0.0,0.0,0.0,0.0,0.0,0.0,0.0,0.0,0.0,0.0,0.0,0.0,0.0,0.0,0.0,0.0,0.0,0.0,0.0,0.0,0.0,0.0,0.0,0.0,0.0,0.0,0.0,0.0,0.0,0.0,0.0,0.0,0.0,0.0,0.0,0.0,0.0,-5.9042,-5.9294,-5.9161,-5.7781,-5.5932,-5.3681,0.0,0.0,0.0,0.0,0.0,0.0,0.0,0.0,0.0,0.0,0.0,0.0,0.0,0.0,0.0,0.0,0.0,0.0,0.0,0.0,0.0,0.0,0.0,0.0,0.0,0.0,0.0,0.0,0.0,0.0,0.0,0.0,0.0,0.0,0.0,0.0,0.0,0.0,0.0,0.0,0.0,0.0,0.0,0.0,0.0,0.0,0.0,0.0,0.0,0.0,0.0,0.0,0.0,0.0,0.0,0.0,0.0,0.0,0.0,0.0,0.0,0.0,0.0,0.0,0.0,0.0,0.0,0.0,0.0,0.0,0.0,0.0,0.0,0.0,0.0,0.0,0.0,0.0,0.0,0.0,0.0,0.0,0.0,0.0,0.0,0.0,0.0,0.0,0.0,0.0,0.0,0.0,0.0,0.0,0.0,0.0,0.0,0.0,0.0,0.0,0.0,0.0,0.0,0.0,0.0,0.0,0.0,0.0,0.0,-5.8474,-5.8386,-5.8252,-5.7405,-5.6147,0.0,0.0,0.0,0.0,0.0,0.0,0.0,0.0,0.0,0.0,0.0,0.0,0.0,0.0,0.0,0.0,0.0,0.0,0.0,0.0,0.0,0.0,0.0,0.0,0.0,0.0,0.0,0.0,0.0,0.0,0.0,0.0,0.0,0.0,0.0,0.0,0.0,0.0,0.0,0.0,0.0,0.0,0.0,0.0,0.0,0.0,0.0,0.0,0.0,0.0,0.0,0.0,0.0,0.0,0.0,0.0,0.0,0.0,0.0,0.0,0.0,0.0,0.0,0.0,0.0,0.0,0.0,0.0,0.0,0.0,0.0,0.0,0.0,0.0,0.0,0.0,0.0,0.0,0.0,0.0,0.0,0.0,0.0,0.0,0.0,0.0,0.0,0.0,0.0,0.0,0.0,0.0,0.0,0.0,0.0,0.0,0.0,0.0,0.0,0.0,0.0,0.0,0.0,0.0,0.0,0.0,0.0,0.0,0.0,-5.8312,-5.8179,-5.7867,-5.7271,-5.6029,-5.4553,0.0,0.0,0.0,0.0,0.0,0.0,0.0,0.0,0.0,0.0,0.0,0.0,0.0,0.0,0.0,0.0,0.0,0.0,0.0,0.0,0.0,0.0,0.0,0.0,0.0,0.0,0.0,0.0,0.0,0.0,0.0,0.0,0.0,0.0,0.0,0.0,0.0,0.0,0.0,0.0,0.0,0.0,0.0,0.0,0.0,0.0,0.0,0.0,0.0,0.0,0.0,0.0,0.0,0.0,0.0,0.0,0.0,0.0,0.0,0.0,0.0,0.0,0.0,0.0,0.0,0.0,0.0,0.0,0.0,0.0,0.0,0.0,0.0,0.0,0.0,0.0,0.0,0.0,0.0,0.0,0.0,0.0,0.0,0.0,0.0,0.0,0.0,0.0,0.0,0.0,0.0,0.0,0.0,0.0,0.0,0.0,0.0,0.0,0.0,0.0,0.0,0.0,0.0,0.0,0.0,0.0,0.0,0.0,0.0,-5.8538,0.0,-5.829,0.0,-5.5647,-5.4179,0.0,0.0,0.0,0.0,0.0,0.0,0.0,0.0,0.0,0.0,0.0,0.0,0.0,0.0,0.0,0.0,0.0,0.0,0.0,0.0,0.0,0.0,0.0,0.0,0.0,0.0,0.0,0.0,0.0,0.0,0.0,0.0,0.0,0.0,0.0,0.0,0.0,0.0,0.0,0.0,0.0,0.0,0.0,0.0,0.0,0.0,0.0,0.0,0.0,0.0,0.0,0.0,0.0,0.0,0.0,0.0,0.0,0.0,0.0,0.0,0.0,0.0,0.0,0.0,0.0,0.0,0.0,0.0,0.0,0.0,0.0,0.0,0.0,0.0,0.0,0.0,0.0,0.0,0.0,0.0,0.0,0.0,0.0,0.0,0.0,0.0,0.0,0.0,0.0,0.0,0.0,0.0,0.0,0.0,0.0,0.0,0.0,0.0,0.0,0.0,0.0,0.0,0.0,0.0,0.0,0.0,0.0,0.0,-5.9522,-5.9208,-5.9979,-5.9575,-5.8033,-5.6381,-5.517,0.0,0.0,0.0,0.0,0.0,0.0,0.0,0.0,0.0,0.0,0.0,0.0,0.0,0.0,0.0,0.0,0.0,0.0,0.0,0.0,0.0,0.0,0.0,0.0,0.0,0.0,0.0,0.0,0.0,0.0,0.0,0.0,0.0,0.0,0.0,0.0,0.0,0.0,0.0,0.0,0.0,0.0,0.0,0.0,0.0,0.0,0.0,0.0,0.0,0.0,0.0,0.0,0.0,0.0,0.0,0.0,0.0,0.0,0.0,0.0,0.0,0.0,0.0,0.0,0.0,0.0,0.0,0.0,0.0,0.0,0.0,0.0,0.0,0.0,0.0,0.0,0.0,0.0,0.0,0.0,0.0,0.0,0.0,0.0,0.0,0.0,0.0,0.0,0.0,0.0,0.0,0.0,0.0,0.0,0.0,0.0,0.0,0.0,0.0,0.0,0.0,0.0,0.0,0.0,0.0,0.0,0.0,0.0,0.0,-5.9281,-6.0515,-6.0184,-5.8033,-5.5904,-5.4399,0.0,0.0,0.0,0.0,0.0,0.0,0.0,0.0,0.0,0.0,0.0,0.0,0.0,0.0,0.0,0.0,0.0,0.0,0.0,0.0,0.0,0.0,0.0,0.0,0.0,0.0,0.0,0.0,0.0,0.0,0.0,0.0,0.0,0.0,0.0,0.0,0.0,0.0,0.0,0.0,0.0,0.0,0.0,0.0,0.0,0.0,0.0,0.0,0.0,0.0,0.0,0.0,0.0,0.0,0.0,0.0,0.0,0.0,0.0,0.0,0.0,0.0,0.0,0.0,0.0,0.0,0.0,0.0,0.0,0.0,0.0,0.0,0.0,0.0,0.0,0.0,0.0,0.0,0.0,0.0,0.0,0.0,0.0,0.0,0.0,0.0,0.0,0.0,0.0,0.0,0.0,0.0,0.0,0.0,0.0,0.0,0.0,0.0,0.0,0.0,0.0,0.0,0.0,0.0,0.0,0.0,0.0,0.0,0.0,-6.2879,-6.3823,-6.3015,-6.0346,-5.8217,-5.6418,-5.5023,0.0,0.0,0.0,0.0,0.0,0.0,0.0,0.0,0.0,0.0,0.0,0.0,0.0,0.0,0.0,0.0,0.0,0.0,0.0,0.0,0.0,0.0,0.0,0.0,0.0,0.0,0.0,0.0,0.0,0.0,0.0,0.0,0.0,0.0,0.0,0.0,0.0,0.0,0.0,0.0,0.0,0.0,0.0,0.0,0.0,0.0,0.0,0.0,0.0,0.0,0.0,0.0,0.0,0.0,0.0,0.0,0.0,0.0,0.0,0.0,0.0,0.0,0.0,0.0,0.0,0.0,0.0,0.0,0.0,0.0,0.0,0.0,0.0,0.0,0.0,0.0,0.0,0.0,0.0,0.0,0.0,0.0,0.0,0.0,0.0,0.0,0.0,0.0,0.0,0.0,0.0,0.0,0.0,0.0,0.0,0.0,0.0,0.0,0.0,0.0,0.0,0.0,0.0,0.0,0.0,0.0,0.0,0.0,-6.9119,-6.9357,-6.7853,-6.442,-6.2622,-6.0566,0.0,0.0,0.0,0.0,0.0,0.0,0.0,0.0,0.0,0.0,0.0,0.0,0.0,0.0,0.0,0.0,0.0,0.0,0.0,0.0,0.0,0.0,0.0,0.0,0.0,0.0,0.0,0.0,0.0,0.0,0.0,0.0,0.0,0.0,0.0,0.0,0.0,0.0,0.0,0.0,0.0,0.0,0.0,0.0,0.0,0.0,0.0,0.0,0.0,0.0,0.0,0.0,0.0,0.0,0.0,0.0,0.0,0.0,0.0,0.0,0.0,0.0,0.0,0.0,0.0,0.0,0.0,0.0,0.0,0.0,0.0,0.0,0.0,0.0,0.0,0.0,0.0,0.0,0.0,0.0,0.0,0.0,0.0,0.0,0.0,0.0,0.0,0.0,0.0,0.0,0.0,0.0,0.0,0.0,0.0,0.0,0.0,0.0,0.0,0.0,0.0,0.0,0.0,0.0,0.0,0.0,0.0,0.0,0.0,-7.2386,-7.5385,-7.3992,-6.7871,-6.4897,-6.1998,0.0,0.0,0.0,0.0,0.0,0.0,0.0,0.0,0.0,0.0,0.0,0.0,0.0,0.0,0.0,0.0,0.0,0.0,0.0,0.0,0.0,0.0,0.0,0.0,0.0,0.0,0.0,0.0,0.0,0.0,0.0,0.0,0.0,0.0,0.0,0.0,0.0,0.0,0.0,0.0,0.0,0.0,0.0,0.0,0.0,0.0,0.0,0.0,0.0,0.0,0.0,0.0,0.0,0.0,0.0,0.0,0.0,0.0,0.0,0.0,0.0,0.0,0.0,0.0,0.0,0.0,0.0,0.0,0.0,0.0,0.0,0.0,0.0,0.0,0.0,0.0,0.0,0.0,0.0,0.0,0.0,0.0,0.0,0.0,0.0,0.0,0.0,0.0,0.0,0.0,0.0,0.0,0.0,0.0,0.0,0.0,0.0,0.0,0.0,0.0,0.0,0.0,0.0,0.0,0.0,0.0,0.0,0.0,-7.0967,-7.4184,-7.8867,-7.85,-7.2569,-6.8678,-6.5081,0.0,0.0,0.0,0.0,0.0,0.0,0.0,0.0,0.0,0.0,0.0,0.0,0.0,0.0,0.0,0.0,0.0,0.0,0.0,0.0,0.0,0.0,0.0,0.0,0.0,0.0,0.0,0.0,0.0,0.0,0.0,0.0,0.0,0.0,0.0,0.0,0.0,0.0,0.0,0.0,0.0,0.0,0.0,0.0,0.0,0.0,0.0,0.0,0.0,0.0,0.0,0.0,0.0,0.0,0.0,0.0,0.0,0.0,0.0,0.0,0.0,0.0,0.0,0.0,0.0,0.0,0.0,0.0,0.0,0.0,0.0,0.0,0.0,0.0,0.0,0.0,0.0,0.0,0.0,0.0,0.0,0.0,0.0,0.0,0.0,0.0,0.0,0.0,0.0,0.0,0.0,0.0,0.0,0.0,0.0,0.0,0.0,0.0,0.0,0.0,0.0,0.0,0.0,0.0,0.0,0.0,0.0,0.0,-7.1833,-7.5102,-8.0507,-8.1461,-7.7635,-7.3046,-6.8972,0.0,0.0,0.0,0.0,0.0,0.0,0.0,0.0,0.0,0.0,0.0,0.0,0.0,0.0,0.0,0.0,0.0,0.0,0.0,0.0,0.0,0.0,0.0,0.0,0.0,0.0,0.0,0.0,0.0,0.0,0.0,0.0,0.0,0.0,0.0,0.0,0.0,0.0,0.0,0.0,0.0,0.0,0.0,0.0,0.0,0.0,0.0,0.0,0.0,0.0,0.0,0.0,0.0,0.0,0.0,0.0,0.0,0.0,0.0,0.0,0.0,0.0,0.0,0.0,0.0,0.0,0.0,0.0,0.0,0.0,0.0,0.0,0.0,0.0,0.0,0.0,0.0,0.0,0.0,0.0,0.0,0.0,0.0,0.0,0.0,0.0,0.0,0.0,0.0,0.0,0.0,0.0,0.0,0.0,0.0,0.0,0.0,0.0,0.0,0.0,0.0,0.0,0.0,0.0,0.0,0.0,0.0,0.0,-7.2886,-7.6717,-8.0534,-8.1452,-7.9286,-7.5763,-7.1468,0.0,0.0,0.0,0.0,0.0,0.0,0.0,0.0,0.0,0.0,0.0,0.0,0.0,0.0,0.0,0.0,0.0,0.0,0.0,0.0,0.0,0.0,0.0,0.0,0.0,0.0,0.0,0.0,0.0,0.0,0.0,0.0,0.0,0.0,0.0,0.0,0.0,0.0,0.0,0.0,0.0,0.0,0.0,0.0,0.0,0.0,0.0,0.0,-5.0416,0.0,0.0,0.0,0.0,0.0,0.0,0.0,0.0,0.0,0.0,0.0,0.0,0.0,0.0,0.0,0.0,0.0,0.0,0.0,0.0,0.0,0.0,0.0,0.0,0.0,0.0,0.0,0.0,0.0,0.0,0.0,0.0,0.0,0.0,0.0,0.0,0.0,0.0,0.0,0.0,0.0,0.0,0.0,0.0,0.0,0.0,0.0,0.0,0.0,0.0,0.0,0.0,0.0,0.0,0.0,0.0,0.0,0.0,0.0,-7.4811,-7.8369,-8.1672,-8.2553,-8.0938,-7.915,-7.5202,0.0,0.0,0.0,0.0,0.0,0.0,0.0,0.0,0.0,0.0,0.0,0.0,0.0,0.0,0.0,0.0,0.0,0.0,0.0,0.0,0.0,0.0,0.0,0.0,0.0,0.0,0.0,0.0,0.0,0.0,0.0,0.0,0.0,0.0,0.0,0.0,0.0,0.0,0.0,0.0,0.0,0.0,0.0,0.0,0.0,0.0,0.0,0.0,0.0,0.0,0.0,0.0,0.0,0.0,0.0,0.0,0.0,0.0,0.0,0.0,0.0,0.0,0.0,0.0,0.0,0.0,0.0,0.0,0.0,0.0,0.0,0.0,0.0,0.0,0.0,0.0,0.0,0.0,0.0,0.0,0.0,0.0,0.0,0.0,0.0,0.0,0.0,0.0,0.0,0.0,0.0,0.0,0.0,0.0,0.0,0.0,0.0,0.0,0.0,0.0,0.0,0.0,0.0,0.0,0.0,0.0,0.0,-7.2297,-7.6712,-8.0121,-8.2847,-8.3508,-8.1974,-8.1439,-7.7843,-7.0883,0.0,0.0,0.0,0.0,0.0,0.0,0.0,0.0,0.0,0.0,0.0,0.0,0.0,0.0,0.0,0.0,0.0,0.0,0.0,0.0,0.0,0.0,0.0,0.0,0.0,0.0,0.0,0.0,0.0,0.0,0.0,0.0,0.0,0.0,0.0,0.0,0.0,0.0,-4.5152,-4.7636,0.0,0.0,0.0,0.0,0.0,0.0,0.0,0.0,-4.7704,0.0,0.0,0.0,0.0,0.0,0.0,0.0,0.0,0.0,0.0,0.0,0.0,0.0,0.0,0.0,0.0,0.0,0.0,0.0,0.0,0.0,0.0,0.0,0.0,0.0,0.0,0.0,0.0,0.0,0.0,0.0,0.0,0.0,0.0,0.0,0.0,0.0,0.0,0.0,0.0,0.0,0.0,0.0,0.0,0.0,0.0,0.0,0.0,0.0,0.0,0.0,0.0,0.0,0.0,0.0,0.0,-6.8458,-7.3382,-7.7831,-8.1672,-8.2296,-8.2047,-8.0963,-7.8922,-7.5389,-7.0329,0.0,0.0,0.0,0.0,0.0,0.0,0.0,0.0,0.0,0.0,0.0,0.0,0.0,0.0,0.0,0.0,0.0,0.0,0.0,0.0,0.0,0.0,0.0,0.0,0.0,0.0,0.0,0.0,0.0,0.0,0.0,0.0,0.0,0.0,0.0,0.0,0.0,0.0,0.0,-4.9458,-5.0949,0.0,0.0,0.0,0.0,0.0,0.0,0.0,0.0,-4.7111,0.0,0.0,0.0,0.0,0.0,0.0,0.0,0.0,0.0,0.0,0.0,0.0,0.0,0.0,0.0,0.0,0.0,0.0,0.0,0.0,0.0,0.0,0.0,0.0,0.0,0.0,0.0,0.0,0.0,0.0,0.0,0.0,0.0,0.0,0.0,0.0,0.0,0.0,0.0,0.0,0.0,0.0,0.0,0.0,0.0,0.0,0.0,0.0,0.0,0.0,0.0,0.0,0.0,0.0,0.0,-7.0073,-7.5238,-7.9425,-8.2531,-8.2513,-8.1678,-7.9961,-7.796,-7.4006,0.0,0.0,0.0,0.0,0.0,0.0,0.0,0.0,0.0,0.0,0.0,0.0,0.0,0.0,0.0,0.0,0.0,0.0,0.0,0.0,0.0,0.0,0.0,0.0,0.0,0.0,0.0,0.0,0.0,0.0,0.0,0.0,0.0,0.0,0.0,0.0,0.0,0.0,0.0,0.0,-5.1347,-5.297,-5.2937,0.0,0.0,0.0,0.0,0.0,0.0,-4.7408,-4.6684,0.0,0.0,0.0,0.0,0.0,0.0,0.0,0.0,0.0,0.0,0.0,0.0,0.0,0.0,0.0,0.0,0.0,0.0,0.0,0.0,0.0,0.0,0.0,0.0,0.0,0.0,0.0,0.0,0.0,0.0,0.0,0.0,0.0,0.0,0.0,0.0,0.0,0.0,0.0,0.0,0.0,0.0,0.0,0.0,0.0,0.0,0.0,0.0,0.0,0.0,0.0,0.0,0.0,0.0,0.0,-7.0971,-7.6591,-8.0546,-8.2659,-8.2458,-8.1332,-7.9281,-7.7073,-7.2726,0.0,0.0,0.0,0.0,0.0,0.0,0.0,0.0,0.0,0.0,0.0,0.0,0.0,0.0,0.0,0.0,0.0,0.0,0.0,0.0,0.0,0.0,0.0,0.0,0.0,0.0,0.0,0.0,0.0,0.0,0.0,0.0,0.0,0.0,0.0,0.0,0.0,0.0,0.0,0.0,0.0,-5.4593,-5.4725,-5.3135,0.0,0.0,0.0,0.0,-4.8495,-4.8164,0.0,0.0,0.0,0.0,0.0,0.0,0.0,0.0,0.0,0.0,0.0,0.0,0.0,0.0,0.0,0.0,0.0,0.0,0.0,0.0,0.0,0.0,0.0,0.0,0.0,0.0,0.0,0.0,0.0,0.0,0.0,0.0,0.0,0.0,0.0,0.0,0.0,0.0,0.0,0.0,0.0,0.0,0.0,0.0,0.0,0.0,0.0,0.0,0.0,0.0,0.0,0.0,0.0,0.0,0.0,0.0,-6.9958,-7.6287,-8.0246,-8.1683,-8.1068,-8.0162,-7.9008,-7.5406,-7.0744,0.0,0.0,0.0,0.0,0.0,0.0,0.0,0.0,0.0,0.0,0.0,0.0,0.0,0.0,0.0,0.0,0.0,0.0,0.0,0.0,0.0,0.0,0.0,0.0,0.0,0.0,0.0,0.0,0.0,0.0,0.0,0.0,0.0,0.0,0.0,0.0,0.0,0.0,0.0,0.0,0.0,-5.4759,-5.5388,-5.4725,-5.393,0.0,0.0,-5.146,-5.1454,-5.1696,0.0,0.0,0.0,0.0,0.0,0.0,0.0,0.0,0.0,0.0,0.0,0.0,0.0,0.0,0.0,0.0,0.0,0.0,0.0,0.0,0.0,0.0,0.0,0.0,0.0,0.0,0.0,0.0,0.0,0.0,0.0,0.0,0.0,0.0,0.0,0.0,0.0,0.0,0.0,0.0,0.0,0.0,0.0,0.0,0.0,0.0,0.0,0.0,0.0,0.0,0.0,0.0,0.0,0.0,0.0,-6.3429,-6.9003,-7.4832,-7.8595,-8.0021,-7.9194,-7.7928,-7.6155,-7.3144,-6.8739,0.0,0.0,0.0,0.0,0.0,0.0,0.0,0.0,0.0,0.0,0.0,0.0,0.0,0.0,0.0,0.0,0.0,0.0,0.0,0.0,0.0,0.0,0.0,0.0,0.0,0.0,0.0,0.0,0.0,0.0,0.0,0.0,0.0,0.0,0.0,0.0,0.0,0.0,0.0,0.0,0.0,0.0,-5.6746,-5.6945,0.0,0.0,0.0,-5.4963,-5.4731,0.0,0.0,0.0,0.0,0.0,0.0,0.0,0.0,0.0,0.0,0.0,0.0,0.0,0.0,0.0,0.0,0.0,0.0,0.0,0.0,0.0,0.0,0.0,0.0,0.0,0.0,0.0,0.0,0.0,0.0,0.0,0.0,0.0,0.0,0.0,0.0,0.0,0.0,0.0,0.0,0.0,0.0,0.0,0.0,0.0,0.0,0.0,0.0,0.0,0.0,0.0,0.0,0.0,0.0,0.0,0.0,0.0,-6.7992,-7.3697,-7.7195,-7.8255,-7.7575,-7.6239,-7.4247,-7.1531,0.0,0.0,0.0,0.0,0.0,0.0,0.0,0.0,0.0,0.0,0.0,0.0,0.0,0.0,0.0,0.0,0.0,0.0,0.0,0.0,0.0,0.0,0.0,0.0,0.0,0.0,0.0,-3.8791,0.0,0.0,0.0,0.0,0.0,0.0,0.0,0.0,0.0,0.0,0.0,0.0,0.0,0.0,-5.6945,-5.7707,-5.8734,-5.9117,0.0,0.0,-5.797,-5.7395,-5.7474,-5.6579,0.0,0.0,0.0,0.0,0.0,0.0,0.0,0.0,0.0,0.0,0.0,0.0,0.0,0.0,0.0,0.0,0.0,0.0,0.0,0.0,0.0,0.0,0.0,0.0,0.0,0.0,0.0,0.0,0.0,0.0,0.0,0.0,0.0,0.0,0.0,0.0,0.0,0.0,0.0,0.0,0.0,0.0,0.0,0.0,0.0,0.0,0.0,0.0,0.0,0.0,0.0,0.0,0.0,0.0,0.0,-6.7019,-7.3343,-7.6548,-7.6523,-7.6384,-7.5949,-7.5008,-7.1277,-6.6728,0.0,0.0,0.0,0.0,0.0,0.0,0.0,0.0,0.0,0.0,0.0,0.0,0.0,0.0,0.0,0.0,0.0,0.0,0.0,0.0,0.0,0.0,0.0,0.0,0.0,0.0,0.0,0.0,0.0,0.0,0.0,0.0,0.0,0.0,0.0,0.0,0.0,0.0,0.0,0.0,0.0,-5.6945,-5.7674,-5.9595,-6.0605,0.0,-5.9807,-5.9834,-5.8958,-5.9242,-5.8097,-5.3984,0.0,0.0,0.0,0.0,0.0,0.0,0.0,0.0,0.0,0.0,0.0,0.0,0.0,0.0,0.0,0.0,0.0,0.0,0.0,0.0,0.0,0.0,0.0,0.0,0.0,0.0,0.0,0.0,0.0,0.0,0.0,0.0,0.0,0.0,0.0,0.0,0.0,0.0,0.0,0.0,0.0,0.0,0.0,0.0,0.0,0.0,0.0,0.0,0.0,0.0,0.0,0.0,0.0,-5.9335,-6.6069,-7.1475,-7.4385,-7.479,-7.4826,-7.4211,-7.2907,-7.048,-6.6656,0.0,0.0,0.0,0.0,0.0,0.0,0.0,0.0,0.0,0.0,0.0,0.0,0.0,0.0,0.0,0.0,0.0,0.0,0.0,0.0,0.0,0.0,0.0,0.0,0.0,0.0,0.0,0.0,-4.0448,-4.058,-4.0613,0.0,0.0,0.0,0.0,0.0,0.0,0.0,0.0,0.0,0.0,-5.8469,-5.9661,-6.208,0.0,0.0,-6.1917,-6.197,-6.0899,-6.0105,-5.8668,-5.5729,-5.2068,0.0,0.0,0.0,0.0,0.0,0.0,0.0,0.0,0.0,0.0,0.0,0.0,0.0,0.0,0.0,0.0,0.0,0.0,0.0,0.0,0.0,0.0,0.0,0.0,0.0,0.0,0.0,0.0,0.0,0.0,0.0,0.0,0.0,0.0,0.0,0.0,0.0,0.0,0.0,0.0,0.0,0.0,0.0,0.0,0.0,0.0,0.0,0.0,0.0,0.0,0.0,0.0,-5.8058,-6.5192,-6.9937,-7.2726,-7.3523,-7.3559,-7.2907,-7.1531,-6.9973,-6.6753,0.0,0.0,0.0,0.0,0.0,0.0,0.0,0.0,0.0,0.0,0.0,0.0,0.0,0.0,0.0,0.0,0.0,0.0,0.0,0.0,0.0,0.0,0.0,0.0,0.0,0.0,0.0,0.0,-4.1872,-4.1683,-4.1683,0.0,0.0,0.0,0.0,0.0,0.0,0.0,0.0,0.0,0.0,-5.958,-6.087,-6.3396,-6.4605,-6.3064,-6.34,-6.3349,-6.2042,-6.0623,-5.8991,-5.6829,0.0,0.0,0.0,0.0,0.0,0.0,0.0,0.0,0.0,0.0,0.0,0.0,0.0,0.0,0.0,0.0,0.0,0.0,0.0,0.0,0.0,0.0,0.0,0.0,0.0,0.0,0.0,-5.2492,0.0,0.0,-5.2482,0.0,0.0,0.0,0.0,0.0,0.0,0.0,0.0,0.0,0.0,0.0,0.0,0.0,0.0,0.0,0.0,0.0,0.0,0.0,0.0,0.0,0.0,-5.7261,-6.4323,-6.9104,-7.1929,-7.269,-7.2726,-7.2364,-7.1458,-6.9973,-6.6716,-6.1422,0.0,0.0,0.0,0.0,0.0,0.0,0.0,0.0,0.0,0.0,0.0,0.0,0.0,0.0,0.0,0.0,0.0,0.0,0.0,0.0,0.0,0.0,0.0,0.0,0.0,0.0,-4.3495,-4.2932,-4.2411,0.0,0.0,0.0,0.0,0.0,0.0,0.0,0.0,0.0,0.0,-5.702,-5.9861,-6.0652,-6.3045,-6.4348,-6.3323,-6.3812,-6.3687,-6.2016,-6.0591,-5.8917,0.0,0.0,0.0,0.0,0.0,0.0,0.0,0.0,0.0,0.0,0.0,0.0,0.0,0.0,0.0,0.0,0.0,0.0,0.0,0.0,0.0,0.0,0.0,0.0,0.0,0.0,0.0,-5.5726,-5.6124,0.0,0.0,0.0,0.0,0.0,0.0,0.0,0.0,0.0,0.0,0.0,-5.9538,-5.851,0.0,0.0,0.0,0.0,0.0,0.0,0.0,0.0,0.0,0.0,0.0,0.0,-5.6428,-6.3418,-6.8307,-7.0915,-7.1168,-7.2183,-7.182,-7.0009,-6.8959,-6.4946,-5.7676,0.0,0.0,0.0,0.0,0.0,0.0,0.0,0.0,0.0,0.0,0.0,0.0,0.0,0.0,0.0,0.0,0.0,0.0,0.0,0.0,0.0,0.0,0.0,0.0,0.0,-4.4059,0.0,0.0,0.0,0.0,0.0,0.0,0.0,0.0,0.0,0.0,0.0,-5.1541,-5.427,-5.8774,-6.1817,-6.1994,-6.3973,-6.5068,0.0,0.0,0.0,0.0,0.0,0.0,0.0,0.0,0.0,0.0,0.0,0.0,0.0,0.0,-5.8453,-5.677,-5.5118,-5.3693,-5.2754,0.0,0.0,0.0,0.0,0.0,0.0,0.0,0.0,0.0,0.0,0.0,0.0,0.0,0.0,-5.9408,0.0,-5.8732,0.0,0.0,0.0,0.0,0.0,0.0,0.0,0.0,-6.4383,-6.5191,-6.409,-6.3025,-6.2401,0.0,-6.0896,-5.8139,0.0,0.0,0.0,0.0,0.0,0.0,0.0,0.0,-5.6573,-6.3056,-6.7655,-7.0082,-7.0408,-7.1386,-7.1024,-6.9151,-6.7089,-6.2997,-5.6616,-5.3779,-5.0559,0.0,0.0,0.0,0.0,0.0,0.0,0.0,0.0,0.0,0.0,0.0,0.0,0.0,0.0,0.0,0.0,0.0,0.0,0.0,0.0,0.0,0.0,0.0,-4.5251,0.0,0.0,0.0,0.0,0.0,0.0,0.0,0.0,0.0,-4.7969,-5.1107,-5.4179,-5.6171,-6.0022,-6.2573,-6.2484,0.0,0.0,0.0,0.0,0.0,0.0,0.0,-5.7968,-5.7066,-5.5977,-5.5564,-5.6757,-5.8684,-6.0656,-6.2275,0.0,0.0,-6.1627,-6.0073,-5.8874,-5.8162,-5.8046,-5.813,-5.8669,-5.9942,-6.1367,0.0,0.0,0.0,0.0,0.0,0.0,0.0,0.0,-6.2606,-6.355,0.0,-6.1728,0.0,0.0,0.0,0.0,-5.6651,-6.0056,0.0,0.0,-6.776,-6.8935,-6.8752,-6.7247,-6.6916,-6.754,-6.5693,-6.403,-6.2113,-5.5275,0.0,0.0,0.0,0.0,0.0,0.0,-5.7695,-6.3164,-6.7148,-6.9502,-7.0263,-7.0335,-6.9875,-6.8713,-6.4624,-6.1116,-5.8403,-5.5824,-5.2844,-4.9458,-4.7657,0.0,0.0,0.0,0.0,0.0,0.0,0.0,0.0,0.0,0.0,0.0,0.0,0.0,0.0,0.0,0.0,0.0,0.0,0.0,0.0,-4.6079,0.0,0.0,0.0,0.0,0.0,0.0,0.0,0.0,0.0,0.0,-5.2638,-5.427,-5.6303,-5.8411,0.0,0.0,0.0,0.0,-6.4024,-6.4056,-6.4024,-6.3505,-6.2016,-6.0623,-5.9707,-5.9642,0.0,0.0,-6.166,-6.2599,-6.3311,-6.4024,-6.4768,-6.5351,-6.5967,-6.4801,-6.3732,-6.3052,-6.2858,-6.3441,-6.4768,-6.5805,-6.7294,-6.7528,0.0,0.0,0.0,0.0,-6.462,-6.5635,-6.703,-6.703,-6.7959,-6.9391,-6.6701,0.0,0.0,0.0,0.0,0.0,0.0,-6.4383,-6.6256,-6.8641,-6.9743,-6.9706,-6.8715,-6.8,-6.7488,-6.5913,-6.44,-6.3056,-5.9874,-5.6152,-5.2073,0.0,0.0,0.0,0.0,-5.8999,-6.3889,-6.6895,-6.8452,-6.8706,-6.9249,-6.8667,-6.6765,-6.4108,-6.1707,-5.9558,-5.7989,-5.5375,-5.1533,-5.031,0.0,0.0,0.0,0.0,0.0,0.0,0.0,0.0,0.0,0.0,0.0,0.0,0.0,0.0,0.0,0.0,0.0,0.0,0.0,-4.6742,-4.7934,-4.8067,0.0,0.0,0.0,0.0,0.0,0.0,0.0,0.0,0.0,-5.7272,-5.8444,-5.9431,0.0,0.0,-6.3622,-6.3469,-6.3764,-6.4185,-6.4671,-6.4347,0.0,-6.2048,-6.1044,-6.0485,-6.0522,-6.1957,-6.3933,-6.6064,-6.655,-6.6744,-6.6938,-6.7165,-6.7359,-6.7456,-6.6452,-6.5675,-6.5869,-6.5967,-6.6226,-6.71,-6.8039,-6.8946,-7.2849,-6.9832,-6.8312,-6.813,-6.8967,-6.9649,-7.0937,-7.2497,-7.2497,-7.3441,-7.4834,-7.1994,-6.9823,-6.8095,-6.5421,0.0,0.0,0.0,-6.6366,-6.8017,-6.9743,-7.0734,-7.0991,-7.0494,-6.9961,-6.9336,-6.7651,-6.6279,-6.5274,-6.3947,-6.1642,-5.8413,0.0,0.0,-5.7369,-5.8565,-6.0991,-6.4794,-6.7583,-6.8862,-6.8801,-6.8435,-6.7275,-6.5409,-6.3211,-6.13,-5.9683,-5.8553,-5.656,-5.3479,-5.2283,-5.0051,0.0,0.0,0.0,0.0,0.0,0.0,0.0,0.0,0.0,0.0,0.0,-3.697,-3.7698,0.0,0.0,0.0,-4.2634,-4.5384,-4.8199,-4.9127,0.0,0.0,0.0,0.0,0.0,0.0,0.0,-5.3948,-5.5797,-5.774,-6.0299,-6.1316,-6.1633,-6.1532,-6.3069,-6.4146,-6.4024,0.0,-6.4574,-6.4963,-6.4671,-6.3894,-6.2469,-6.1886,-6.1847,-6.2393,-6.435,-6.6287,-6.791,-6.8201,-6.8201,-6.8201,-6.8201,-6.8201,-6.8201,-6.7489,-6.7165,-6.7845,-6.8007,-6.8331,-6.927,-7.0047,-7.0759,-7.6748,-7.5791,-7.3461,-7.2816,-7.3437,-7.4927,-7.657,-7.8175,-7.8099,-7.9014,-8.0348,-7.7141,-7.4775,-7.2872,-6.8033,0.0,-6.6526,-6.7546,-6.8788,-7.022,-7.1027,-7.1835,-7.2548,-7.2358,-7.2299,-7.2167,-7.0324,-6.8945,-6.8146,-6.728,-6.6496,-6.5663,-6.0629,-5.8782,-6.0267,-6.1716,-6.3526,-6.5881,-6.8778,-7.0165,-6.9805,-6.7719,-6.5884,-6.4391,-6.195,-6.0046,-5.8944,-5.8119,-5.6987,-5.528,-5.3881,-5.217,-4.9966,0.0,0.0,0.0,0.0,0.0,0.0,0.0,0.0,0.0,0.0,0.0,0.0,0.0,0.0,0.0,-4.492,0.0,-4.9226,-5.0088,0.0,0.0,0.0,-4.9359,-5.1413,-5.2307,-5.4055,-5.7258,0.0,0.0,-6.2053,-6.2932,-6.316,-6.2476,-6.3274,-6.4024,-6.4088,-6.4606,-6.5027,-6.5125,-6.5125,-6.4639,-6.3505,-6.3214,-6.3635,-6.4866,-6.629,-6.7359,-6.8039,-6.8201,-6.8201,-6.8201,-6.8201,-6.8201,-6.8201,-6.8136,-6.8395,-6.8978,-6.9173,-6.9658,-7.0824,-7.1601,-7.2184,-7.9583,-7.9282,-7.8708,-7.7411,-7.5883,-7.6227,-7.7755,-7.9818,-7.9245,-7.9931,-8.1306,-7.8596,-7.6311,-7.4218,-7.1341,-7.0247,-7.061,-7.0531,-7.066,-7.1064,-7.1835,-7.2621,-7.3237,-7.2592,-7.2181,-7.1794,-7.0205,-6.8922,-6.8077,-6.78,-6.7619,-6.7366,-6.6098,-6.5627,-6.5989,-6.5772,-6.6533,-6.8307,-6.9068,-6.8894,-6.764,-6.6057,-6.4216,-6.2056,-6.0632,-5.935,-5.8205,-5.8506,-5.7887,-5.6288,-5.606,-5.4703,-5.1945,-4.9163,0.0,0.0,0.0,0.0,0.0,0.0,0.0,0.0,0.0,-3.846,-4.0249,0.0,-4.1342,0.0,-4.6444,-4.9425,-5.1413,-5.2738,0.0,0.0,-5.3069,-5.34,-5.446,-5.5567,-5.6929,-5.8873,-6.0541,-6.1914,-6.2867,-6.3464,-6.3793,-6.3631,-6.3764,-6.4218,-6.4704,-6.4898,-6.5222,-6.5708,-6.5837,-6.574,-6.5351,-6.5351,-6.561,-6.6517,-6.6971,-6.7424,-6.8104,-6.8201,-6.8201,-6.8201,-6.8201,-6.8201,-6.8169,-6.8201,-6.8234,-6.846,-6.8881,-6.9561,-7.0468,-7.0792,-7.1116,-8.0505,-8.0506,-8.0506,-7.9665,-7.8404,-7.8787,-7.978,-8.1003,-8.0582,-8.0926,-8.1652,-7.9551,-7.7837,-7.6411,-7.4538,-7.3725,-7.3707,-7.2779,-7.2386,-7.2386,-7.2401,-7.2761,-7.347,-7.2851,-7.251,-7.2289,-7.0992,-6.9733,-6.8597,-6.8887,-6.8887,-6.8561,-6.9249,-6.9575,-6.9502,-6.8416,-6.8488,-6.9684,-6.9498,-6.8802,-6.7674,-6.5263,-6.3171,-6.1521,-5.986,-5.8443,-5.7442,-5.8045,-5.7836,-5.6578,-5.6583,-5.5646,-5.3449,-5.06,-4.7452,0.0,0.0,0.0,0.0,0.0,0.0,0.0,0.0,0.0,0.0,0.0,-4.4622,-4.6411,-4.8995,-5.1313,-5.3169,-5.4924,-5.5984,-5.5984,-5.6581,-5.7165,-5.7813,-5.8708,-5.9876,-6.1066,-6.2133,-6.2874,-6.3464,-6.3858,-6.4024,-6.4024,-6.4024,-6.425,-6.4898,-6.5287,-6.5675,-6.6064,-6.6388,-6.6452,-6.6161,-6.6388,-6.6711,-6.71,-6.7456,-6.778,-6.8136,-6.8201,-6.8201,-6.8201,-6.8201,-6.8104,-6.7845,-6.8007,-6.8104,-6.791,-6.8298,-6.8914,-6.9335,-6.9691,-7.0047,-8.0506,-8.0506,-8.0506,-8.0506,-8.0582,-8.1308,-8.169,-8.1805,-8.169,-8.1614,-8.1499,-8.0049,-7.9129,-7.8642,-7.7354,-7.6443,-7.5845,-7.4474,-7.378,-7.3634,-7.2724,-7.2702,-7.341,-7.2995,-7.2907,-7.2917,-7.1956,-7.077,-6.9394,-7.0154,-7.0118,-6.943,-7.077,-7.1494,-7.1458,-7.0154,-6.9756,-7.0372,-6.9829,-6.9122,-6.815,-6.4743,-6.2433,-6.136,-5.9094,-5.7416,-5.6562,-5.692,-5.6881,-5.6203,-5.609,-5.5554,-5.4527,-5.1631,-4.8568,0.0,-4.3452,0.0,0.0,0.0,0.0,0.0,0.0,0.0,0.0,-4.6808,-4.8498,-5.0585,-5.2009,-5.3367,-5.4792,-5.6912,-5.8237,-5.827,-5.9529,-6.0572,-6.0948,-6.1554,-6.2333,-6.316,-6.3356,-6.3529,-6.3894,-6.4024,-6.4024,-6.4024,-6.4024,-6.4218,-6.4801,-6.5448,-6.5869,-6.5967,-6.6582,-6.6711,-6.642,-6.6679,-6.7003,-6.7197,-6.7456,-6.7974,-6.8007,-6.7942,-6.791,-6.7877,-6.7813,-6.7683,-6.7132,-6.7521,-6.7683,-6.7165,-6.7521,-6.7974,-6.8266,-6.8752,-6.914,-8.0506,-8.0506,-8.0506,-8.0506,-8.0506,-8.0659,-8.1156,-8.1767,-8.1041,-8.0736,-8.0621,-8.0235,-7.9756,-7.9207,-7.8491,-7.7617,-7.6533,-7.5264,-7.4331,-7.367,-7.2688,-7.2642,-7.3216,-7.2387,-7.2299,-7.2653,-7.1893,-7.1033,-7.0175,-7.0888,-7.0915,-7.0191,-7.106,-7.1494,-7.1494,0.0,0.0,0.0,-6.9692,-6.8133,-6.5545,-6.3581,-6.1331,-5.8739,-5.704,0.0,-5.4831,-5.4861,-5.4686,-5.43,-5.4762,0.0,0.0,0.0,0.0,0.0,0.0,0.0,0.0,0.0,0.0,0.0,-5.128,-5.0982,-5.0121,-5.085,-5.2009,-5.3566,-5.4494,-5.562,-5.7044,-5.9164,-6.049,-6.0523,-6.1612,-6.2365,-6.2529,-6.2769,-6.3121,-6.3258,-6.3627,-6.3862,-6.3991,-6.4024,-6.4024,-6.4024,-6.4024,-6.4056,-6.4185,-6.4833,-6.5222,-6.5287,-6.5934,-6.6485,-6.6938,-6.6614,-6.6582,-6.6971,-6.6744,-6.6776,-6.723,-6.6906,-6.655,-6.655,-6.6485,-6.6517,-6.6323,-6.642,-6.655,-6.6355,-6.642,-6.6841,-6.7942,-6.8298,-6.8557,-8.0658,-8.0354,-8.0354,-8.0582,0.0,-8.0847,-8.1301,-8.1984,-8.0965,-8.0431,-8.0313,-8.0064,-7.9683,-7.915,-7.8611,-7.7942,-7.7271,-7.6052,-7.5065,-7.4294,-7.3653,-7.3471,-7.3775,-7.3161,-7.3007,-7.3269,-7.2509,-7.1531,-7.049,-7.1168,-7.1132,-7.0408,-7.1132,-7.1494,-7.1494,-7.0906,-7.0482,-7.0085,-6.903,-6.7153,-6.4428,-6.2675,-6.0711,-5.849,-5.6964,0.0,0.0,0.0,0.0,0.0,0.0,0.0,0.0,0.0,0.0,-4.9756,-4.8895,-4.8166,-4.757,-4.9094,-5.1247,-5.3765,-5.5322,-5.5521,-5.4063,-5.3964,-5.4593,-5.6017,-5.7144,-5.8237,-5.9363,-6.1086,-6.2179,-6.2042,-6.288,-6.3364,-6.3129,-6.3538,-6.3719,-6.3659,-6.3891,-6.4024,-6.4024,-6.4024,-6.4024,-6.4024,-6.4024,-6.4024,-6.4088,-6.4606,-6.5092,-6.5481,-6.5837,-6.6226,-6.655,-6.6388,-6.6193,-6.6517,-6.6355,-6.629,-6.6582,-6.6355,-6.6096,-6.6096,-6.6096,-6.6031,-6.5675,-6.5869,-6.5999,-6.5708,-6.5869,-6.6258,-6.7068,-6.7456,-6.791,-8.071,-8.0154,-8.0307,-8.0722,-8.1292,-8.1317,-8.1521,-8.1847,0.0,0.0,0.0,-7.9803,-7.9321,-7.8854,-7.8292,-7.7866,-7.7467,-7.636,-7.5469,-7.4639,-7.4336,-7.4212,-7.415,-7.3833,-7.3704,-7.3631,-7.2871,-7.1857,-7.0661,-7.1205,-7.1205,-7.0698,-7.1205,-7.1494,-7.1458,-7.0318,-6.9656,-6.9346,-6.8016,-6.6173,-6.3867,-6.1947,-6.0271,-5.8754,-5.7156,-5.59,-5.5161,-5.4768,-5.4622,-5.4549,-5.5098,-5.5487,-5.5587,-5.5057,-5.3964,-5.2407,-5.2241,-5.2042,-5.1612,-5.3202,-5.4825,-5.6282,-5.8303,-5.88,-5.721,-5.6647,-5.6945,-5.827,-5.9595,-6.0688,-6.1417,-6.2676,-6.3297,-6.3122,-6.366,-6.3908,-6.3453,-6.3849,-6.4114,-6.4024,-6.3991,-6.4024,-6.4024,-6.4024,-6.4024,-6.4024,-6.4024,-6.4024,-6.4088,-6.4477,-6.5027,-6.5643,-6.5643,-6.5708,-6.5869,-6.574,-6.5805,-6.5869,-6.5805,-6.5805,-6.5999,-6.5902,-6.5805,-6.5837,-6.5837,-6.5448,-6.5027,-6.5254,-6.5513,-6.4963,-6.5319,-6.5772,-6.5934,-6.6388,-6.6936,-8.0326,-7.9827,-8.0623,-8.1003,-8.0997,-8.149,-8.1215,-8.0467,-8.0825,-8.0877,-8.0574,-7.9537,-7.8891,-7.8437,-7.8034,-7.7356,-7.6575,-7.5492,-7.4602,-7.3653,-7.3471,-7.3312,-7.3161,-7.2971,-7.2898,-7.2817,-7.2101,-7.1567,-7.1386,-7.1458,-7.1422,-7.135,-7.1458,-7.1494,-7.1395,-7.0289,-6.9077,-6.7927,-6.6652,-6.4946,-6.2675,-6.1418,-5.9814,-5.783,-5.6376,-5.5089,-5.3961,-5.3923,-5.3817,-5.3672,-5.4262,-5.4957,-5.5587,-5.5554,-5.562,-5.5885,-5.5918,-5.615,-5.6647,-5.7044,-5.7806,-5.9297,-6.0821,-6.0821,-5.8833,-5.9065,-5.9728,-6.0589,-6.1384,-6.2179,-6.2908,-6.3529,-6.3847,-6.3824,-6.4112,-6.4262,-6.4137,-6.4081,-6.3991,-6.4024,-6.4024,-6.4024,-6.4024,-6.4024,-6.4024,-6.4024,-6.4024,-6.4024,-6.4024,-6.4088,-6.4445,-6.4898,-6.4671,-6.4606,-6.4995,-6.4671,-6.4671,-6.5092,-6.4768,-6.4898,-6.5869,-6.5222,-6.4801,-6.5092,-6.4833,-6.4412,-6.4218,-6.4218,-6.438,-6.425,-6.4412,-6.4606,-6.4964,-6.5158,-6.5545,-8.1169,-8.0773,-8.115,-8.1565,-8.1931,-8.2354,-8.2199,-8.1717,-8.1574,-8.0793,-7.9517,-7.885,-7.8383,-7.7997,-7.7245,-7.664,-7.6213,-7.5666,-7.4958,-7.4238,-7.4796,-7.4788,-7.4324,-7.4095,-7.3776,-7.3305,-7.2545,-7.1929,-7.1531,-7.1494,-7.1494,-7.1494,-7.1494,-7.1494,-7.1359,-6.9692,-6.8311,-6.727,-6.611,-6.4391,-6.2135,-6.1325,-6.03,-5.8833,-5.7532,-5.6404,-5.5521,-5.5339,-5.5298,-5.5189,-5.5918,-5.6614,-5.7342,-5.7409,-5.7541,-5.7839,-5.7873,-5.8038,-5.8369,-5.8767,-5.9628,-6.1053,-6.1781,-6.1947,-6.1351,-6.1583,-6.1914,-6.2278,-6.2941,-6.3504,-6.3694,-6.4266,-6.4515,-6.4211,-6.423,-6.424,-6.4179,-6.4085,-6.4024,-6.4024,-6.4024,-6.4024,-6.4024,-6.4024,-6.4024,-6.4024,-6.4024,-6.4024,-6.4024,-6.4024,-6.4121,-6.438,-6.4218,-6.4185,-6.4412,-6.425,-6.4153,-6.4445,-6.4542,-6.4801,-6.5448,-6.4866,-6.4768,-6.4898,-6.4477,-6.4088,-6.4024,-6.4024,-6.4024,-6.3991,-6.3897,-6.3996,-6.4126,-6.4159,-6.4409,-8.1791,-8.1312,-8.1537,-8.2008,-8.2648,-8.2437,-8.2422,-8.2534,-8.1756,-8.0427,-7.8945,-7.8443,-7.8068,-7.7688,-7.6581,-7.613,-7.6093,-7.5764,-7.5263,-7.4799,-7.5798,-7.5996,-7.5386,-7.5182,-7.476,-7.4109,-7.3197,-7.2364,-7.1784,-7.1567,-7.1494,-7.1494,-7.1431,-7.1359,-7.1078,-6.903,-6.7543,-6.6601,-6.543,-6.3796,-6.1919,-6.1379,-6.0725,-5.9879,-5.8875,-5.8086,-5.7443,-5.7255,-5.7177,-5.721,-5.774,-5.8369,-5.9065,-5.9131,-5.9297,-5.9562,-5.9496,-5.9396,-5.9429,-6.0092,-6.0986,-6.2047,-6.2477,-6.2908,-6.3438,-6.367,-6.3703,-6.3637,-6.4133,-6.4509,-6.4308,-6.4647,-6.4793,-6.4333,-6.424,-6.4179,-6.3991,-6.4024,-6.4024,-6.4024,-6.4024,-6.4024,-6.4024,-6.4024,-6.4024,-6.4024,-6.4024,-6.4024,-6.4024,-6.4024,-6.4024,-6.4024,-6.4024,-6.4024,-6.4024,-6.4024,-6.4088,-6.4185,-6.4671,-6.5157,-6.5384,-6.5384,-6.5157,-6.5157,-6.4574,-6.4121,-6.4024,-6.4024,-6.4024,-6.4024,-6.3802,-6.358,-6.3357,-6.3313,-6.3457,-8.12,-8.0897,-8.1566,-8.2171,-8.2486,-8.0898,-8.0662,-8.1139,-8.0367,-7.9926,-7.9621,-7.9164,-7.8463,-7.7547,-7.6557,-7.613,-7.6056,-7.5178,-7.4726,-7.4577,-7.5152,-7.5422,-7.5152,-7.5152,-7.5044,-7.4754,-7.345,-7.2717,-7.2491,-7.1847,-7.1494,-7.1494,-7.1404,-7.0815,-6.9901,-6.8413,-6.6883,-6.5473,-6.3933,-6.2727,-6.1975,-6.1274,-6.0698,-6.0265,-5.9485,-5.9006,-5.8714,-5.8701,-5.8701,-5.8701,-5.8767,-5.9131,-5.9794,-5.9893,-6.049,-6.1649,-6.1218,-6.0887,-6.092,-6.1583,-6.2013,-6.2245,-6.3405,-6.4133,-6.4233,-6.4796,-6.4929,-6.4564,-6.4929,-6.5171,-6.5,-6.4852,-6.461,-6.4333,-6.4179,-6.3991,-6.4024,-6.4024,-6.4024,-6.4024,-6.4024,-6.4024,-6.4024,-6.4024,-6.4024,-6.4024,-6.4024,-6.4024,-6.4024,-6.4024,-6.4024,-6.4024,-6.4024,-6.4024,-6.4024,-6.4024,-6.4185,-6.4704,-6.4963,-6.5416,-6.5967,-6.5708,-6.5189,-6.5384,-6.4833,-6.3994,-6.3929,-6.4024,-6.3929,-6.3802,-6.3612,-6.3389,-6.2773,-6.2588,-6.2794,-8.1957,-8.1881,-8.2214,-8.2425,-8.236,-8.1581,-8.1379,-8.1636,-8.1379,-8.0975,-8.0498,-8.0257,-7.9474,-7.8162,-7.668,-7.613,-7.6093,-7.5457,-7.5223,-7.5134,-7.5705,-7.5871,-7.5804,-7.5804,-7.5587,-7.505,-7.3957,-7.3152,-7.2636,-7.192,-7.1494,-7.1395,-7.0807,-7.0116,-6.9358,-6.751,-6.5934,-6.4715,-6.3426,-6.2358,-6.1676,-6.135,-6.1102,-6.095,-6.0488,-6.0041,-5.9661,-5.996,-6.0026,-5.9628,-5.996,-6.0357,-6.0622,-6.0655,-6.092,-6.1483,-6.1285,-6.1318,-6.1715,-6.2013,-6.2543,-6.3405,-6.4001,-6.4531,-6.4929,-6.526,-6.5293,-6.5094,-6.526,-6.5246,-6.4885,-6.4793,-6.4518,-6.4179,-6.3991,-6.4024,-6.4024,-6.4024,-6.4024,-6.4024,-6.4024,-6.4024,-6.4024,-6.4024,-6.4024,-6.4024,-6.4024,-6.4024,-6.4024,-6.4024,-6.4024,-6.4024,-6.4024,-6.4024,-6.4024,-6.4024,-6.4153,-6.4412,-6.4768,-6.5416,-6.561,-6.5578,-6.5157,-6.5448,-6.4544,-6.3867,-6.3802,-6.3612,-6.3517,-6.3421,-6.3099,-6.2678,-6.2284,-6.1902,-6.1917,-8.2444,-8.2534,-8.2349,-8.2287,-8.2307,-8.2031,-8.2003,-8.2186,-8.2186,-8.1856,-8.1342,-8.1122,-8.0388,-7.9103,-7.7304,-7.6533,-7.6558,-7.598,-7.568,-7.5871,-7.6191,-7.6275,-7.6275,-7.6275,-7.6022,-7.5375,-7.4362,-7.3342,-7.2454,-7.1847,-7.1494,-7.1323,-7.0318,-6.9424,-6.8667,-6.6637,-6.4978,-6.3844,-6.2872,-6.2043,-6.1465,-6.1351,-6.1302,-6.1334,-6.1169,-6.0854,-6.0357,-6.0821,-6.0854,-6.0357,-6.0821,-6.1119,-6.1119,-6.1119,-6.1119,-6.1152,-6.1318,-6.1616,-6.2146,-6.2345,-6.3007,-6.42,-6.4531,-6.4862,-6.5293,-6.5425,-6.5336,-6.5336,-6.5336,-6.5156,-6.4793,-6.461,-6.4426,-6.4118,-6.4024,-6.4024,-6.4024,-6.4024,-6.4024,-6.4024,-6.4024,-6.4024,-6.4024,-6.4024,-6.4024,-6.4024,-6.4024,-6.4024,-6.4024,-6.4024,-6.4024,-6.4024,-6.4024,-6.4024,-6.4024,-6.4024,-6.4056,-6.4347,-6.4801,-6.5092,-6.5189,-6.5222,-6.5027,-6.5157,-6.4222,-6.3644,-6.3484,-6.3293,-6.3002,-6.2839,-6.2513,-6.2085,-6.1815,-6.1441,-6.1134,-8.2186,-8.2141,-8.1379,-8.159,-8.2113,-8.1452,-8.1525,-8.2186,-8.2186,-8.215,-8.1966,-8.1379,-8.0975,-8.0681,-7.8369,-7.7584,-7.7897,-7.6464,-7.598,-7.6432,-7.6342,-7.6275,-7.6275,-7.6275,-7.6239,-7.5913,-7.4609,-7.3124,-7.1675,-7.1531,-7.1494,-7.1458,-7.0152,-6.8939,-6.7688,-6.5896,-6.4255,-6.2838,-6.211,-6.1628,-6.1383,-6.1202,-6.1119,-6.1119,-6.1119,-6.1053,-6.102,-6.1086,-6.1086,-6.1053,-6.1086,-6.1119,-6.1119,-6.1119,-6.1119,-6.1152,-6.1715,-6.2113,-6.2278,-6.2808,-6.357,-6.4332,-6.4962,-6.5359,-6.5303,-6.5336,-6.5246,-6.5099,-6.5099,-6.5008,-6.4702,-6.4485,-6.424,-6.4024,-6.4024,-6.4024,-6.4024,-6.4024,-6.4024,-6.4024,-6.4024,-6.4024,-6.4024,-6.4024,-6.4024,-6.4024,-6.4024,-6.4024,-6.4024,-6.4024,-6.4024,-6.4024,-6.4024,-6.4024,-6.4024,-6.4024,-6.4283,-6.4509,-6.4704,-6.5092,-6.5448,-6.5578,-6.5222,-6.477,-6.3934,-6.3453,-6.3196,-6.2873,-6.2612,-6.2315,-6.2016,-6.1613,-6.1512,-6.1103,-6.0897,-8.2186,-8.215,-8.1893,-8.1929,-8.215,-8.1893,-8.1929,-8.2186,-8.2186,-8.2186,-8.215,-8.1893,-8.1681,-8.1439,-7.9535,-7.8547,-7.8199,-7.7356,-7.6898,-7.665,-7.6378,-7.6275,-7.6275,-7.6275,-7.5985,-7.537,-7.4392,-7.3088,-7.1675,-7.1494,-7.1494,-7.1151,-6.9584,-6.8101,-6.6778,-6.4832,-6.3171,-6.1951,-6.1628,-6.1383,-6.1252,-6.1086,-6.1119,-6.1119,-6.1119,-6.1119,-6.1119,-6.1119,-6.1119,-6.1119,-6.1119,-6.1119,-6.1119,-6.1119,-6.1119,-6.1119,-6.1351,-6.1881,-6.2775,-6.3107,-6.3802,-6.4895,-6.5114,-6.5156,-6.5189,-6.5066,-6.4885,-6.4793,-6.4702,-6.4518,-6.4518,-6.4333,-6.424,-6.3991,-6.4024,-6.4024,-6.4024,-6.4024,-6.4024,-6.4024,-6.4024,-6.4024,-6.4024,-6.4024,-6.4024,-6.4024,-6.4024,-6.4024,-6.4024,-6.4024,-6.4024,-6.4024,-6.4024,-6.4024,-6.4024,-6.4024,-6.4121,-6.4123,-6.4285,-6.419,-6.432,-6.432,-6.3934,-6.387,-6.3389,-6.3034,-6.2678,-6.2284,-6.2016,-6.1784,-6.1481,-6.1308,-6.1206,-6.1,-6.0794,-8.2186,-8.2186,-8.2186,-8.2186,-8.2186,-8.2186,-8.2186,-8.2186,-8.2186,-8.2186,-8.2186,-8.2121,-8.2055,-8.1666,-8.0363,-7.9274,-7.8471,-7.7801,-7.7123,-7.6548,-7.6378,-7.6275,-7.6239,-7.6022,-7.5623,-7.5001,-7.4022,-7.2762,-7.1639,-7.1494,-7.1431,-7.1295,-6.9353,-6.7758,-6.6386,-6.4427,-6.2707,-6.1695,-6.1334,-6.1252,-6.1119,-6.1119,-6.1119,-6.1119,-6.1119,-6.1119,-6.1119,-6.1119,-6.1119,-6.1119,-6.1119,-6.1119,-6.1119,-6.1119,-6.1119,-6.1119,-6.1351,-6.198,-6.3073,-6.3504,-6.4167,-6.5204,-6.5189,-6.5099,-6.5008,-6.4793,-6.4702,-6.461,-6.4426,-6.4333,-6.424,-6.4146,-6.4179,-6.4024,-6.4024,-6.4024,-6.4024,-6.4024,-6.4024,-6.4024,-6.4024,-6.4024,-6.4024,-6.4024,-6.4024,-6.4024,-6.4024,-6.4024,-6.4024,-6.4024,-6.4024,-6.4024,-6.4024,-6.4024,-6.4024,-6.4024,-6.4024,-6.3994,-6.3931,-6.3644,-6.3389,-6.3196,-6.3002,-6.2905,-6.271,-6.2383,-6.2085,-6.1582,-6.1481,-6.1379,-6.1206,-6.1103,-6.1,-6.0897,-6.0794,-8.2186,-8.2186,-8.2186,-8.2186,-8.2186,-8.2186,-8.2186,-8.2186,-8.2186,-8.2186,-8.2121,-8.1989,-8.1849,-8.1599,-8.049,-7.963,-7.8649,-7.7341,-7.6554,-7.6378,-7.6275,-7.6239,-7.613,-7.5551,-7.5044,-7.482,-7.3434,-7.2282,-7.1567,-7.1494,-7.1467,-7.1067,-6.9721,-6.8011,-6.6377,-6.4607,-6.2944,-6.1714,-6.1169,-6.1119,-6.1119,-6.1119,-6.1119,-6.1119,-6.1119,-6.1119,-6.1119,-6.1119,-6.1119,-6.1119,-6.1119,-6.1119,-6.1119,-6.1119,-6.1119,-6.1285,-6.1781,-6.251,-6.3272,-6.3935,-6.4387,-6.5057,-6.5099,-6.4918,-6.4702,-6.461,-6.4518,-6.4333,-6.4333,-6.424,-6.4085,-6.3991,-6.4024,-6.3991,-6.4024,-6.4024,-6.4024,-6.4024,-6.4024,-6.4024,-6.4024,-6.4024,-6.4024,-6.4024,-6.4024,-6.4024,-6.4024,-6.4024,-6.4024,-6.4024,-6.4024,-6.4024,-6.4024,-6.4024,-6.4024,-6.4024,-6.4024,-6.3929,-6.374,-6.3484,-6.3196,-6.2905,-6.2612,-6.2414,-6.2216,-6.1885,-6.1613,-6.1308,-6.1103,-6.1,-6.0897,-6.0897,-6.0897,-6.0794,-6.0794,-8.2186,-8.2186,-8.2186,-8.2186,-8.2186,-8.2186,-8.2186,-8.2186,-8.2186,-8.2121,-8.1989,-8.1922,-8.1495,-8.0672,-7.9808,-7.8836,-7.7865,-7.685,-7.6378,-7.6275,-7.6275,-7.6022,-7.5551,-7.5225,-7.4537,-7.3414,-7.2427,-7.1748,-7.1504,-7.1404,-7.134,-7.1002,-6.959,-6.787,-6.6155,-6.4521,-6.2898,-6.1401,-6.1119,-6.1119,-6.1119,-6.1119,-6.1119,-6.1119,-6.1119,-6.1119,-6.1119,-6.1119,-6.1119,-6.1119,-6.1119,-6.1119,-6.1119,-6.1119,-6.1318,-6.1781,-6.2013,-6.2775,-6.3868,-6.409,-6.4464,-6.4844,-6.4826,-6.4518,-6.4426,-6.4365,-6.4179,-6.4085,-6.4085,-6.4085,-6.3991,-6.4024,-6.4024,-6.4024,-6.4024,-6.4024,-6.4024,-6.4024,-6.4024,-6.4024,-6.4024,-6.4024,-6.4024,-6.4024,-6.4024,-6.4024,-6.4024,-6.4024,-6.4024,-6.4024,-6.4024,-6.4024,-6.4024,-6.4024,-6.4024,-6.4024,-6.3897,-6.3802,-6.358,-6.3293,-6.3002,-6.2612,-6.2216,-6.1916,-6.1613,-6.141,-6.1206,-6.1,-6.0897,-6.0794,-6.0794,-6.0794,-6.0794,-6.0794,-6.0794,-8.2186,-8.2186,-8.2186,-8.2186,-8.2186,-8.2186,-8.2186,-8.2186,-8.2121,-8.2018,-8.1842,-8.1422,-8.0922,-8.0062,-7.8945,-7.815,-7.7434,-7.6674,-7.6275,-7.6275,-7.6275,-7.5985,-7.5308,-7.4596,-7.3519,-7.2047,-7.1362,-7.1146,-7.111,-7.0913,-7.0847,-7.0539,-6.9354,-6.7819,-6.6117,-6.4732,-6.3093,-6.175,-6.1251,-6.1119,-6.1119,-6.1119,-6.1119,-6.1119,-6.1119,-6.1119,-6.1119,-6.1119,-6.1119,-6.1119,-6.1119,-6.1119,-6.1119,-6.1351,-6.1715,-6.2146,-6.2742,-6.3471,-6.4211,-6.4365,-6.4482,-6.4728,-6.4518,-6.424,-6.4179,-6.4085,-6.4024,-6.4024,-6.4024,-6.4024,-6.4024,-6.4024,-6.4024,-6.4024,-6.4024,-6.4024,-6.4024,-6.4024,-6.4024,-6.4024,-6.4024,-6.4024,-6.4024,-6.4024,-6.4024,-6.4024,-6.4024,-6.4024,-6.4024,-6.4024,-6.4024,-6.4024,-6.4024,-6.4024,-6.4024,-6.3897,-6.3897,-6.3675,-6.3452,-6.3068,-6.271,-6.2184,-6.1784,-6.1512,-6.1206,-6.1103,-6.0897,-6.0897,-6.0794,-6.0794,-6.0794,-6.0794,-6.0794,-6.0794,-6.0794,-8.2186,-8.2186,-8.2186,-8.2186,-8.2186,-8.2186,-8.2186,-8.2121,-8.1952,-8.1842,-8.152,-8.0745,-8.0103,-7.963,-7.8227,-7.7438,-7.7185,-7.6502,-7.6072,-7.614,-7.614,-7.5859,-7.5397,-7.3826,-7.2188,-7.0838,-7.0481,-7.041,-7.0305,-7.0131,-6.992,-6.9706,-6.8868,-6.7791,-6.6257,-6.4918,-6.3667,-6.2164,-6.1516,-6.1251,-6.1152,-6.1119,-6.1119,-6.1119,-6.1119,-6.1119,-6.1119,-6.1119,-6.1119,-6.1119,-6.1119,-6.1119,-6.1218,-6.1781,-6.2113,-6.2345,-6.3603,-6.4024,-6.4299,-6.4548,-6.4728,-6.4393,-6.4333,-6.424,-6.3991,-6.4024,-6.4024,-6.4024,-6.4024,-6.4024,-6.4024,-6.4024,-6.4024,-6.4024,-6.4024,-6.4024,-6.4024,-6.4024,-6.4024,-6.4024,-6.4024,-6.4024,-6.4024,-6.4024,-6.4024,-6.4024,-6.4024,-6.4024,-6.4024,-6.4024,-6.4024,-6.4024,-6.4024,-6.4024,-6.4024,-6.3802,-6.3675,-6.3484,-6.326,-6.2744,-6.2383,-6.1885,-6.1481,-6.1103,-6.0897,-6.0794,-6.0794,-6.0794,-6.0794,-6.0794,-6.0794,-6.0794,-6.0794,-6.0794,-6.0481,-8.2186,-8.2186,-8.2186,-8.2186,-8.2186,-8.2186,-8.2121,-8.1952,-8.1885,-8.1349,-8.0745,-8.0353,-7.9315,-7.7986,-7.7377,-7.6695,-7.6087,-7.5621,-7.5407,-7.5407,-7.5407,-7.5048,-7.4154,-7.2549,-7.1231,-7.0338,-6.9844,-6.9419,-6.9238,-6.9126,-6.8903,-6.8642,-6.8059,-6.7112,-6.5793,-6.5093,-6.3935,-6.2429,-6.2047,-6.1616,-6.1218,-6.1152,-6.1119,-6.1119,-6.1119,-6.1119,-6.1119,-6.1119,-6.1119,-6.1119,-6.1119,-6.1119,-6.1218,-6.1815,-6.2444,-6.3073,-6.3661,-6.4398,-6.4647,-6.4604,-6.4426,-6.4333,-6.4179,-6.4085,-6.4024,-6.4024,-6.4024,-6.4024,-6.4024,-6.4024,-6.4024,-6.4024,-6.4024,-6.4024,-6.4024,-6.4024,-6.4024,-6.4024,-6.4024,-6.4024,-6.4024,-6.4024,-6.4024,-6.4024,-6.4024,-6.4024,-6.4024,-6.4024,-6.4024,-6.4024,-6.4024,-6.4024,-6.4024,-6.4024,-6.3929,-6.3707,-6.3517,-6.3293,-6.2873,-6.2418,-6.2022,-6.152,-6.1175,-6.0794,-6.0794,-6.0794,-6.0794,-6.0794,-6.0794,-6.0794,-6.0794,-6.0794,-6.069,-6.069,-6.0136,-8.1709,-8.1709,-8.1607,-8.1762,-8.1982,-8.1622,-8.141,-8.1167,-8.0807,-8.0344,-7.9671,-7.9203,-7.8309,-7.7056,-7.6446,-7.5764,-7.5116,-7.4713,-7.4563,-7.4527,-7.4411,-7.3987,-7.3173,-7.1995,-7.0909,-6.9826,-6.9296,-6.8837,-6.8405,-6.8137,-6.7901,-6.7662,-6.7291,-6.6592,-6.5884,-6.5143,-6.44,-6.3259,-6.2808,-6.2411,-6.2047,-6.1682,-6.155,-6.1483,-6.1318,-6.1119,-6.1119,-6.1119,-6.1119,-6.1119,-6.1119,-6.1218,-6.1583,-6.2245,-6.2974,-6.3616,-6.4167,-6.4581,-6.4604,-6.4426,-6.424,-6.4146,-6.4085,-6.4024,-6.4024,-6.4024,-6.4024,-6.4024,-6.4024,-6.4024,-6.4024,-6.4024,-6.4024,-6.4024,-6.4024,-6.4024,-6.4024,-6.4024,-6.4024,-6.4024,-6.4024,-6.4024,-6.4024,-6.4024,-6.4024,-6.4024,-6.4024,-6.4024,-6.4024,-6.4024,-6.4024,-6.4024,-6.3929,-6.3835,-6.3676,-6.3485,-6.3228,-6.2937,-6.2541,-6.2048,-6.1621,-6.1215,-6.0939,-6.0794,-6.0794,-6.0794,-6.0794,-6.0794,-6.0794,-6.0794,-6.0794,-6.069,-6.0586,-6.0302,-5.9849,-8.0901,-8.0901,-8.0744,-8.108,-8.138,-8.0703,-8.0276,-8.0021,-7.9344,-7.884,-7.8481,-7.7728,-7.7127,-7.6586,-7.5472,-7.4713,-7.4335,-7.3913,-7.3756,-7.3597,-7.3322,-7.2927,-7.2599,-7.1896,-7.0799,-6.946,-6.8953,-6.8323,-6.7715,-6.7214,-6.6946,-6.6829,-6.6525,-6.6268,-6.5808,-6.52,-6.4727,-6.4221,-6.3637,-6.3272,-6.2974,-6.2543,-6.2312,-6.2212,-6.1649,-6.1251,-6.1185,-6.1185,-6.1285,-6.1251,-6.1152,-6.145,-6.208,-6.2842,-6.345,-6.388,-6.4449,-6.4728,-6.4393,-6.4333,-6.4146,-6.4085,-6.4024,-6.4024,-6.4024,-6.4024,-6.4024,-6.4024,-6.4024,-6.4024,-6.4024,-6.4024,-6.4024,-6.4024,-6.4024,-6.4024,-6.4024,-6.4024,-6.4024,-6.4024,-6.4024,-6.4024,-6.4024,-6.4024,-6.4024,-6.4024,-6.4024,-6.4024,-6.4024,-6.4024,-6.4024,-6.4024,-6.3835,-6.3644,-6.3517,-6.3291,-6.2903,-6.2576,-6.2066,-6.1659,-6.1308,-6.0969,-6.0866,-6.0794,-6.0794,-6.0794,-6.0794,-6.0794,-6.0794,-6.0794,-6.0794,-6.069,-6.0481,-5.988,-5.9482,-8.0057,-8.0094,-8.0524,-8.0356,-7.9828,-7.9921,-7.9462,-7.8531,-7.8207,-7.7487,-7.698,-7.6554,-7.5938,-7.4993,-7.4399,-7.3948,-7.3507,-7.3066,-7.2818,-7.2818,-7.2398,-7.2108,-7.1679,-7.1217,-7.0308,-6.9228,-6.8109,-6.7396,-6.7074,-6.6484,-6.5955,-6.5834,-6.5834,-6.557,-6.5537,-6.5404,-6.4984,-6.4465,-6.42,-6.3868,-6.3471,-6.3206,-6.3007,-6.2908,-6.2278,-6.1682,-6.1351,-6.1649,-6.1914,-6.1815,-6.1516,-6.1532,-6.2278,-6.2742,-6.3384,-6.389,-6.4276,-6.4453,-6.43,-6.4146,-6.4085,-6.4024,-6.4024,-6.4024,-6.4024,-6.4056,-6.4056,-6.4024,-6.4024,-6.4088,-6.4024,-6.4024,-6.4024,-6.4024,-6.4024,-6.4024,-6.4024,-6.4024,-6.4024,-6.4024,-6.4024,-6.4024,-6.4024,-6.4024,-6.4024,-6.4024,-6.4024,-6.4024,-6.4024,-6.4056,-6.4059,-6.4156,-6.4063,-6.3966,-6.3768,-6.3503,-6.2846,-6.2456,-6.1908,-6.134,-6.102,-6.0897,-6.0794,-6.0794,-6.0794,-6.0794,-6.0794,-6.0794,-6.0794,-6.0794,-6.0794,-6.0586,-6.0272,-5.9697,-5.8942,-7.925,-7.9286,-7.9397,-7.9245,-7.8836,-7.8385,-7.7738,-7.6941,-7.6214,-7.5686,-7.5227,-7.5107,-7.4682,-7.3922,-7.3461,-7.3066,-7.2636,-7.221,-7.1951,-7.1776,-7.1512,-7.1244,-7.094,-7.0603,-6.9994,-6.931,-6.8216,-6.7402,-6.6812,-6.6124,-6.5603,-6.5425,-6.5425,-6.5425,-6.5425,-6.5425,-6.5227,-6.4995,-6.4862,-6.463,-6.4332,-6.3935,-6.3537,-6.3206,-6.261,-6.208,-6.2212,-6.1995,-6.2174,-6.2306,-6.2088,-6.2187,-6.2868,-6.3231,-6.3617,-6.4014,-6.4224,-6.4207,-6.4146,-6.4085,-6.4024,-6.4024,-6.4024,-6.4024,-6.4121,-6.4283,-6.4283,-6.4185,-6.425,-6.4412,-6.4088,-6.4024,-6.4024,-6.4024,-6.4024,-6.4024,-6.4024,-6.4024,-6.4024,-6.4024,-6.4024,-6.4024,-6.4024,-6.4024,-6.4056,-6.4056,-6.4056,-6.4088,-6.4123,-6.4156,-6.4319,-6.432,-6.4384,-6.4314,-6.4139,-6.3665,-6.2924,-6.2467,-6.1939,-6.1421,-6.0917,-6.0824,-6.0794,-6.0794,-6.0794,-6.0794,-6.0794,-6.0794,-6.0794,-6.0794,-6.069,-6.0586,-6.0092,-5.9297,-5.8504,-7.8343,-7.828,-7.7968,-7.7964,-7.7878,-7.6731,-7.5885,-7.5218,-7.4115,-7.3772,-7.3628,-7.3589,-7.352,-7.3031,-7.2705,-7.2262,-7.1864,-7.1546,-7.1278,-7.1064,-7.0916,-7.0641,-7.033,-7.0136,-6.9903,-6.9328,-6.8369,-6.7554,-6.6956,-6.5979,-6.5425,-6.5425,-6.5425,-6.5425,-6.5425,-6.5425,-6.5392,-6.5293,-6.5293,-6.5293,-6.5194,-6.4763,-6.4233,-6.3537,-6.3073,-6.2808,-6.2855,-6.2616,-6.2496,-6.2936,-6.2891,-6.3284,-6.3768,-6.3956,-6.4039,-6.4235,-6.424,-6.4146,-6.4085,-6.4024,-6.4024,-6.4024,-6.4024,-6.4121,-6.4283,-6.4639,-6.4736,-6.4704,-6.4736,-6.4671,-6.4121,-6.4024,-6.4024,-6.4024,-6.4024,-6.4024,-6.4024,-6.4024,-6.4024,-6.4024,-6.4024,-6.4024,-6.4024,-6.4024,-6.4056,-6.4121,-6.4153,-6.425,-6.435,-6.448,-6.4642,-6.4608,-6.4569,-6.4349,-6.4223,-6.4319,-6.353,-6.2929,-6.2377,-6.1853,-6.1255,-6.1163,-6.1132,-6.0824,-6.0794,-6.0794,-6.0794,-6.069,-6.069,-6.0794,-6.0647,-6.0363,-5.9757,-5.9031,-5.832,-7.702,-7.6934,-7.7044,-7.6589,-7.5763,-7.5407,-7.4642,-7.3751,-7.3053,-7.2783,-7.2762,-7.2783,-7.2673,-7.2429,-7.219,-7.181,-7.1457,-7.1098,-7.0916,-7.0825,-7.0549,-7.027,-7.0176,-6.9988,-6.9794,-6.9396,-6.8434,-6.7604,-6.7173,-6.6154,-6.5459,-6.5425,-6.5425,-6.5425,-6.5425,-6.5425,-6.5425,-6.5425,-6.5425,-6.5425,-6.527,-6.5138,-6.4774,-6.4145,-6.3781,-6.3529,-6.3276,-6.3419,-6.3627,-6.358,-6.4014,-6.4218,-6.4126,-6.3701,-6.3832,-6.4137,-6.4179,-6.3991,-6.4024,-6.4024,-6.4024,-6.4024,-6.4088,-6.4347,-6.4704,-6.5027,-6.5384,-6.5513,-6.5222,-6.4801,-6.4121,-6.4218,-6.4088,-6.4056,-6.4088,-6.4088,-6.4088,-6.4024,-6.4088,-6.4153,-6.4088,-6.4024,-6.4056,-6.4153,-6.438,-6.4511,-6.4705,-6.4964,-6.5255,-6.5287,-6.5282,-6.5048,-6.4779,-6.4506,-6.4315,-6.4491,-6.432,-6.3641,-6.3071,-6.2655,-6.2117,-6.1779,-6.1532,-6.1194,-6.0917,-6.0794,-6.069,-6.0617,-6.0499,-6.0486,-6.0274,-6.0092,-5.9528,-5.905,-5.8577,-7.6099,-7.5898,-7.562,-7.4997,-7.4293,-7.3902,-7.3331,-7.2586,-7.2124,-7.1951,-7.1951,-7.1864,-7.1825,-7.1728,-7.1715,-7.1401,-7.1098,-7.1007,-7.0733,-7.0549,-7.027,-7.0082,-6.9988,-6.9798,-6.9798,-6.9401,-6.8374,-6.7645,-6.7479,-6.6121,-6.5492,-6.5425,-6.5425,-6.5425,-6.5425,-6.5425,-6.5425,-6.5425,-6.5425,-6.5336,-6.5246,-6.5156,-6.4803,-6.4605,-6.421,-6.389,-6.3932,-6.3523,-6.376,-6.3963,-6.4137,-6.4207,-6.4049,-6.3887,-6.3817,-6.4081,-6.4085,-6.4024,-6.4024,-6.4024,-6.4024,-6.4056,-6.4315,-6.4639,-6.5157,-6.5643,-6.6226,-6.6355,-6.6031,-6.5448,-6.5189,-6.506,-6.5092,-6.5027,-6.4801,-6.4574,-6.4477,-6.425,-6.4315,-6.4445,-6.4283,-6.4185,-6.4121,-6.4315,-6.4671,-6.4899,-6.5287,-6.5578,-6.603,-6.586,-6.5751,-6.5306,-6.506,-6.4851,-6.4584,-6.4676,-6.4764,-6.4241,-6.381,-6.3287,-6.2764,-6.2333,-6.1902,-6.1532,-6.1255,-6.0948,-6.0635,-6.0516,-6.0396,-6.0257,-6.0126,-5.9844,-5.9522,-5.9187,-5.8813,-7.5334,-7.4937,-7.4152,-7.3641,-7.3241,-7.27,-7.2262,-7.1898,-7.1491,-7.1312,-7.1312,-7.1312,-7.1312,-7.1312,-7.1222,-7.1131,-7.0916,-7.0825,-7.0549,-7.027,-7.0082,-6.9988,-6.9893,-6.9798,-6.9798,-6.9599,-6.8606,-6.7777,-6.7347,-6.6154,-6.5525,-6.5425,-6.5425,-6.5425,-6.5425,-6.5425,-6.5425,-6.5425,-6.5336,-6.5279,-6.5008,-6.4826,-6.4702,-6.4669,-6.4112,-6.4112,-6.4316,-6.3995,-6.3844,-6.4045,-6.4053,-6.4024,-6.4024,-6.4024,-6.4024,-6.4024,-6.4024,-6.4024,-6.4024,-6.4024,-6.4024,-6.4024,-6.4639,-6.4995,-6.561,-6.642,-6.7262,-6.7132,-6.6711,-6.6193,-6.5967,-6.6031,-6.6031,-6.5934,-6.5546,-6.5222,-6.5125,-6.4995,-6.4963,-6.4898,-6.4574,-6.4639,-6.4833,-6.4963,-6.5416,-6.5772,-6.603,-6.6155,-6.6474,-6.6192,-6.5972,-6.5544,-6.5245,-6.5173,-6.5032,-6.4861,-6.4764,-6.4457,-6.421,-6.3903,-6.3287,-6.2733,-6.2333,-6.1933,-6.1502,-6.112,-6.0699,-6.0304,-6.0132,-6.0027,-5.9924,-5.9739,-5.9452,-5.9246,-5.8918,-7.4563,-7.4026,-7.3311,-7.2901,-7.2686,-7.221,-7.1864,-7.16,-7.1401,-7.1312,-7.1312,-7.1312,-7.1312,-7.1222,-7.1041,-7.0916,-7.0733,-7.0549,-7.027,-7.0082,-6.9988,-6.9893,-6.9798,-6.9798,-6.9798,-6.9666,-6.8937,-6.8241,-6.7546,-6.6254,-6.5459,-6.5425,-6.5425,-6.5425,-6.5425,-6.5425,-6.5425,-6.5336,-6.5189,-6.5008,-6.4793,-6.4708,-6.4676,-6.461,-6.4479,-6.4447,-6.4393,-6.4045,-6.4142,-6.402,-6.4024,-6.4024,-6.4024,-6.4024,-6.4024,-6.4024,-6.4024,-6.4024,-6.4024,-6.4121,-6.4153,-6.4283,-6.4801,-6.5319,-6.6193,-6.71,-6.7748,-6.7197,-6.7068,-6.6873,-6.6485,-6.6226,-6.6161,-6.6193,-6.6161,-6.5999,-6.5902,-6.5578,-6.5546,-6.5805,-6.5643,-6.5772,-6.5967,-6.6031,-6.6193,-6.6548,-6.687,-6.686,-6.6678,-6.6321,-6.6027,-6.5527,-6.5235,-6.5125,-6.5108,-6.4998,-6.4826,-6.4611,-6.4518,-6.4395,-6.3903,-6.3349,-6.2825,-6.2425,-6.1963,-6.1383,-6.0761,-6.0421,-6.0027,-5.9776,-5.9653,-5.9391,-5.9291,-5.9165,-5.9038,-7.2812,-7.2901,-7.2262,-7.1951,-7.1898,-7.1634,-7.1546,-7.1457,-7.1312,-7.1312,-7.1312,-7.1312,-7.1222,-7.1131,-7.0916,-7.0733,-7.0549,-7.027,-7.0082,-6.9988,-6.9893,-6.9798,-6.9798,-6.9798,-6.9798,-6.9599,-6.9103,-6.8606,-6.7811,-6.685,-6.5889,-6.5492,-6.5459,-6.5425,-6.5558,-6.5425,-6.5336,-6.5156,-6.4852,-6.4577,-6.4518,-6.4398,-6.4337,-6.4272,-6.4365,-6.4272,-6.4179,-6.4179,-6.4085,-6.4024,-6.4024,-6.4024,-6.4024,-6.4024,-6.4024,-6.4024,-6.4024,-6.4024,-6.4056,-6.438,-6.4509,-6.4866,-6.5546,-6.6582,-6.723,-6.7748,-6.8136,-6.7813,-6.778,-6.7553,-6.7327,-6.7294,-6.7294,-6.7197,-6.6873,-6.6744,-6.6614,-6.6226,-6.6096,-6.642,-6.6744,-6.671,-6.6676,-6.6644,-6.6544,-6.6738,-6.6855,-6.6767,-6.6511,-6.5973,-6.5714,-6.5421,-6.5125,-6.4998,-6.4998,-6.4888,-6.4888,-6.4764,-6.4764,-6.4641,-6.4487,-6.4026,-6.3472,-6.2964,-6.2518,-6.1798,-6.1001,-6.0326,-5.9954,-5.9682,-5.9273,-5.9285,-5.9229,-5.922,-5.9087,-7.1046,-7.1764,-7.1389,-7.1312,-7.1312,-7.1312,-7.1312,-7.1312,-7.1312,-7.1312,-7.1312,-7.1222,-7.1098,-7.0916,-7.0733,-7.0549,-7.0176,-7.0082,-6.9988,-6.9893,-6.9798,-6.9798,-6.9798,-6.9798,-6.9798,-6.9798,-6.9368,-6.8904,-6.8374,-6.7645,-6.6784,-6.6022,-6.6187,-6.6088,-6.5955,-6.5766,-6.5453,-6.4793,-6.4512,-6.4328,-6.424,-6.4085,-6.4024,-6.4024,-6.4024,-6.4024,-6.4024,-6.4024,-6.4024,-6.4024,-6.4024,-6.4024,-6.4024,-6.4024,-6.4024,-6.4024,-6.4024,-6.4153,-6.438,-6.4704,-6.4963,-6.5448,-6.629,-6.7262,-6.7942,-6.8201,-6.8201,-6.8104,-6.8136,-6.8136,-6.8201,-6.8136,-6.8007,-6.7845,-6.7583,-6.7454,-6.726,-6.6837,-6.6609,-6.6799,-6.7089,-6.7318,-6.725,-6.7052,-6.6919,-6.6919,-6.6901,-6.6733,-6.6268,-6.5623,-6.5406,-6.5187,-6.5108,-6.4888,-6.4888,-6.4888,-6.4888,-6.4888,-6.4888,-6.4857,-6.4672,-6.4457,-6.3947,-6.35,-6.2945,-6.1971,-6.0937,-6.0422,-6.0003,-5.9506,-5.9194,-5.9248,-5.9273,-5.9205,-5.9205,-6.9674,-7.0419,-7.1007,-7.1278,-7.1312,-7.1312,-7.1312,-7.1312,-7.1312,-7.1312,-7.1222,-7.1041,-7.0916,-7.0825,-7.0456,-7.027,-7.0209,-6.9893,-6.9893,-6.9798,-6.9798,-6.9798,-6.9798,-6.9798,-6.9798,-6.9798,-6.9566,-6.9235,-6.8871,-6.8639,-6.8009,-6.7546,-6.7214,-6.7347,-6.7023,-6.6278,-6.5476,-6.4839,-6.436,-6.4203,-6.4053,-6.4024,-6.4024,-6.4024,-6.4024,-6.4024,-6.4024,-6.4024,-6.4024,-6.4024,-6.4024,-6.4024,-6.4024,-6.4024,-6.4024,-6.4024,-6.4024,-6.4283,-6.4704,-6.5027,-6.5092,-6.5481,-6.6355,-6.7586,-6.8104,-6.8201,-6.8201,-6.8201,-6.8201,-6.8201,-6.8201,-6.8201,-6.8201,-6.8136,-6.7907,-6.7673,-6.7475,-6.7304,-6.7138,-6.7362,-6.7324,-6.7292,-6.726,-6.6894,-6.6862,-6.6862,-6.6343,-6.6161,-6.5839,-6.5297,-6.5108,-6.4998,-6.4998,-6.4888,-6.4888,-6.4888,-6.4888,-6.4888,-6.4888,-6.4888,-6.4857,-6.4611,-6.4316,-6.3629,-6.293,-6.1838,-6.0921,-6.0529,-5.9972,-5.9429,-5.9163,-5.9161,-5.9205,-5.9205,-5.9205,-6.9079,-7.0229,-7.05,-7.0872,-7.1312,-7.1312,-7.1312,-7.1312,-7.1312,-7.1222,-7.1041,-7.0916,-7.0733,-7.0456,-7.0363,-7.0082,-6.9988,-6.9893,-6.9798,-6.9798,-6.9798,-6.9798,-6.9798,-6.9798,-6.9798,-6.9798,-6.9765,-6.9732,-6.9434,-6.9301,-6.9268,-6.8837,-6.8049,-6.7493,-6.7103,-6.6527,-6.5531,-6.4952,-6.4435,-6.4053,-6.4053,-6.4024,-6.4024,-6.4024,-6.4024,-6.4024,-6.4024,-6.4024,-6.4024,-6.4024,-6.4024,-6.4024,-6.4024,-6.4024,-6.4024,-6.4056,-6.4056,-6.4445,-6.506,-6.5513,-6.6031,-6.6938,-6.7521,-6.791,-6.8201,-6.8201,-6.8201,-6.8201,-6.8201,-6.8201,-6.8201,-6.8201,-6.8201,-6.8101,-6.8,-6.7695,-6.7491,-6.7213,-6.7005,-6.6869,-6.6869,-6.6869,-6.6764,-6.6628,-6.6628,-6.6764,-6.6161,-6.5731,-6.5297,-6.5077,-6.4998,-6.4888,-6.4888,-6.4888,-6.4888,-6.4888,-6.4888,-6.4888,-6.4888,-6.4888,-6.4777,-6.4635,-6.4198,-6.3538,-6.2769,-6.1727,-6.097,-6.0613,-6.0071,-5.9472,-5.9154,-5.9245,-5.9205,-5.9205,-5.9205,-6.847,-6.9789,-6.9857,-7.0432,-7.1244,-7.1312,-7.1312,-7.1312,-7.1312,-7.1131,-7.0916,-7.0733,-7.0549,-7.027,-7.0082,-6.9988,-6.9893,-6.9798,-6.9798,-6.9798,-6.9798,-6.9798,-6.9798,-6.9798,-6.9798,-6.9798,-6.9798,-6.9765,-6.9637,-6.967,-6.9475,-6.9049,-6.8554,-6.8097,-6.7706,-6.6704,-6.5864,-6.5153,-6.4764,-6.4121,-6.4088,-6.4024,-6.4024,-6.4024,-6.4024,-6.4024,-6.4024,-6.4024,-6.4024,-6.4024,-6.4024,-6.4024,-6.4024,-6.4024,-6.4024,-6.4088,-6.4283,-6.4639,-6.5319,-6.6064,-6.6938,-6.7748,-6.8039,-6.8136,-6.8201,-6.8201,-6.8201,-6.8201,-6.8201,-6.8201,-6.8201,-6.8101,-6.8101,-6.8,-6.7593,-6.7285,-6.7109,-6.6796,-6.6586,-6.6374,-6.6374,-6.6374,-6.6268,-6.6023,-6.6023,-6.6054,-6.5731,-6.5328,-6.5218,-6.4998,-6.4998,-6.4888,-6.4888,-6.4888,-6.4888,-6.4888,-6.4888,-6.4888,-6.4888,-6.4777,-6.4635,-6.4412,-6.3932,-6.3069,-6.2347,-6.1555,-6.0808,-6.0209,-5.97,-5.9286,-5.9172,-5.9205,-5.9205,-5.9205,-5.9205,-6.776,-6.9045,-6.9147,-6.9992,-7.1244,-7.1312,-7.1312,-7.1222,-7.1222,-7.1131,-7.0825,-7.0456,-7.027,-7.0082,-6.9988,-6.9893,-6.9798,-6.9798,-6.9798,-6.9798,-6.9798,-6.9798,-6.9798,-6.9798,-6.9798,-6.9798,-6.9703,-6.9607,-6.9415,-6.9382,-6.9285,-6.9188,-6.8796,-6.873,-6.9088,-6.8143,-6.6712,-6.535,-6.5088,-6.4539,-6.4218,-6.4088,-6.4024,-6.4024,-6.4024,-6.4024,-6.4024,-6.4024,-6.4024,-6.4024,-6.4024,-6.4024,-6.4024,-6.4121,-6.4153,-6.4153,-6.4704,-6.5319,-6.6031,-6.6744,-6.7489,-6.8072,-6.8201,-6.8201,-6.8201,-6.8201,-6.8201,-6.8201,-6.8201,-6.8201,-6.8101,-6.8,-6.7899,-6.7695,-6.7285,-6.6901,-6.6691,-6.6374,-6.6054,-6.5839,-6.57,-6.57,-6.5592,-6.5483,-6.5406,-6.5297,-6.5108,-6.4998,-6.4998,-6.4888,-6.4888,-6.4888,-6.4888,-6.4888,-6.4888,-6.4888,-6.4888,-6.4888,-6.4888,-6.4777,-6.4412,-6.3932,-6.3334,-6.2642,-6.1703,-6.0894,-6.0287,-5.9673,-5.9408,-5.9172,-5.9161,-5.9205,-5.9205,-5.9205,-5.9205,-6.7692,-6.9079,-6.9079,-6.9836,-7.0906,-7.1007,-7.1007,-7.1007,-7.0825,-7.0641,-7.0456,-7.027,-7.0082,-6.9893,-6.9893,-6.9798,-6.9798,-6.9798,-6.9798,-6.9798,-6.9798,-6.9798,-6.9798,-6.9798,-6.9798,-6.9798,-6.9703,-6.9511,-6.9448,-6.9221,-6.9091,-6.8994,-6.8797,-6.8797,-6.8601,-6.785,-6.6907,-6.6388,-6.5673,-6.4861,-6.4639,-6.4315,-6.4088,-6.4121,-6.4121,-6.4153,-6.4153,-6.4218,-6.4218,-6.4185,-6.4185,-6.4121,-6.4218,-6.438,-6.4639,-6.4801,-6.5351,-6.6064,-6.6776,-6.7424,-6.791,-6.8136,-6.8201,-6.8201,-6.8201,-6.8201,-6.8201,-6.8201,-6.8201,-6.8201,-6.8201,-6.7899,-6.7797,-6.7491,-6.7109,-6.6554,-6.6161,-6.5839,-6.5515,-6.5328,-6.5218,-6.5187,-6.5187,-6.5297,-6.5187,-6.5108,-6.4998,-6.4888,-6.4888,-6.4888,-6.4888,-6.4888,-6.4888,-6.4888,-6.4888,-6.4888,-6.4888,-6.4888,-6.4888,-6.4777,-6.43,-6.3562,-6.2874,-6.2057,-6.1106,-6.0194,-5.9825,-5.9454,-5.9329,-5.9205,-5.9205,-5.9205,-5.9205,-5.9205,-5.9205,-6.7726,-6.9045,-6.8992,-6.9659,-7.0781,-7.0916,-7.0825,-7.0733,-7.0515,-7.027,-7.0176,-7.0082,-6.9988,-6.9798,-6.9798,-6.9798,-6.9798,-6.9798,-6.9798,-6.9798,-6.9798,-6.9798,-6.9798,-6.9798,-6.9732,-6.9637,-6.9478,-6.9318,-6.9091,-6.8896,-6.8797,-6.8699,-6.86,-6.8501,-6.8271,-6.7847,-6.7392,-6.6938,-6.6291,-6.5708,-6.5416,-6.506,-6.4833,-6.4833,-6.4833,-6.4801,-6.4768,-6.4736,-6.4704,-6.4639,-6.4542,-6.4509,-6.4736,-6.4866,-6.5222,-6.5481,-6.6064,-6.6776,-6.7489,-6.7813,-6.8136,-6.8201,-6.8201,-6.8201,-6.8201,-6.8201,-6.8201,-6.8201,-6.8101,-6.8101,-6.8,-6.7797,-6.7388,-6.7109,-6.6691,-6.6161,-6.5731,-6.5406,-6.5328,-6.4998,-6.4949,-6.4949,-6.4949,-6.4888,-6.4998,-6.4888,-6.4888,-6.4918,-6.4918,-6.4888,-6.4888,-6.4888,-6.4888,-6.4888,-6.4888,-6.4888,-6.4888,-6.4888,-6.4777,-6.4666,-6.4075,-6.3364,-6.2409,-6.1584,-6.0531,-5.9825,-5.9454,-5.9205,-5.9205,-5.9205,-5.9205,-5.9205,-5.9205,-5.9205,-5.9205,-6.7692,-6.8857,-6.8816,-6.9536,-7.0623,-7.0791,-7.0641,-7.0423,-7.027,-7.0176,-7.0176,-6.9893,-6.9798,-6.9798,-6.9798,-6.9798,-6.9798,-6.9798,-6.9798,-6.9798,-6.9798,-6.9798,-6.9798,-6.9798,-6.9637,-6.9475,-6.9283,-6.8994,-6.8634,-6.8567,-6.8501,-6.8301,-6.8301,-6.8301,-6.8236,-6.8039,-6.778,-6.7424,-6.7034,-6.6516,-6.6193,-6.5967,-6.5772,-6.574,-6.574,-6.574,-6.574,-6.5772,-6.5837,-6.5708,-6.5416,-6.5578,-6.561,-6.5448,-6.5675,-6.6161,-6.6906,-6.7489,-6.7942,-6.8169,-6.8201,-6.8201,-6.8201,-6.8201,-6.8201,-6.8201,-6.8201,-6.8101,-6.8,-6.7899,-6.7797,-6.7285,-6.6901,-6.6586,-6.6299,-6.587,-6.5406,-6.5187,-6.5108,-6.506,-6.5042,-6.5103,-6.5195,-6.5134,-6.538,-6.5195,-6.5195,-6.5011,-6.5011,-6.4888,-6.4888,-6.4888,-6.4888,-6.4888,-6.4888,-6.4888,-6.4777,-6.4777,-6.4666,-6.4443,-6.3736,-6.2903,-6.1939,-6.0986,-6.0043,-5.9329,-5.9205,-5.9205,-5.9205,-5.9205,-5.9205,-5.9205,-5.9205,-5.9205,-5.9205,-6.7302,-6.8041,-6.8493,-6.9088,-6.9595,-6.9943,-7.0082,-6.9955,-6.9893,-6.9893,-6.9893,-6.9798,-6.9798,-6.9798,-6.9798,-6.9798,-6.9798,-6.9798,-6.9798,-6.9798,-6.9798,-6.9798,-6.9703,-6.9574,-6.9478,-6.9285,-6.9091,-6.883,-6.8598,-6.8466,-6.8301,-6.8201,-6.8201,-6.8201,-6.8201,-6.8201,-6.8039,-6.7877,-6.7483,-6.7228,-6.6807,-6.6484,-6.6354,-6.6323,-6.629,-6.6323,-6.629,-6.6258,-6.6258,-6.6096,-6.5934,-6.5999,-6.5999,-6.6388,-6.6873,-6.7489,-6.7845,-6.8007,-6.8169,-6.8201,-6.8201,-6.8201,-6.8201,-6.8201,-6.8201,-6.8201,-6.8201,-6.8101,-6.7899,-6.7695,-6.7388,-6.7005,-6.6586,-6.6161,-6.5839,-6.5515,-6.5187,-6.5108,-6.4998,-6.5091,-6.5072,-6.5442,-6.5503,-6.5965,-6.6119,-6.5811,-6.5503,-6.5257,-6.5042,-6.4949,-6.4888,-6.4888,-6.4888,-6.4888,-6.4777,-6.4635,-6.4635,-6.4524,-6.43,-6.3849,-6.3019,-6.2175,-6.1465,-6.0624,-5.9673,-5.9329,-5.9205,-5.9205,-5.9205,-5.9205,-5.9205,-5.9205,-5.9205,-5.9205,-5.9205,-6.6997,-6.7651,-6.8215,-6.876,-6.9417,-6.9694,-6.9798,-6.9798,-6.9798,-6.9798,-6.9798,-6.9798,-6.9798,-6.9798,-6.9798,-6.9798,-6.9798,-6.9798,-6.9798,-6.9607,-6.9703,-6.9511,-6.9382,-6.9285,-6.9188,-6.9026,-6.883,-6.8533,-6.8366,-6.8266,-6.8201,-6.8201,-6.8201,-6.8169,-6.8201,-6.8201,-6.8201,-6.8072,-6.7842,-6.7648,-6.7357,-6.7131,-6.7068,-6.6906,-6.6873,-6.6873,-6.6873,-6.6873,-6.6873,-6.6809,-6.6776,-6.6711,-6.6841,-6.7424,-6.7618,-6.8072,-6.8136,-6.8136,-6.8201,-6.8201,-6.8201,-6.8201,-6.8201,-6.8201,-6.8201,-6.8201,-6.8201,-6.8201,-6.7797,-6.7491,-6.7109,-6.6796,-6.6161,-6.5592,-6.5406,-6.5187,-6.5108,-6.4888,-6.4949,-6.5011,-6.5288,-6.5688,-6.6119,-6.6642,-6.6704,-6.6088,-6.5657,-6.5411,-6.5165,-6.4918,-6.4888,-6.4888,-6.4888,-6.4888,-6.4635,-6.427,-6.4045,-6.3676,-6.3219,-6.2758,-6.2145,-6.1584,-6.0745,-6.0165,-5.9454,-5.9329,-5.9205,-5.9205,-5.9205,-5.9205,-5.9205,-5.9205,-5.9205,-5.9205,-5.9205,-6.6877,-6.7463,-6.7858,-6.8559,-6.9599,-6.9732,-6.9798,-6.9798,-6.9798,-6.9798,-6.9798,-6.9798,-6.9798,-6.9798,-6.9798,-6.9798,-6.9798,-6.9798,-6.9607,-6.9382,-6.9382,-6.9285,-6.9091,-6.8994,-6.8896,-6.8666,-6.8535,-6.8336,-6.8139,-6.7845,-6.7683,-6.8039,-6.7877,-6.7748,-6.7683,-6.791,-6.791,-6.791,-6.8039,-6.8072,-6.8104,-6.8136,-6.8201,-6.8104,-6.8072,-6.8072,-6.8104,-6.8136,-6.8201,-6.7974,-6.778,-6.7618,-6.7845,-6.8039,-6.8136,-6.8169,-6.8201,-6.8201,-6.8201,-6.8201,-6.8201,-6.8201,-6.8201,-6.8201,-6.8201,-6.8201,-6.8201,-6.8101,-6.7797,-6.7612,-6.726,-6.6859,-6.6245,-6.5996,-6.5899,-6.5819,-6.5707,-6.5442,-6.5134,-6.5288,-6.5719,-6.6088,-6.6427,-6.6919,-6.7258,-6.6457,-6.6027,-6.578,-6.5226,-6.4949,-6.4888,-6.4888,-6.4777,-6.4635,-6.4158,-6.3789,-6.3219,-6.2874,-6.2379,-6.191,-6.1346,-6.0774,-6.0165,-5.9702,-5.9329,-5.9205,-5.9205,-5.9205,-5.9205,-5.9205,-5.9205,-5.9205,-5.9205,-5.9205,-5.9205,-6.6436,-6.6356,-6.7264,-6.8142,-6.897,-6.9566,-6.9798,-6.9798,-6.9798,-6.9798,-6.9798,-6.9798,-6.9798,-6.9798,-6.9798,-6.9798,-6.9798,-6.9574,-6.9511,-6.9285,-6.9188,-6.8994,-6.8896,-6.8797,-6.8699,-6.8567,-6.8336,-6.8009,-6.7521,-6.7068,-6.6647,-6.6679,-6.6809,-6.6938,-6.6971,-6.7294,-6.7651,-6.7715,-6.8007,-6.8201,-6.8201,-6.8201,-6.8201,-6.8201,-6.8201,-6.8201,-6.8201,-6.8201,-6.8201,-6.8104,-6.8072,-6.8072,-6.8169,-6.8201,-6.8201,-6.8201,-6.8201,-6.8201,-6.8201,-6.8201,-6.8201,-6.8201,-6.8201,-6.8201,-6.8201,-6.8201,-6.8101,-6.8,-6.7824,-6.7564,-6.7293,-6.6883,-6.6526,-6.6505,-6.6386,-6.6304,-6.6304,-6.5873,-6.5411,-6.5657,-6.6057,-6.6457,-6.6796,-6.7104,-6.7442,-6.7289,-6.6858,-6.6365,-6.538,-6.4888,-6.4666,-6.4635,-6.4524,-6.427,-6.3789,-6.2959,-6.2409,-6.1939,-6.1465,-6.1106,-6.0652,-6.0165,-5.9702,-5.9454,-5.9205,-5.9205,-5.9205,-5.9205,-5.9205,-5.9205,-5.9205,-5.9205,-5.9205,-5.9205,-5.9205,-6.6076,-6.5946,-6.6742,-6.7744,-6.8639,-6.9136,-6.9467,-6.9765,-6.9798,-6.9798,-6.9798,-6.9798,-6.9798,-6.9798,-6.9798,-6.9703,-6.9574,-6.9478,-6.9188,-6.9091,-6.8896,-6.8797,-6.86,-6.8501,-6.8501,-6.8369,-6.7945,-6.7456,-6.7003,-6.655,-6.6193,-6.6129,-6.6258,-6.6517,-6.6614,-6.7197,-6.7586,-6.7683,-6.8039,-6.8169,-6.8201,-6.8201,-6.8201,-6.8201,-6.8201,-6.8201,-6.8201,-6.8201,-6.8201,-6.8201,-6.8169,-6.8169,-6.8201,-6.8201,-6.8201,-6.8201,-6.8201,-6.8201,-6.8201,-6.8201,-6.8201,-6.8201,-6.8201,-6.8201,-6.8201,-6.8201,-6.8201,-6.8133,-6.8242,-6.8011,-6.7672,-6.7291,-6.6945,-6.6807,-6.6694,-6.655,-6.6304,-6.5903,-6.5442,-6.5195,-6.5842,-6.6673,-6.7042,-6.7442,-6.7596,-6.7104,-6.6827,-6.6242,-6.538,-6.4666,-6.4524,-6.4158,-6.3932,-6.3676,-6.3104,-6.2262,-6.1465,-6.0986,-6.0652,-6.0287,-5.9825,-5.9578,-5.9205,-5.9205,-5.9205,-5.9205,-5.9205,-5.9205,-5.9205,-5.9205,-5.9205,-5.9205,-5.9205,-5.9205,-5.9205,-6.578,-6.5791,-6.6311,-6.7214,-6.8341,-6.8639,-6.9036,-6.9566,-6.9732,-6.9798,-6.9798,-6.9798,-6.9798,-6.9798,-6.9703,-6.9607,-6.9382,-6.9188,-6.8994,-6.8797,-6.86,-6.8501,-6.8401,-6.8201,-6.8204,-6.7847,-6.7327,-6.7003,-6.6614,-6.5967,-6.5643,-6.6031,-6.6485,-6.6906,-6.723,-6.7618,-6.7877,-6.7877,-6.8039,-6.8169,-6.8201,-6.8201,-6.8201,-6.8201,-6.8201,-6.8201,-6.8201,-6.8201,-6.8201,-6.8201,-6.8201,-6.8201,-6.8201,-6.8201,-6.8201,-6.8201,-6.8201,-6.8201,-6.8201,-6.8201,-6.8201,-6.8201,-6.8201,-6.8201,-6.8101,-6.8101,-6.8101,-6.8318,-6.8388,-6.8352,-6.8039,-6.781,-6.7567,-6.7311,-6.7135,-6.6858,-6.6457,-6.6088,-6.5596,-6.5165,-6.5811,-6.6735,-6.7073,-6.7473,-6.7412,-6.6888,-6.6304,-6.5657,-6.4911,-6.4361,-6.3932,-6.3448,-6.2874,-6.2525,-6.2175,-6.1584,-6.0774,-6.0287,-5.992,-5.9454,-5.9205,-5.9205,-5.9205,-5.9205,-5.9205,-5.9205,-5.9205,-5.9205,-5.9205,-5.9205,-5.9205,-5.9205,-5.9205,-5.9205,-5.9205,-6.5692,-6.5581,-6.622,-6.6684,-6.7115,-6.8142,-6.8771,-6.897,-6.9533,-6.9798,-6.9798,-6.9798,-6.9798,-6.9798,-6.9574,-6.9382,-6.9188,-6.8994,-6.8797,-6.86,-6.8401,-6.8301,-6.8201,-6.8169,-6.7845,-6.7424,-6.6841,-6.6129,-6.6161,-6.5254,-6.4801,-6.5384,-6.5448,-6.5902,-6.6485,-6.7003,-6.7618,-6.7715,-6.8007,-6.8201,-6.8201,-6.8201,-6.8201,-6.8201,-6.8201,-6.8201,-6.8201,-6.8201,-6.8201,-6.8201,-6.8201,-6.8201,-6.8201,-6.8201,-6.8201,-6.8201,-6.8201,-6.8201,-6.8201,-6.8201,-6.8201,-6.8201,-6.8101,-6.7899,-6.7797,-6.7695,-6.785,-6.8356,-6.8553,-6.8818,-6.8594,-6.8625,-6.8437,-6.8382,-6.8243,-6.7596,-6.7073,-6.6642,-6.618,-6.5934,-6.6057,-6.6427,-6.6427,-6.6858,-6.7258,-6.6704,-6.6006,-6.5361,-6.4534,-6.3963,-6.3334,-6.2612,-6.191,-6.1346,-6.0986,-6.0774,-6.0165,-5.9702,-5.9329,-5.9205,-5.9205,-5.9205,-5.9205,-5.9205,-5.9205,-5.9205,-5.9205,-5.9205,-5.9205,-5.9205,-5.9205,-5.9205,-5.9205,-5.9205,-5.9205]}]]